In aller Freundschaft – Die jungen Ärzte
Nip/Tuck - Schönheit hat ihren Preis
"The great use of a life is to spend it for something that outlasts it." -- William James 1842-1910

PRE DATA

Datetime Release
2017-06-16 00:00:11 Alibi.com.2017.FRENCH.COMPLETE.BLURAY-4FR
2017-06-16 00:00:17 VA-Souchon_Dans_Lair_Vol._1-WEB-FR-2017-H5N1
2017-06-16 00:00:33 Pretty.Little.Liars.S06E11.German.DVDRip.x264-iNTENTiON
2017-06-16 00:00:54 Prison.Break.S05E03.FRENCH.1080p.HDTV.x264-SH0W
2017-06-16 00:01:13 Pretty.Little.Liars.S06E12.German.DVDRip.x264-iNTENTiON
2017-06-16 00:01:46 Pretty.Little.Liars.S06E13.German.DVDRip.x264-iNTENTiON
2017-06-16 00:02:23 Pretty.Little.Liars.S06E14.German.DVDRip.x264-iNTENTiON
2017-06-16 00:03:00 Pretty.Little.Liars.S06E15.German.DVDRip.x264-iNTENTiON
2017-06-16 00:03:37 Pretty.Little.Liars.S06E16.German.DVDRip.x264-iNTENTiON
2017-06-16 00:04:10 Shaun.T.Focus.T25.Core.Speed.2013.1080p.WEB.x264-I_KnoW
2017-06-16 00:04:15 Pretty.Little.Liars.S06E17.German.DVDRip.x264-iNTENTiON
2017-06-16 00:04:50 Pretty.Little.Liars.S06E18.German.DVDRip.x264-iNTENTiON
2017-06-16 00:05:24 Pretty.Little.Liars.S06E19.German.DVDRip.x264-iNTENTiON
2017-06-16 00:05:52 Nurses.Who.Kill.S01E02.Ben.Geen.WEB.h264-UNDERBELLY
2017-06-16 00:06:01 Pretty.Little.Liars.S06E20.German.DVDRip.x264-iNTENTiON
2017-06-16 00:06:54 Nurses.Who.Kill.S01E03.Genene.Jones.WEB.h264-UNDERBELLY
2017-06-16 00:08:01 Shaun.T.Focus.T25.Core.Speed.2013.iNTERNAL.WEBRip.x264-I_KnoW
2017-06-16 00:08:13 Nurses.Who.Kill.S01E04.Daniella.Poggliali.WEB.h264-UNDERBELLY
2017-06-16 00:09:10 Nurses.Who.Kill.S01E05.Stephan.Letter.WEB.h264-UNDERBELLY
2017-06-16 00:09:17 MasterChef.Australia.S09E35.720p.HDTV.x264-ORENJI
2017-06-16 00:09:19 MasterChef.Australia.S09E35.HDTV.x264-FQM
2017-06-16 00:09:26 Aaahh.Real.Monsters.S02E02.Monsters.Are.Real.and.This.Is.Your.Brain.On.Ickis.DVDRiP.x264.iNTERNAL-REEDNiAR
2017-06-16 00:09:51 Nurses.Who.Kill.S01E06.Kimberley.Saenz.WEB.h264-UNDERBELLY
2017-06-16 00:10:49 Nurses.Who.Kill.S01E07.Niels.H.WEB.h264-UNDERBELLY
2017-06-16 00:11:36 Suicidegirls.com_17.06.14.Eden.And.Ultima.Ninten-Do-Me.XXX.iMAGESET-NLFTW
2017-06-16 00:11:50 Nurses.Who.Kill.S01E08.Colin.Norris.WEB.h264-UNDERBELLY
2017-06-16 00:12:45 J.Irai.Dormir.Chez.Vous.Nicaragua.DOC.FRENCH.HDTV.x264-DEAL
2017-06-16 00:12:50 Nurses.Who.Kill.S01E09.Victorino.Chua.WEB.h264-UNDERBELLY
2017-06-16 00:12:51 KC_Rebell_and_Summer_Cem-Maximum_(Deluxe_Edition)-WEB-DE-2017-ENTiTLED
2017-06-16 00:13:37 Penthouse.16.05.15.Jada.Fire.in.Pride.Gets.In.The.Way.XXX.1080p.MP4-GUSH
2017-06-16 00:13:50 Nurses.Who.Kill.S01E10.Charles.Cullen.WEB.h264-UNDERBELLY
2017-06-16 00:14:08 Logan.2017.TRUEFRENCH.720p.BluRay.x264-LOST
2017-06-16 00:14:45 Koenige_and_Priester-Heldenreise-WEB-DE-2017-ENTiTLED
2017-06-16 00:14:52 First.Kill.Last.Kill.S01E07.Peter.Moore.WEB.h264-UNDERBELLY
2017-06-16 00:17:10 Steely_Dan-The_St_Louis_Toodle-Oo_(Live)-WEB-2017-ENTiTLED
2017-06-16 00:17:44 Major_Leagues-Good_Love-WEB-2017-ENTiTLED
2017-06-16 00:20:22 Big.Brother.UK.S18E11.HDTV.x264-PLUTONiUM
2017-06-16 00:20:33 Die_Antwoord-MADE_BY_GOD_(Chapter_II)-WEB-2017-ENSLAVE
2017-06-16 00:20:51 Hannah_Aldridge-Gold_Rush-WEB-2017-ENTiTLED
2017-06-16 00:24:22 Penthouse.16.05.15.Chloe.Cane.in.My.Best.Friends.Girlfriend.XXX.1080p.MP4-GUSH
2017-06-16 00:28:48 Joyner_Lucas-508-507-2209-WEB-2017-ENTiTLED
2017-06-16 00:29:42 Stephan_Sulke-Liebe_ist_nichts_fur_Anfaenger-WEB-DE-2017-ENTiTLED
2017-06-16 00:30:18 Juste.Un.Regard.S01E02.FRENCH.1080p.HDTV.x264-Ryotox
2017-06-16 00:30:29 Colt-Everything_Seems_Grey-WEB-2017-ENTiTLED
2017-06-16 00:31:06 Perdoname.Senyor.S01E03.SPANiSH.1080p.HDTV.x264-FERiCE
2017-06-16 00:31:23 Perdoname.Senyor.S01E03.SPANiSH.720p.HDTV.x264-FERiCE
2017-06-16 00:31:40 Perdoname.Senyor.S01E03.SPANiSH.HDTV.x264-FERiCE
2017-06-16 00:31:43 Springer.Am.Anfang.war.die.Verschwoerungstheorie.GERMAN.RETAIL.EBOOK-METHLAB
2017-06-16 00:33:12 You.Me.Her.S02E01.German.DL.DUBBED.1080p.WebHD.x264-TVNATiON
2017-06-16 00:33:49 You.Me.Her.S02E01.German.DL.DUBBED.720p.WebHD.x264-TVNATiON
2017-06-16 00:34:27 You.Me.Her.S02E01.German.DUBBED.WebRip.x264-TVNATiON
2017-06-16 00:39:27 Lady_Dubbz_-_Take_You_Away-(PN001)-WEB-2017-SRG
2017-06-16 00:39:44 Espermachine-Polar-2017-AMOK
2017-06-16 00:40:04 Ivories-Light_Years-Ltd.Ed.-2017-AMOK
2017-06-16 00:40:33 TSTI-Endings-2017-AMOK
2017-06-16 00:40:46 Scott_Gilmore-Subtle_Vertigo-WEB-2017-ENSLAVE
2017-06-16 00:41:18 Moby-The_Drum_and_Bass_Remixes-WEB-2017-BPM
2017-06-16 00:41:59 Jazzamor-Strange_to_Be_in_Paradise-WEB-2017-ENTiTLED
2017-06-16 00:58:00 Motorway.Patrol.S16E09.HDTV.x264-FiHTV
2017-06-16 01:00:15 Dr.Cares.Pet.Rescue.911.Platinum.Edition.v1.2.4659.German-DELiGHT
2017-06-16 01:01:57 Big.Brother.UK.S18E11.720p.HDTV.x264-PLUTONiUM
2017-06-16 01:02:37 Kota_Asanuma_-_Bad_Lens_EP-(MT153A)-WEB-2017-HQEM
2017-06-16 01:06:59 Missions.S01E06.FRENCH.720p.HDTV.x264-AMB3R
2017-06-16 01:07:26 Missions.S01E06.FRENCH.HDTV.x264-AMB3R
2017-06-16 01:11:34 Jerseylicious.S06E09.A.Very.Jersey.Wedding.1080p.WEB.x264-WEBSTER
2017-06-16 01:12:22 The.Leftovers.S03E03.SPANiSH.1080p.HDTV.x264-FERiCE
2017-06-16 01:14:15 Superfunk-Hold_Up_(Remastered)-WEB-2011-ENSLAVE
2017-06-16 01:14:31 Superfunk-Hold_Up_(Remixes)-WEB-2011-ENSLAVE
2017-06-16 01:14:51 Testset-Drekerd-(PLZ009)-WEB-2017-ENSLAVE
2017-06-16 01:15:02 VA-10cotexas-(DT065D)-WEB-2017-ENSLAVE
2017-06-16 01:15:19 VA-Firma_Do_Txiga-WEB-2017-ENSLAVE
2017-06-16 01:15:31 Jono.And.Ben.S06E17.720p.HDTV.x264-FiHTV
2017-06-16 01:15:33 VA-Glitterbox-A_Disco_Hi_(Mixed)-WEB-2017-ENSLAVE
2017-06-16 01:15:49 VA-Goldenboy_002-(GLD002)-WEB-2017-ENSLAVE
2017-06-16 01:16:20 Markus_Schulz_-_Global_DJ_Broadcast__Incl_Gai_Barone_Guestmix-SAT-06-15-2017-TALiON
2017-06-16 01:20:10 Big.Brothers.Bit.On.The.Side.S13E09.HDTV.x264-PLUTONiUM
2017-06-16 01:20:50 Halt.and.Catch.Fire.S02E01.1080p.BluRay.x264-ROVERS
2017-06-16 01:22:25 Penthouse.16.05.15.Ana.Foxxx.in.Inked.Brunette.Beauties.XXX.1080p.MP4-GUSH
2017-06-16 01:22:28 Halt.and.Catch.Fire.S02E02.1080p.BluRay.x264-ROVERS
2017-06-16 01:25:22 Young_Fathers-TAPE_ONE-WEB-2011-ENTiTLED
2017-06-16 01:29:51 Big.Brothers.Bit.On.The.Side.S13E09.720p.HDTV.x264-PLUTONiUM
2017-06-16 01:31:26 Armageddon-Embrace_the_Mystery_and_Three-2CD-2009-gF
2017-06-16 01:32:08 Colour_Haze-In_Her_Garden-2017-gF
2017-06-16 01:33:02 Convulse-Disma-Days_of_Death-VINYL-2013-gF
2017-06-16 01:33:43 Defier-Overture_of_Annihilation-VINYL-1990-gF
2017-06-16 01:34:05 Ferry_Corsten_-_Corstens_Countdown_520-SAT-06-15-2017-TALiON
2017-06-16 01:34:24 Dying_Out_Flame-Shiva_Rudrastakam-2014-gF
2017-06-16 01:35:05 Enforcer-Live_by_Fire-DVD-2015-gF
2017-06-16 01:35:29 X-Art.17.06.14.Kenna.James.Just.Like.Valentines.Day.XXX.1080p.MP4-KTR
2017-06-16 01:35:49 Godseye-Hate-MCD-1994-gF
2017-06-16 01:36:31 Kielletyt_Viivat-Kielletyt_Viivat-FI-CDEP-1993-gF
2017-06-16 01:36:39 X-Art.17.06.14.Kenna.James.Just.Like.Valentines.Day.XXX.2160p.MP4-KTR
2017-06-16 01:37:11 Krister-Krister-FI-1990-gF
2017-06-16 01:37:51 Lost_Soul_Division-Release-CDS-2004-gF
2017-06-16 01:38:30 Marie_Celeste-Marie_Celeste-CDS-1993-gF
2017-06-16 01:38:37 Halt.and.Catch.Fire.S02E03.1080p.BluRay.x264-ROVERS
2017-06-16 01:39:11 Moon-Yours_Sincerely-1991-gF
2017-06-16 01:39:51 Pojat-Aina_Lauantai-Loma-CDS-FI-1998-gF
2017-06-16 01:40:34 Republic-Oktober_67_Ket_Nehez_Nap_Ejszakaja-HU-1996-gF
2017-06-16 01:41:12 Rytke-Sikarokkia-FI-CDEP-1994-gF
2017-06-16 01:41:53 Screamer-Ja_Rokki_Soi-FI-Promo-CDS-1994-gF
2017-06-16 01:41:53 Slim_Jesus-The_Most_Hated-WEB-2017-ESG
2017-06-16 01:41:59 Halt.and.Catch.Fire.S02E04.1080p.BluRay.x264-ROVERS
2017-06-16 01:42:34 Scythe_of_Orion-The_Dawn_of_Scythe_of_Orion-Demo-CDR-2007-gF
2017-06-16 01:43:12 Suzy_Gang-Odota_Mua-Nukkekoti-Sa_Et_Saa-FI-Promo-CDEP-1994-gF
2017-06-16 01:43:51 Tarrakuva-Tre_Molos-Split_EP-FI-CDEP-1997-gF
2017-06-16 01:44:29 The_Black_League-Cold_Women_and_Warm_Beer-CDS-2003-gF
2017-06-16 01:44:33 Halt.and.Catch.Fire.S02E05.1080p.BluRay.x264-ROVERS
2017-06-16 01:45:07 Thunderstone-Forevermore-Face_in_the_Mirror-CDS-2007-gF
2017-06-16 01:45:50 Transit-Heartbraker-CDEP-1989-gF
2017-06-16 01:45:57 Halt.and.Catch.Fire.S02E06.1080p.BluRay.x264-ROVERS
2017-06-16 01:46:28 Undertaking-V12BB4U-Remastered-2017-gF
2017-06-16 01:47:06 Vire-Riesa-FI-CDEP-1998-gF
2017-06-16 01:47:45 Wanha_Warasto-Wanha_Warasto-FI-CDEP-1994-gF
2017-06-16 01:49:03 Lynda.F.Sharp.Automated.Testing.For.Developers-XQZT
2017-06-16 01:50:42 Desus.And.Mero.2017.06.14.WEB.x264-CookieMonster
2017-06-16 01:51:25 Desus.And.Mero.2017.06.14.720p.WEB.x264-CookieMonster
2017-06-16 01:52:19 Desus.And.Mero.2017.06.14.1080p.WEB.x264-CookieMonster
2017-06-16 01:52:41 Lynda.Cisco.ICND2.Cert.Prep.Switching-XQZT
2017-06-16 01:52:54 Hommarju_-_Many_Complications-(RLNTDIGI105)-WEB-JP-2013-ZzZz
2017-06-16 01:53:03 Lynda.LFCS.Operation.of.Running.Systems.(Ubuntu)-XQZT
2017-06-16 01:53:28 The_4th_feat_Mayumi_Morinaga_-_The_4th_EP2-(S2TB-0018)-WEB-JP-2016-ZzZz
2017-06-16 01:53:37 Creampie-Angels.17.06.15.Janny.Manson.XXX.1080p.MP4-KTR
2017-06-16 01:54:02 VA_-_HARDCORE_UNITED_TOKYO-(S2TB-0007)-WEB-JP-2013-ZzZz
2017-06-16 01:55:19 Creampie-Angels.17.06.15.Janny.Manson.XXX.2160p.MP4-KTR
2017-06-16 01:55:55 FakeTaxi.17.06.15.Sasha.Steele.XXX.1080p.MP4-KTR
2017-06-16 01:56:27 Future-Mask_Off_(Marshmello_Remix)-WEB-2017-ESG
2017-06-16 01:57:02 FamilyStrokes.17.06.15.Demi.Lopez.XXX.1080p.MP4-KTR
2017-06-16 01:57:42 FemaleFakeTaxi.17.06.15.Michelle.Thorne.XXX.1080p.MP4-KTR
2017-06-16 01:58:04 H.E.R.-H.E.R._Volume_2-WEB-2017-ESG
2017-06-16 01:58:17 HollyRandall.17.06.15.Chanel.Preston.Regal.XXX.1080p.MP4-KTR
2017-06-16 01:59:01 MassageRooms.17.06.15.Lady.Bug.XXX.1080p.MP4-KTR
2017-06-16 01:59:41 G_Herbo-Red_Snow-WEB-2017-ESG
2017-06-16 02:02:42 Reus.LINUX-SMACKs
2017-06-16 02:04:22 Tegami.Bachi.Reverse.E09.SUBFRENCH.720p.HDTV.x264-AMB3R
2017-06-16 02:04:31 Tegami.Bachi.Reverse.E09.SUBFRENCH.HDTV.x264-AMB3R
2017-06-16 02:10:57 Depeche_Mode-Ultra_(Remastered)-WEB-1997-ENTiTLED_iNT
2017-06-16 02:11:13 Depeche_Mode-Violator-WEB-1990-ENTiTLED_iNT
2017-06-16 02:11:28 Duke_Ellington_Orchestra_and_Polish_National_Philharmonic-Three_Black_Kings_(Live)-WEB-2017-ENTiTLED
2017-06-16 02:11:42 Freddy_Quinn-Schlager_Legende-Freddy_Quinn-WEB-DE-2015-ENTiTLED
2017-06-16 02:11:59 Herbie_Hancock-Sunlight-WEB-1978-ENTiTLED_iNT
2017-06-16 02:12:14 Heroes_del_Silencio-Canciones_1984-1996-The_Best_of_Heroes_del_Silencio-WEB-SP-2014-ENTiTLED_iNT
2017-06-16 02:12:31 Miles_Davis-A_Tribute_To_Jack_Johnson-WEB-1970-ENTiTLED_iNT
2017-06-16 02:12:46 Queensryche-Live_at_the_Civic_Center_San_Jose_CA_30th_Oct_1983-WEB-1983-ENTiTLED
2017-06-16 02:13:01 The_Kinks-Low_Budget-WEB-1979-ENTiTLED_iNT
2017-06-16 02:13:18 Too_Sad_for_the_Public-American_Folk_Fantasies_Vol_1_Oysters_Ice_Cream_and_Lemonade-WEB-2017-ENTiTLED
2017-06-16 02:13:32 VA-Wanted_Afrobeat_From_Diggers_to_Music_Lovers-WEB-2017-ENTiTLED
2017-06-16 02:13:55 Australian.Story.S22E15.720p.HDTV.x264-ORENJI
2017-06-16 02:13:58 Australian.Story.S22E15.Luke.Davies.Candy.Man.Part.2.HDTV.x264-FQM
2017-06-16 02:16:07 Tonight.S19E23.The.Tower.Block.Disaster.720p.HDTV.x264-CREED
2017-06-16 02:18:14 Four.Corners.S57E13.720p.HDTV.x264-ORENJI
2017-06-16 02:18:17 Four.Corners.S57E13.The.Siege.Part.1.HDTV.x264-FQM
2017-06-16 02:18:26 Reus.MACOSX-SMACKs
2017-06-16 02:18:42 Halt.and.Catch.Fire.S02E07.1080p.BluRay.x264-ROVERS
2017-06-16 02:20:42 Halt.and.Catch.Fire.S02E08.1080p.BluRay.x264-ROVERS
2017-06-16 02:23:21 Lynda.Android.Development.Essential.Training.Manage.Navigation.and.Events-XQZT
2017-06-16 02:23:53 Halt.and.Catch.Fire.S02E09.1080p.BluRay.x264-ROVERS
2017-06-16 02:24:06 Media.Watch.2017.05.22.HDTV.x264-FQM
2017-06-16 02:24:07 Media.Watch.2017.05.22.720p.HDTV.x264-ORENJI
2017-06-16 02:26:13 Baeb.17.06.16.Jill.Kassidy.Punished.By.My.Boss.XXX.1080p.MP4-KTR
2017-06-16 02:26:50 Halt.and.Catch.Fire.S02E10.1080p.BluRay.x264-ROVERS
2017-06-16 02:27:34 CastingCouch-X.17.06.16.April.Snow.XXX.1080p.MP4-KTR
2017-06-16 02:28:50 POVD.17.06.16.Lana.Rhoades.Step-Sister.Caught.XXX.1080p.MP4-KTR
2017-06-16 02:29:14 Q.And.A.AU.2017.05.22.PDTV.x264-FQM
2017-06-16 02:29:48 WildOnCam.17.06.08.Megan.Rain.XXX.1080p.MP4-KTR
2017-06-16 02:30:21 Manuela_Doriani_Ft._Don_Cash-Music_Zone_(Incl._DJ_Jump_and_Morris_Corti_Live_Mixes)-SAT-13-06-2017-LFA
2017-06-16 02:30:56 WildOnCam.17.06.08.Morgan.Lee.XXX.1080p.MP4-KTR
2017-06-16 02:33:08 WildOnCam.17.06.09.Dillion.Harper.XXX.1080p.MP4-KTR
2017-06-16 02:35:27 WildOnCam.17.06.14.Giselle.Palmer.XXX.1080p.MP4-KTR
2017-06-16 02:36:22 The.F.Word.US.S01E03.WEB.h264-TBS
2017-06-16 02:37:33 WildOnCam.17.06.15.Carter.Cruise.XXX.1080p.MP4-KTR
2017-06-16 02:40:39 The.F.Word.US.S01E03.720p.WEB.h264-TBS
2017-06-16 02:44:23 Lynda.Migrating.from.Google.Drive.to.SharePoint-XQZT
2017-06-16 02:46:59 The.F.Word.US.S01E03.1080p.WEB.h264-TBS
2017-06-16 02:56:28 ATKExotics.17.06.15.Ariana.Cox.Toys.XXX.1080p.MP4-KTR
2017-06-16 02:57:56 ATKGalleria.17.06.15.Farrah.Alexandra.Toys.XXX.1080p.MP4-KTR
2017-06-16 02:58:43 ATKGalleria.17.06.15.Lily.Adams.Toys.XXX.1080p.MP4-KTR
2017-06-16 02:59:26 ATKGalleria.17.06.15.Tiff.Bannister.Masturbation.1.XXX.1080p.MP4-KTR
2017-06-16 03:00:11 ATKGalleria.17.06.15.Tiff.Bannister.Masturbation.2.XXX.1080p.MP4-KTR
2017-06-16 03:00:52 ATKGalleria.17.06.15.Tiff.Bannister.Masturbation.3.XXX.1080p.MP4-KTR
2017-06-16 03:01:36 ATKGalleria.17.06.15.Zoe.Clark.Toys.1.XXX.1080p.MP4-KTR
2017-06-16 03:02:06 ATKGalleria.17.06.15.Zoe.Clark.Toys.2.XXX.1080p.MP4-KTR
2017-06-16 03:02:45 ATKHairy.17.06.15.Evelina.Darling.Toys.XXX.1080p.MP4-KTR
2017-06-16 03:03:25 ATKHairy.17.06.15.Kalei.Nudism.XXX.1080p.MP4-KTR
2017-06-16 03:03:42 Private.Eyes.S02E04.HDTV.x264-KILLERS
2017-06-16 03:04:25 LittleCapriceDreams.17.06.13.Paula.Like.It.Three.Way.XXX.1080p.MP4-KTR
2017-06-16 03:04:29 Private.Eyes.S02E04.720p.HDTV.x264-KILLERS
2017-06-16 03:06:40 One.Piece.E792.SUBFRENCH.720p.HDTV.x264-AMB3R
2017-06-16 03:06:48 One.Piece.E792.SUBFRENCH.HDTV.x264-AMB3R
2017-06-16 03:06:58 HookupHotshot.16.11.05.Chloe.Carter.Send.Nudes.XXX.2160p.MP4-KTR
2017-06-16 03:07:43 HookupHotshot.16.11.07.Lily.Adams.BTS.XXX.1080p.MP4-KTR
2017-06-16 03:09:49 HookupHotshot.16.11.07.Lily.Adams.BTS.XXX.2160p.MP4-KTR
2017-06-16 03:12:30 HookupHotshot.16.11.12.Veronica.Avluv.Her.Mom.Catfished.Me.XXX.2160p.MP4-KTR
2017-06-16 03:12:57 Alberto_Remondini_Feat._Renee_La_Bulgara-M2O_Radio-SAT-14-06-2017-LFA
2017-06-16 03:12:58 Alberto_Remondini_Feat._Renee_La_Bulgara-M2ORadio-SAT-14-066-2017-LFA
2017-06-16 03:12:58 Big.Brother.UK.S18E11.1080p.HDTV.x264-PLUTONiUM
2017-06-16 03:13:09 Alberto_Remondini_Feat._Renee_La_Bulgara-M2O_Radio-SAT-15-06-2017-LFA
2017-06-16 03:13:30 Federica_Elmi-M2O_Radio-SAT-15-06-2017-LFA
2017-06-16 03:13:44 Provenzano_DJ_and_Manuela_Doriani_Ft._Don_Cash-Music_Zone-SAT-12-06-2017-LFA
2017-06-16 03:16:33 NatalyGoldAss.17.01.06.Solo.Fetish.On.A.Glass.Table.XXX.1080p.MP4-KTR
2017-06-16 03:17:03 NatalyGoldAss.17.02.28.Stylish.Girls.With.Henessy.XXX.1080p.MP4-KTR
2017-06-16 03:17:45 NatalyGoldAss.17.03.21.Drill.My.Ass.With.Cassie.Fire.XXX.1080p.MP4-KTR
2017-06-16 03:18:34 NatalyGoldAss.17.04.05.Some.Foot.Fetish.And.Anal.Fun.XXX.1080p.MP4-KTR
2017-06-16 03:19:07 NatalyGoldAss.17.04.08.Assfucked.With.A.Lightsaber.Toy.XXX.1080p.MP4-KTR
2017-06-16 03:19:48 NatalyGoldAss.17.04.08.Bottle.Deepthroat.And.Anal.XXX.1080p.MP4-KTR
2017-06-16 03:20:15 NatalyGoldAss.17.04.14.Easter.Bunny.XXX.1080p.MP4-KTR
2017-06-16 03:20:46 NatalyGoldAss.17.04.21.Beauty.Salon.With.Evelina.Darling.XXX.1080p.MP4-KTR
2017-06-16 03:21:34 NatalyGoldAss.17.04.28.Rough.Lesbian.Strapon.Fuck.With.Lovenia.Lux.XXX.1080p.MP4-KTR
2017-06-16 03:22:25 NatalyGoldAss.17.05.07.Cuckold.Fantasy.XXX.1080p.MP4-KTR
2017-06-16 03:22:54 NatalyGoldAss.17.05.23.Deepthroat.And.Ass.Dildo.Attack.With.Jessica.Lincoln.XXX.1080p.MP4-KTR
2017-06-16 03:23:34 NatalyGoldAss.17.05.31.Fetish.Slave.Instincts.Unleashed.With.Taissia.Shanti.XXX.1080p.MP4-KTR
2017-06-16 03:24:19 NatalyGoldAss.17.06.08.Naughty.Doll.With.Daniela.XXX.1080p.MP4-KTR
2017-06-16 03:29:39 Bones.S12D1.NTSC.DVDR-ToF
2017-06-16 03:32:15 VA-Afrikaan_Bumper_Riddim-WEB-2017-JAH
2017-06-16 03:32:31 VA-Beautiful_Riddim-WEB-2017-JAH
2017-06-16 03:32:46 VA-Big_Foot_Riddim-WEB-2017-JAH
2017-06-16 03:33:02 VA-CareFree_Riddim-WEB-2017-JAH
2017-06-16 03:33:17 VA-Cauziters_Riddim-WEB-2017-JAH
2017-06-16 03:33:34 VA-Cock_Up_Riddim-WEB-2017-JAH
2017-06-16 03:33:50 VA-Eagle_Riddim-WEB-2017-JAH
2017-06-16 03:33:58 Bones.S12D2.NTSC.DVDR-ToF
2017-06-16 03:34:04 VA-Fake_Family_Riddim_Vol_2-WEB-2017-JAH
2017-06-16 03:34:11 Fela_Kuti-Excuse-O-REISSUE-WEB-2009-ENTiTLED_iNT
2017-06-16 03:34:20 VA-Fresh_Mouth_Riddim_SVG_Edition-WEB-2017-JAH
2017-06-16 03:34:30 Fela_Kuti-Live_In_Amsterdam-REISSUE-WEB-2013-ENTiTLED_iNT
2017-06-16 03:34:36 VA-Gal_Dash_out_Riddim-WEB-2017-JAH
2017-06-16 03:34:52 VA-Intoxicated_Riddim-WEB-2017-JAH
2017-06-16 03:34:55 Fela_Kuti-London_Scene-REISSUE-WEB-2009-ENTiTLED_iNT
2017-06-16 03:35:07 VA-Jack_Frost_Riddim-WEB-2017-JAH
2017-06-16 03:35:14 Fela_Kuti-Roforofo_Fight-REISSUE-WEB-2009-ENTiTLED
2017-06-16 03:35:24 VA-Kenyakibera_Riddim-WEB-2017-JAH
2017-06-16 03:35:33 Fela_Kuti-Shakara-REISSUE-WEB-2009-ENTiTLED_iNT
2017-06-16 03:35:40 VA-Raw_Moon_Riddim-WEB-2017-JAH
2017-06-16 03:35:55 Fela_Kuti-Stalemate-REISSUE-WEB-2009-ENTiTLED_iNT
2017-06-16 03:35:55 VA-Red_Diamond_Riddim-WEB-2017-JAH
2017-06-16 03:36:10 VA-Silver_Plate_Riddim-WEB-2017-JAH
2017-06-16 03:36:16 Fela_Kuti-VIP_Vol_1_Live_In_Berlin-WEB-2009-ENTiTLED
2017-06-16 03:36:26 VA-The_Love_Bug_Riddim-WEB-2017-JAH
2017-06-16 03:36:37 Fela_Kuti-Yellow_Fever-REISSUE-WEB-2009-ENTiTLED_iNT
2017-06-16 03:36:56 Fela_Kuti_And_Afrika_70-Zombie-REISSUE-WEB-2009-ENTiTLED
2017-06-16 03:37:17 Fela_Kuti_and_Egypt_80-Live_In_Detroit_1986-WEB-2012-ENTiTLED_iNT
2017-06-16 03:38:26 Bones.S12D3.NTSC.DVDR-ToF
2017-06-16 03:45:20 John.Wick.Chapter.2.2017.COMPLETE.QC.BLURAY-4FR
2017-06-16 03:47:44 Coldplay-All_I_Can_Think_About_Is_You-SINGLE-WEB-2017-ENTiTLED
2017-06-16 03:48:07 Grimm.S06D1.NTSC.DVDR-ToF
2017-06-16 03:49:11 BeautyAndTheSenior.17.06.16.Antonia.Sainz.XXX.1080p.MP4-KTR
2017-06-16 03:50:21 JimSlip.17.06.16.Crystal.Greenvelle.Babe.On.A.Bed.XXX.1080p.MP4-KTR
2017-06-16 03:51:07 PornMegaLoad.17.06.15.Josie.Ray.An.Anal.Fucking.For.The.Busty.First-Timer.XXX.1080p.MP4-KTR
2017-06-16 03:51:41 PornMegaLoad.17.06.15.Micky.Bells.Visits.The.Gym.XXX.1080p.MP4-KTR
2017-06-16 03:52:14 PornMegaLoad.17.06.15.Nila.Mason.Sexy.Selfies.XXX.1080p.MP4-KTR
2017-06-16 03:53:47 Grimm.S06D2.NTSC.DVDR-ToF
2017-06-16 03:56:20 GroupSexGames.17.06.16.Lana.Connie.And.Angela.Wild.Sex.Game.And.Skateboarding.XXX.1080p.MP4-KTR
2017-06-16 03:56:48 Grimm.S06D3.NTSC.DVDR-ToF
2017-06-16 03:57:44 Big.Brothers.Bit.On.The.Side.S13E09.1080p.HDTV.x264-PLUTONiUM
2017-06-16 03:58:46 CastingAllaItaliana.17.06.15.Ana.Marco.ITALIAN.XXX.1080p.MP4-KTR
2017-06-16 03:59:09 The.Putin.Interviews.Part.4.720p.HDTV.x264-BRISK
2017-06-16 03:59:31 The.Putin.Interviews.Part.4.HDTV.x264-BRISK
2017-06-16 03:59:41 Courtney_John-Ecosystem-WEB-2017-JAH
2017-06-16 04:00:06 Derrick_Morgan-White_Cross_Collection-WEB-2017-JAH
2017-06-16 04:00:32 Hal_Anthony-Hal_Anthony_Sings_The_Gladiators_Greatest_Hits-WEB-2017-JAH
2017-06-16 04:00:59 Mark_Wonder-Dragon_Slayer-WEB-2017-JAH
2017-06-16 04:01:24 Marla_Brown-Survivor-EP-WEB-2017-JAH
2017-06-16 04:01:49 Owen_Gray-White_Cross_Collection-WEB-2017-JAH
2017-06-16 04:02:16 Prezident_Brown-Journeyman_Pilgrimage-WEB-2017-JAH
2017-06-16 04:02:28 Nashville.2012.S05E14.720p.HDTV.x264-SVA
2017-06-16 04:02:39 Roland_Alphonso-White_Cross_Collection-WEB-2017-JAH
2017-06-16 04:02:44 Grimm.S06D4.NTSC.DVDR-ToF
2017-06-16 04:03:05 VA-Jamaicas_Tribute_to_UB40-WEB-2017-JAH
2017-06-16 04:03:06 Nashville.2012.S05E14.HDTV.x264-SVA
2017-06-16 04:03:33 VA-Nice_up_the_Session_Vol_3-WEB-2017-JAH
2017-06-16 04:03:57 Whispa_Di_Minista-The_Introduction-WEB-2017-JAH
2017-06-16 04:05:37 FantomWorks.S03E14.All.Revved.Up.iNTERNAL.720p.HDTV.x264-DHD
2017-06-16 04:06:44 Jono.And.Ben.S06E17.HDTV.x264-FiHTV
2017-06-16 04:07:03 South.Park.S20D1.NTSC.DVDR-ToF
2017-06-16 04:10:20 KarupsHA.17.06.15.Dyna.Mite.Hardcore.XXX.720p.MP4-KTR
2017-06-16 04:10:47 King.Of.The.Road.US.S02E02.720p.WEB.x264-CookieMonster
2017-06-16 04:10:49 KarupsHA.17.06.15.Lizzie.Tucker.Hardcore.2.XXX.720p.MP4-KTR
2017-06-16 04:11:27 KarupsOW.17.06.15.Anna.Wolick.And.Natalie.Albright.Threesome.XXX.720p.MP4-KTR
2017-06-16 04:12:00 KarupsPC.17.06.15.Kaitlin.Tune.And.Megan.Vale.Lesbian.XXX.720p.MP4-KTR
2017-06-16 04:13:30 Power.Rangers.2017.BDRip.x264-GECKOS
2017-06-16 04:14:48 Power.Rangers.2017.720p.BluRay.x264-GECKOS
2017-06-16 04:15:50 Gutsful.S01E05.720p.HDTV.x264-FiHTV
2017-06-16 04:17:55 Gutsful.S01E05.HDTV.x264-FiHTV
2017-06-16 04:20:05 South.Park.S20D2.NTSC.DVDR-ToF
2017-06-16 04:20:44 King.Of.The.Road.US.S02E02.WEB.x264-CookieMonster
2017-06-16 04:25:09 The.Vampire.Diaries.S08D1.NTSC.DVDR-ToF
2017-06-16 04:27:26 The.Vampire.Diaries.S08D2.NTSC.DVDR-ToF
2017-06-16 04:30:35 The.Vampire.Diaries.S08D3.NTSC.DVDR-ToF
2017-06-16 04:34:46 Power.Rangers.2017.1080p.BluRay.x264-GECKOS
2017-06-16 04:40:43 Saving.Hope.S05E11.HDTV.x264-KILLERS
2017-06-16 04:42:19 Logan.The.Wolverine.2017.German.DL.1080p.BluRay.AVC-REMUX
2017-06-16 04:42:36 Saving.Hope.S05E11.720p.HDTV.x264-KILLERS
2017-06-16 04:45:39 King.Of.The.Road.US.S02E02.1080p.WEB.x264-CookieMonster
2017-06-16 04:47:52 Bong.Appetit.S02E09.WEB.x264-CookieMonster
2017-06-16 04:53:57 Owiny_Sigoma_Band-(Nairobi)_Too_Hot-(BLV2361286)-WEB-2016-CBR
2017-06-16 04:54:55 VA-Motives_Of_House_Music_Vol_4-(RH2COMP168)-WEB-2017-CBR
2017-06-16 05:00:42 Queen.of.the.South.S02E02.720p.HDTV.x264-FLEET
2017-06-16 05:00:44 Queen.of.the.South.S02E02.720p.HDTV.x264-SVA
2017-06-16 05:01:09 Queen.of.the.South.S02E02.HDTV.x264-FLEET
2017-06-16 05:01:20 Queen.of.the.South.S02E02.HDTV.x264-SVA
2017-06-16 05:09:24 VA_-_Handsup_Nation_Vol_3-(10113123)-WEB-2017-ZzZz
2017-06-16 05:10:51 Mock.The.Week.S16E02.720p.HDTV.x264-CREED
2017-06-16 05:16:46 Party.Legends.S02E02.WEB.x264-CookieMonster
2017-06-16 05:17:42 Party.Legends.S02E02.720p.WEB.x264-CookieMonster
2017-06-16 05:25:43 LinuxCBT.PHP-II.Edition.TUTORIAL-SoSISO
2017-06-16 05:26:12 LinuxCBT.PowerShell.Edition.TUTORIAL-SoSISO
2017-06-16 05:26:15 The.Daily.Show.2017.06.15.Whoopi.Goldberg.WEB.x264-TBS
2017-06-16 05:26:23 The.Daily.Show.2017.06.15.Whoopi.Goldberg.720p.WEB.x264-TBS
2017-06-16 05:27:16 The.Daily.Show.2017.06.15.Whoopi.Goldberg.1080p.WEB.x264-TBS
2017-06-16 05:32:10 Party.Legends.S02E02.1080p.WEB.x264-CookieMonster
2017-06-16 05:33:05 B-Side-Journey_To_Badlands-WEB-2017-ENTiTLED
2017-06-16 05:33:20 Jay_Alpha-Opus_de_Alpha-ism-WEB-2016-ENTiTLED
2017-06-16 05:33:37 Jay_Alpha-Opus_de_Alpha-ism-WEB-2016
2017-06-16 05:33:45 VA_-_Clubbing-Sounds_2017.2_Bootleg-WEB-2017-ZzZz_INT
2017-06-16 05:36:22 Party.Legends.S02E02.720p.HDTV.x264-BRISK
2017-06-16 05:36:35 Party.Legends.S02E02.HDTV.x264-BRISK
2017-06-16 05:44:04 Logan.2017.MULTi.TRUEFRENCH.1080p.BluRay.x264-LOST
2017-06-16 05:44:38 HotLegsAndFeet.17.06.16.Aislin.XXX.1080p.MP4-KTR
2017-06-16 05:46:52 DDFBusty.17.06.16.Rachele.Richey.XXX.1080p.MP4-KTR
2017-06-16 05:48:44 MomKnowsBest.17.06.16.Bridgette.B.And.Nina.North.She.Devil.Wears.Nada.An.XXX.Parody.Part.2.XXX.1080p.MP4-KTR
2017-06-16 05:48:45 MomKnowsBes.17.06.16.Bridgette.B.And.Nina.North.She.Devil..Wears.Nada.An.XXX.Parody.Part.2.XXX.1080p.MP4-KTR
2017-06-16 05:48:47 MomKnowsBest.17.06.16.Bridgette.B.And.Nina.orth.She.Devil.Wears.Nada.An.XXX.Parody.Part.2.XXX.1080p.MP4-KTR
2017-06-16 05:48:47 MomKnowsBes.17.06.16.Bridgette.B.And.Nina.North.She.Devil.Wears.Nada.An.XXX.Parody.Part.2.XXX.1080p.MP4-KTR
2017-06-16 05:48:48 MomKnowsBest.17.06.16.Bridgette.B.And.Nina.orth.She.Devil..Wears.Nada.An.XXX.Parody.Part.2.XXX.1080p.MP4-KTR
2017-06-16 05:48:55 American.Boyband.S01E02.720p.WEB.x264-CookieMonster
2017-06-16 05:50:51 AllFineGirls.17.06.16.Lovenia.One.Incredible.Massage.XXX.2160p.MP4-KTR
2017-06-16 05:51:30 American.Boyband.S01E02.WEB.x264-CookieMonster
2017-06-16 05:55:41 12_Gauge_Shotie_Young_Lyxx_Poodeezy-Stan_Smith-SINGLE-WEB-2017-ENRAGED
2017-06-16 05:55:57 A2M_Spazz-Blu_Cheese-SINGLE-WEB-2016-ENRAGED
2017-06-16 05:56:12 BeachBoyNino-They_Dont_Understand-SINGLE-WEB-2014-ENRAGED
2017-06-16 05:56:26 Beachboynino-Blue_Hundreds-SINGLE-WEB-2017-ENRAGED
2017-06-16 05:56:43 Bigga_Bands_and_Poodeezy-Flex_(All_We_Do)-SINGLE-WEB-2015-ENRAGED
2017-06-16 05:57:00 DJ_Scream_Presents_Yung_La_Feat_Screamspinzmlk_Offset_Swag-WEB-2009-ENRAGED_iNT
2017-06-16 05:57:14 Fred_Burton-CA_State_of_Mind_(I_Love_You_California)_feat_DayVDave-SINGLE-WEB-2016-ENRAGED
2017-06-16 05:57:30 Fred_Burton-Cant_Get_Away_(feat_Young_Jawz_and_DayVDave)-SINGLE-WEB-2016-ENRAGED
2017-06-16 05:57:45 Fred_Burton-Forward_Not_Back_(Remix)_feat_Rossi_Rock_and_Endo_Rosales-SINGLE-WEB-2015-ENRAGED
2017-06-16 05:58:01 Fred_Burton-Fred_Burton_The_LP-WEB-2015-ENRAGED
2017-06-16 05:58:17 Fred_Burton-Pride-SINGLE-WEB-2016-ENRAGED
2017-06-16 05:58:34 Fred_Burton-San_Diego_Nigga_(A_United_Ghetto)_feat_Bad_Karma_Poodeezy_and_SmokeSumnJ-SINGLE-WEB-2016-ENRAGED
2017-06-16 05:58:48 I-Rocc-Conflict_of_Interest-WEB-2017-ENRAGED
2017-06-16 05:59:04 I-Rocc-Xan_Diego-WEB-2016-ENRAGED
2017-06-16 05:59:20 Jeezy-Snow_Season_2017-WEB-2017-ENRAGED
2017-06-16 05:59:36 Joyner_Lucas-Finally_Home_(feat_Trae_tha_Truth)-SINGLE-WEB-2014-ENRAGED
2017-06-16 05:59:51 Joyner_Lucas-Fuck_Your_Feelings-SINGLE-WEB-2014-ENRAGED
2017-06-16 06:00:07 Joyner_Lucas-Happy_Birthday-SINGLE-WEB-2015-ENRAGED
2017-06-16 06:00:23 Joyner_Lucas-Im_Sorry-SINGLE-WEB-2016-ENRAGED
2017-06-16 06:00:39 Joyner_Lucas-Intervention-SINGLE-WEB-2014-ENRAGED
2017-06-16 06:01:25 Joyner_Lucas-Say_Hello_to_Adele-SINGLE-WEB-2016-ENRAGED
2017-06-16 06:01:30 Kook_The_Kashcow-Cant_Stop_the_Hustle_2-Still_Cant_Stop_(Hosted_By_RJ_Lamont_and_DJ_Yung_V)-WEB-2013-ENRAGED
2017-06-16 06:01:31 Nino_Man-Better_Late_Than_Never-WEB-2017-ENRAGED
2017-06-16 06:01:42 Obi_J-Okie_Doke-WEB-2017-ENRAGED
2017-06-16 06:01:56 Obi_J-Xanxiety-SINGLE-WEB-2016-ENRAGED
2017-06-16 06:02:12 Cosmid.net_17.06.16.Mandy.Jones.Mandy.On.The.Couch.XXX.iMAGESET-YAPG
2017-06-16 06:02:14 Poodeezy-4realz-SINGLE-WEB-2015-ENRAGED
2017-06-16 06:02:30 Poodeezy-Bipolar-WEB-2012-ENRAGED
2017-06-16 06:02:44 Poodeezy-Cross_Country_(feat_Mack_Twon)-SINGLE-WEB-2013-ENRAGED
2017-06-16 06:03:01 Poodeezy-Roses-SINGLE-WEB-2015-ENRAGED
2017-06-16 06:03:17 Poodeezy-Trap_Native-EP-WEB-2016-ENRAGED
2017-06-16 06:03:32 Poodeezy-Wheres_Poodeezy-WEB-2013-ENRAGED
2017-06-16 06:03:47 Poodeezy-Yeah_Na-SINGLE-WEB-2015-ENRAGED
2017-06-16 06:04:04 Poodeezy_Dollabillgates_And_Macktwon-Lem_Thurdy-WEB-2012-ENRAGED
2017-06-16 06:04:15 Poodeezy-Yeah_Na-SINGLE-WEB-2
2017-06-16 06:04:19 Poodeezy_Dollabillgates_And_Macktwon-Lem_Thurdy_2-WEB-2014-ENRAGED
2017-06-16 06:04:35 Rayne_Storm-All_Black-SINGLE-WEB-2016-ENRAGED
2017-06-16 06:04:51 Rayne_Storm-Supreme-EP-WEB-2016-ENRAGED
2017-06-16 06:05:06 Rj_Lamont-The_World_Is_Yours-WEB-2017-ENRAGED
2017-06-16 06:05:21 The_Bad_Tenants-Altitude_Check-SINGLE-WEB-2017-ENRAGED
2017-06-16 06:05:29 OfficeObsession.17.06.16.Rebecca.Volpetti.Raunchy.Realtor.XXX.1080p.MP4-KTR
2017-06-16 06:05:37 The_Bad_Tenants-Mostly_People-WEB-2015-ENRAGED
2017-06-16 06:05:53 Ty_Bless-Desnuda-SINGLE-WEB-2015-ENRAGED
2017-06-16 06:06:06 VA_-_Eurodance_Forever_Vol_1_(Mixed_By_Basscrasher)-BOOTLEG-WEB-2017-ZzZz_INT
2017-06-16 06:06:09 Ty_Bless-Freakin_It-EP-WEB-2010-ENRAGED
2017-06-16 06:06:24 Ty_Bless-Love_Sex_Money-WEB-2002-ENRAGED_iNT
2017-06-16 06:06:41 Ty_Bless-Rock_Da_Party_2.0-WEB-2017-ENRAGED
2017-06-16 06:06:56 Ty_Bless-Takin_My_Money-EP-WEB-2016-ENRAGED
2017-06-16 06:07:12 Young_Dro-Black_Boy_White_Boy-BONUS_TRACKS-WEB-2009-ENRAGED
2017-06-16 06:07:28 Yung_LA-Batman_and_Robin_(Superhero_Language)-WEB-2011-ENRAGED
2017-06-16 06:07:40 BabyGotBoobs.17.06.16.Keisha.Grey.Breast.Made.Plans.XXX.1080p.MP4-KTR
2017-06-16 06:07:44 Yung_LA-Blue_Bank_Roll_Vol_2-WEB-2014-ENRAGED
2017-06-16 06:08:00 Yung_LA-Crush_Da_Block-WEB-2010-ENRAGED
2017-06-16 06:08:15 Yung_LA-Expensive_Language_2-WEB-2017-ENRAGED
2017-06-16 06:08:32 Yung_LA-Have_U_Ever-WEB-2015-ENRAGED
2017-06-16 06:08:46 Yung_LA-I_Think_I_Can_Sang-WEB-2010-ENRAGED
2017-06-16 06:08:53 RealWifeStories.17.06.16.Nicolette.Shea.Not.My.Brothers.Keeper.XXX.1080p.MP4-KTR
2017-06-16 06:09:03 Yung_LA-No_Time_To_Waste-WEB-2015-ENRAGED
2017-06-16 06:09:11 American.Boyband.S01E02.1080p.WEB.x264-CookieMonster
2017-06-16 06:09:17 Yung_LA-Offset_Shawty-BONUS_TRACKS-WEB-2010-ENRAGED
2017-06-16 06:09:34 Yung_LA-One_Man_Army-WEB-2015-ENRAGED
2017-06-16 06:09:50 Yung_LA-Suntrust_Leland-WEB-2010-ENRAGED
2017-06-16 06:10:05 Yung_LA-The_Rebirth-WEB-2016-ENRAGED
2017-06-16 06:10:20 Yung_LA-Tryna_Tell_Ya-WEB-2017-ENRAGED
2017-06-16 06:11:02 Elements_of_Music-Block_Work_Mooy-WEB-2017-ENTiTLED
2017-06-16 06:11:19 Sadat_X-Never_Left_(Deluxe_Edition)-BONUS_TRACKS-WEB-2015-ENTiTLED
2017-06-16 06:11:28 At.Midnight.2017.06.15.WEB.x264-TBS
2017-06-16 06:11:31 At.Midnight.2017.06.15.720p.WEB.x264-TBS
2017-06-16 06:11:33 Sadat_X-The_Sum_of_a_Man-WEB-2017-ENTiTLED
2017-06-16 06:11:53 DPFanatics.17.06.16.Angel.Piaff.DP.XXX.1080p.MP4-KTR
2017-06-16 06:11:59 At.Midnight.2017.06.15.1080p.WEB.x264-TBS
2017-06-16 06:12:39 PixAndVideo.17.06.16.Frida.Sante.What.A.Deal.XXX.1080p.MP4-KTR
2017-06-16 06:13:30 WetAndPuffy.17.06.16.Lucy.Li.Big.Boob.Bonanza.XXX.1080p.MP4-KTR
2017-06-16 06:15:40 WetAndPuffy.17.06.16.Lucy.Li.Big.Boob.Bonanza.XXX.2160p.MP4-KTR
2017-06-16 06:17:55 Courtney_Pine-Modern_Day_Jazz_Stories-CD-FLAC-1995-dL
2017-06-16 06:20:05 VA_-_Chart_Mix_Vol_1_2017_Bootleg-WEB-2017-ZzZz_INT
2017-06-16 06:20:53 Courtney_Pine-Resistance-CD-FLAC-2005-dL
2017-06-16 06:22:30 Courtney_Pine-Underground-CD-FLAC-1997-dL
2017-06-16 06:24:40 Happy_Mondays-Yes_Please-CD-FLAC-1992-dL
2017-06-16 06:25:25 Natural_Swing-Orinicosistemas-WEB-2017-ENTiTLED
2017-06-16 06:25:31 Ojciec.Mateusz.S17E13.POLISH.720p.HDTV.x264-ProPLTV
2017-06-16 06:25:47 Stars-Privilege__We_Called_It_Love-WEB-2017-MOOsic
2017-06-16 06:26:01 Shania_Twain-Lifes_About_To_Get_Good-SINGLE-WEB-2017-ENTiTLED
2017-06-16 06:26:37 The_Dustbowl_Revival-The_Dustbowl_Revival-WEB-2017-ENTiTLED
2017-06-16 06:26:47 Swayzak-Dirty_Dancing-(K7128CD)-CD-FLAC-2002-dL
2017-06-16 06:27:05 Bang.Gonzo.17.06.16.Veruca.James.XXX.1080p.MP4-KTR
2017-06-16 06:27:41 Rodzinka.pl.S10E12.POLISH.720p.HDTV.x264-ProPLTV
2017-06-16 06:28:57 The_Parallax_Corporation-Cocadisco-(DB111CD)-REISSUE-CD-FLAC-2002-dL
2017-06-16 06:29:31 CherryPop.17.06.16.Cadey.Mercury.Let.Me.Cheer.You.Up.XXX.1080p.MP4-KTR
2017-06-16 06:30:20 DarkX.17.06.16.Zoe.Clark.And.Quinn.Wilde.We.Share.Everything.Part.1.XXX.1080p.MP4-KTR
2017-06-16 06:30:45 Wojenne.Dziewczyny.S01E13.POLISH.720p.HDTV.x264-ProPLTV
2017-06-16 06:30:56 EroticaX.17.06.16.Carmen.Caliente.A.Perfect.Sunday.Morning.XXX.1080p.MP4-KTR
2017-06-16 06:31:05 VA-Disco_Pogo_For_Punks_In_Pumps_Vol._5-(BP-11830)-CD-FLAC-2003-dL
2017-06-16 06:31:59 GirlsWay.17.06.16.Celeste.Star.And.Abigail.Mac.Cheat.Day.XXX.1080p.MP4-KTR
2017-06-16 06:33:14 HardX.17.06.16.Karlee.Grey.Naturally.Stacked.Superstar.XXX.1080p.MP4-KTR
2017-06-16 06:33:15 VA-Loop_Select_003_Sounds_From_Aotearoa-(LP008)-2CD-FLAC-2002-dL
2017-06-16 06:34:25 Druga.Szansa.S03E13.POLISH.720p.HDTV.x264-ProPLTV
2017-06-16 06:34:45 NewSensations.17.06.16.Lucie.Cline.XXX.1080p.MP4-KTR
2017-06-16 06:35:09 Logan.2017.TRUEFRENCH.BDRip.x264-PRiDEHD
2017-06-16 06:35:25 VA-Strictly_For_The_Hardcore_N.Y.C._Underground-(19809-2)-CD-FLAC-1993-dL
2017-06-16 06:35:31 NuruMassage.17.06.16.Kleio.Valentien.Dirty.Cop.XXX.1080p.MP4-KTR
2017-06-16 06:37:07 Throated.17.06.16.Gina.Valentina.XXX.1080p.MP4-KTR
2017-06-16 06:37:13 House.of.Cards.2013.S05E10.POLISH.720p.WEBRip.x264-ProPLTV
2017-06-16 06:37:38 VA-The_Almighty_12_Inches_Volume_3-(ALMYCD05)-CD-FLAC-1993-dL
2017-06-16 06:37:54 VintageFlash.17.06.16.Alexa.Red.Dressed.Up.To.Undress.XXX.1080p.MP4-KTR
2017-06-16 06:38:38 AllFineGirls.17.06.16.Lovenia.One.Incredible.Massage.XXX.1080p.MP4-KTR
2017-06-16 06:40:08 House.of.Cards.2013.S05E11.POLISH.720p.WEBRip.x264-ProPLTV
2017-06-16 06:42:12 Bang.Gonzo.17.06.16.Veruca.James.XXX.2160p.MP4-KTR
2017-06-16 06:43:12 House.of.Cards.2013.S05E12.POLISH.720p.WEBRip.x264-ProPLTV
2017-06-16 06:46:00 House.of.Cards.2013.S05E13.POLISH.720p.WEBRip.x264-ProPLTV
2017-06-16 06:49:17 Foreign.Correspondent.S26E11.Hunting.the.KGB.Killers.720p.HDTV.x264-ORENJI
2017-06-16 06:49:21 Foreign.Correspondent.S26E11.Hunting.the.KGB.Killers.HDTV.x264-FQM
2017-06-16 06:50:14 Le.Bureau.Des.Legendes.S02E01.POLISH.720p.HDTV.x264-ProPLTV
2017-06-16 06:50:25 MormonGirlz.17.06.16.Casey.XXX.1080p.MP4-KTR
2017-06-16 06:51:41 Ask.The.Doctor.S01E02.Diet.HDTV.x264-FQM
2017-06-16 06:52:15 Ask.The.Doctor.S01E02.720p.HDTV.x264-ORENJI
2017-06-16 06:53:05 PropertySex.17.06.16.Vienna.Black.The.Surprise.XXX.1080p.MP4-KTR
2017-06-16 06:53:07 PlayboyPlus.17.06.16.Jillisa.Lynn.Tropical.Princess.XXX.1080p.MP4-KTR
2017-06-16 06:53:10 The.Book.Club.S11E06.PDTV.x264-FQM
2017-06-16 06:54:41 Le.Bureau.Des.Legendes.S02E02.POLISH.720p.HDTV.x264-ProPLTV
2017-06-16 06:57:07 Il.Corriere.Della.Sera.06.16.2017.iTALiAN.RETAiL.eBook-DiVER
2017-06-16 06:58:30 Le.Bureau.Des.Legendes.S02E03.POLISH.720p.HDTV.x264-ProPLTV
2017-06-16 07:00:20 Ljubezen.Po.Domace.S01E14.SI.720p.WEB.x264-RADiOACTiVE
2017-06-16 07:04:51 Le.Bureau.Des.Legendes.S02E04.POLISH.720p.HDTV.x264-ProPLTV
2017-06-16 07:07:39 Reign.S04E16.HDTV.x264-KILLERS
2017-06-16 07:08:35 Suits.S06E09.POLISH.720p.HDTV.x264-ProPLTV
2017-06-16 07:09:03 Reign.S04E16.720p.HDTV.x264-KILLERS
2017-06-16 07:12:32 Suits.S06E10.POLISH.720p.HDTV.x264-ProPLTV
2017-06-16 07:12:35 Joymii.17.06.16.Anissa.Kate.Juicy.Love.XXX.1080p.MP4-KTR
2017-06-16 07:16:19 Suits.S06E11.POLISH.720p.HDTV.x264-ProPLTV
2017-06-16 07:21:20 Suits.S06E12.POLISH.720p.HDTV.x264-ProPLTV
2017-06-16 07:24:59 Suits.S06E13.POLISH.720p.HDTV.x264-ProPLTV
2017-06-16 07:28:35 Suits.S06E14.POLISH.720p.HDTV.x264-ProPLTV
2017-06-16 07:32:38 ATKGirlfriends.17.06.16.Jill.Kassidy.XXX.1080p.MP4-KTR
2017-06-16 07:33:59 ATKGirlfriends.17.06.16.Jill.Kassidy.XXX.2160p.MP4-KTR
2017-06-16 07:35:15 ATKGirlfriends.17.06.16.Makenna.Blue.XXX.1080p.MP4-KTR
2017-06-16 07:35:45 House.of.Cards.2013.S05E10.POLISH.1080p.WEBRip.x264-ProPLTV
2017-06-16 07:36:46 PlumperPass.17.06.16.Lexxxi.Luxe.Swinging.With.Lexxxi.XXX.1080p.MP4-KTR
2017-06-16 07:40:21 La.Gazzetta.Dello.Sport.06.16.2017.iTALiAN.RETAiL.eBook-DiVER
2017-06-16 07:41:12 First.48.S16E16.Deadly.Rap.720p.HDTV.x264-CRiMSON
2017-06-16 07:41:27 The.First.48.S16E16.Deadly.Rap.HDTV.x264-CRiMSON
2017-06-16 07:41:48 Storage.Wars.S10E19.The.Clamper.Caper.720p.HDTV.x264-CRiMSON
2017-06-16 07:42:09 Storage.Wars.S10E19.The.Clamper.Caper.HDTV.x264-CRiMSON
2017-06-16 07:43:14 Aanonyym-Series_2-(10122534)-WEB-2017-LEV
2017-06-16 07:43:43 Alan_Malcolm-Chapter_II-WEB-2017-LEV
2017-06-16 07:44:12 AlesS-Alone_(Europe_Edition)-BONUS_TRACKS-(000358)-WEB-2017-LEV
2017-06-16 07:44:42 AlesS-King_(Europe_Edition)-BONUS_TRACKS-(000366)-WEB-2017-LEV
2017-06-16 07:45:12 BBThree-Love_Balloon-WEB-2017-LEV
2017-06-16 07:46:12 Boy_King_Islands-Pastels-(YBZ013)-WEB-2017-LEV
2017-06-16 07:46:53 Bruno_Pronsato-US_Drag-(FM012D)-WEB-2017-LEV
2017-06-16 07:47:13 Constellation_Botsu-Faka_Sukka_Mojyankayo-(HR013)-WEB-2017-LEV
2017-06-16 07:47:36 FTVGirls.17.06.16.Cecilia.What.Lies.Underneath.XXX.1080p.MP4-KTR
2017-06-16 07:48:15 DJ_Orange_Julius-The_Grove-WEB-2017-LEV
2017-06-16 07:48:36 House.of.Cards.2013.S05E11.POLISH.1080p.WEBRip.x264-ProPLTV
2017-06-16 07:50:05 Servir.Y.Proteger.S01E38.SPANiSH.720p.HDTV.x264-FCC
2017-06-16 07:50:17 FTVGirls.17.06.16.Cecilia.Kinky.In.White.Stockings.XXX.1080p.MP4-KTR
2017-06-16 07:50:39 Servir.Y.Proteger.S01E38.SPANiSH.HDTV.x264-FCC
2017-06-16 07:52:43 GangbangCreampie.17.06.12.G114.Kacie.Castle.BTS.XXX.1080p.MP4-KTR
2017-06-16 07:53:23 GangbangCreampie.17.06.16.G115.Aurora.XXX.1080p.MP4-KTR
2017-06-16 07:53:41 The.First.48.S16E16.Deadly.Rap.720p.HDTV.x264-CRiMSON
2017-06-16 07:54:07 Beats_Players-Tic_Tic_Toc-(000357)-WEB-2017-LEV
2017-06-16 07:54:37 DJ_Funsko-The_Best_Of_Banging_Grooves_Records_Vol_18-(BGR234)-WEB-2017-LEV
2017-06-16 07:55:06 Dave-ID_Busaras-Selection_Box-WEB-2017-LEV
2017-06-16 07:55:37 DegreeZero-Father_Of_Lights-(10122877)-WEB-2017-LEV
2017-06-16 07:56:07 Europa_Cocktail-Psycho_Logical_Farce-(5054960332041)-WEB-2017-LEV
2017-06-16 07:56:42 House.of.Cards.2013.S05E12.POLISH.1080p.WEBRip.x264-ProPLTV
2017-06-16 07:56:42 Firehot_Beats-On_Beats_(Volumen_1)-(000359)-WEB-2017-LEV
2017-06-16 07:57:06 Gabiel-Code_Of_Misconduct-WEB-2017-LEV
2017-06-16 07:57:36 Grady_Tate-She_Is_My_Lady_(Digitally_Remastered)-WEB-2017-LEV
2017-06-16 07:58:11 Albert_One_-_Sing_A_Song_Now_Now_(All_Over_The_World)-(ONE_1703)-WEB-2017-ZzZz
2017-06-16 07:58:55 Hawke-Love_In_Stars-(HK19006)-WEB-2017-LEV
2017-06-16 07:58:55 Heart-Get_To_The_Max-(111032)-WEB-2017-LEV
2017-06-16 07:59:06 Hinrich_Alpers-Rudi_Stephan_Chamber_Works_And_Songs-WEB-2017-LEV
2017-06-16 07:59:10 Bank_Rollerz_-_Symphony-(LNGS_2114R)-WEB-2017-ZzZz
2017-06-16 08:00:07 Jazz_2_More-The_Other_Side_Of_Jazz-(IRM1594)-WEB-2017-LEV
2017-06-16 08:00:38 Jessica_Lee_Morgan-Around_The_Block-WEB-2017-LEV
2017-06-16 08:01:07 Jimmy_Webb-Original_Album_Series-WEB-2017-LEV
2017-06-16 08:01:37 Jon_Bourne-Malibu_Beach-(MCP127)-WEB-2017-LEV
2017-06-16 08:02:11 Kaleidoscope_Dreams-Elements-(7630047121333)-WEB-2017-LEV
2017-06-16 08:02:37 Kenny_Laakkinen-My_Travel_Welcome_To_Nu-Techno-(10120926)-WEB-2017-LEV
2017-06-16 08:03:06 Leonid_Gnip-Paranormal-(UTECH030)-WEB-2017-LEV
2017-06-16 08:03:38 Luigi_Seviroli-Signs_From_The_Lost_World_(Dark_Drama_Landscapes)-(M008)-WEB-2017-LEV
2017-06-16 08:04:07 Mark_Wynn-More_Singles.-WEB-2017-LEV
2017-06-16 08:04:37 Master_Beats-Great_Effort-(000343)-WEB-2017-LEV
2017-06-16 08:04:47 Inna_-_Gimme_Gimme_(The_Remixes)-(190295_779481)-WEB-2017-ZzZz
2017-06-16 08:05:07 Matt_Cappy-Church_And_State-WEB-2017-LEV
2017-06-16 08:05:38 Miguel_Lima-Fly_Away-(7630047122521)-WEB-2017-LEV
2017-06-16 08:05:40 ELLE.N3730.FRENCH.RETAIL.eBook-PRESSECiTRON
2017-06-16 08:06:06 Moya_Morris-Loveless-(SBDB6)-WEB-2017-LEV
2017-06-16 08:06:07 L.Equipe.16.Juin.2017.FRENCH.RETAIL.eBook-PRESSECiTRON
2017-06-16 08:06:37 Ne-Yo-The_Birth_Of_Ne-Yo__The_Building_Of_A_Supa_Star-WEB-2017-LEV
2017-06-16 08:06:38 La.Libre.Belgique.16.Juin.2017.FRENCH.RETAIL.eBook-PRESSECiTRON
2017-06-16 08:07:05 Le.Figaro.16.Juin.2017.FRENCH.RETAIL.eBook-PRESSECiTRON
2017-06-16 08:07:07 The_Ventures-Night_Drive-WEB-2017-LEV
2017-06-16 08:07:34 Le.Parisien.16.juin.2017.FRENCH.RETAIL.eBook-PRESSECiTRON
2017-06-16 08:08:03 Les.Echos.16.Juin.2017.FRENCH.RETAIL.eBook-PRESSECiTRON
2017-06-16 08:08:13 House.of.Cards.2013.S05E13.POLISH.1080p.WEBRip.x264-ProPLTV
2017-06-16 08:08:30 Liberation.16.Juin.2017.FRENCH.RETAIL.eBook-PRESSECiTRON
2017-06-16 08:08:34 What.Next.S01E05.720p.HDTV.x264-FiHTV
2017-06-16 08:09:01 Science.et.Vie.Questions.Reponses.N25.FRENCH.RETAIL.eBook-PRESSECiTRON
2017-06-16 08:12:10 Irezumi-Endurance-(DMAMB01)-WEB-2017-LEV
2017-06-16 08:13:00 What.Next.S01E05.HDTV.x264-FiHTV
2017-06-16 08:17:29 MasterChef.US.S08E03.720p.WEB.h264-MAJiKNiNAZ
2017-06-16 08:17:39 Beach.Volley.9.XXX.720p.WEBRip.MP4-VSEX
2017-06-16 08:18:11 Lucha.Underground.S03E22.720p.WEB.h264-MAJiKNiNJAZ
2017-06-16 08:18:25 Armin_Van_Buuren_ft_Josh_Cumbee_-_Sunny_Days-WEB-2017-MMS
2017-06-16 08:20:15 Tale_and_Dutch_-_Breathing-WEB-2017-MMS
2017-06-16 08:22:59 Mysteries.at.the.Museum.S16E06.iNTERNAL.720p.HDTV.x264-DHD
2017-06-16 08:23:26 Beach.Volley.9.XXX.1080p.WEBRip.MP4-VSEX
2017-06-16 08:24:07 Ferris_and_Kyle_Pearce_-_One_and_The_Same-(TBM254A)-WEB-2017-MMS
2017-06-16 08:25:35 Impossible.Engineering.S03E11.iNTERNAL.720p.HDTV.x264-DHD
2017-06-16 08:27:53 Mysteries.at.the.Museum.S16E00.Hoaxes.iNTERNAL.720p.HDTV.x264-DHD
2017-06-16 08:29:10 2_Chainz-Pretty_Girls_Like_Trap_Music-WEB-2017-ESG
2017-06-16 08:31:14 Impossible.Engineering.S03E00.Giants.of.Asia.iNTERNAL.720p.HDTV.x264-DHD
2017-06-16 08:31:37 John_Dahlbaeck_ft_Davis_Mallory_-_Anyone_Would_Know-(ARMAS1295B)-WEB-2017-MMS
2017-06-16 08:31:38 Young_Thug-Beautiful_Thugger_Girls-WEB-2017-ESG
2017-06-16 08:36:52 VA-Cocoon_Compilation_Q-CORCD040-CD-2017-BFHMP3
2017-06-16 08:37:48 Married.at.First.Sight.Second.Chances.S01E08.WEB.h264-TBS
2017-06-16 08:38:37 Married.at.First.Sight.Second.Chances.S01E08.720p.WEB.h264-TBS
2017-06-16 08:38:53 Married.at.First.Sight.S05E10.WEB.h264-TBS
2017-06-16 08:39:32 Justin_Prime_ft_CUT_-_Light_It_Up-(ARMAS1297)-WEB-2017-MMS
2017-06-16 08:39:49 Married.at.First.Sight.S05E10.720p.WEB.h264-TBS
2017-06-16 08:40:50 George_Ezra-Dont_Matter_Now-SINGLE-WEB-2017-ENTiTLED
2017-06-16 08:40:53 MomKnowsBest.com_17.06.15.Bridgette.B.and.Nina.North.She.Devil.Wears.Nada.An.XXX.Parody.Part.2.XXX.IMAGESET-GAGBALL
2017-06-16 08:41:12 Residentes_La_Base_and_Tru_Comers-Spanish_Connection-WEB-ES-2017-ENTiTLED_iNT
2017-06-16 08:41:30 Shawn_Hook-My_Side_of_Your_Story-WEB-2017-ENTiTLED
2017-06-16 08:41:53 Tetsuo_and_2ZG-Erde_II-WEB-DE-2017-ENTiTLED
2017-06-16 08:41:53 Face.It.A.Game.To.Fight.Inner.Demons.Update.v20170614-BAT
2017-06-16 08:42:14 dEnk_and_Drumtomski_and_2ZG-Fusions_1-WEB-DE-2017-ENTiTLED
2017-06-16 08:42:20 Super.Army.of.Tentacles.3.The.Search.for.Army.of.Tentacles.2.Update.v1.04-BAT
2017-06-16 08:42:35 dEnk_and_Drumtomski_and_2ZG-Keats_Vol_5_Tag_ein_Tag_aus-WEB-DE-2016-ENTiTLED
2017-06-16 08:44:38 Your.Lie.In.April.S01E12.BDRip.x264-DEUTERiUM
2017-06-16 08:44:44 VintageFlash.com_17.06.09.Anna.Belle.Come.Join.Me.Lets.Wank.XXX.IMAGESET-GAGBALL
2017-06-16 08:45:45 Your.Lie.In.April.S01E13.BDRip.x264-DEUTERiUM
2017-06-16 08:46:45 Your.Lie.In.April.S01E14.BDRip.x264-DEUTERiUM
2017-06-16 08:47:43 Your.Lie.In.April.S01E15.BDRip.x264-DEUTERiUM
2017-06-16 08:48:09 Your.Lie.In.April.S01E16.BDRip.x264-DEUTERiUM
2017-06-16 08:48:30 Your.Lie.In.April.S01E17.BDRip.x264-DEUTERiUM
2017-06-16 08:48:48 Your.Lie.In.April.S01E18.BDRip.x264-DEUTERiUM
2017-06-16 08:49:01 If.1968.COMPLETE.BLURAY-UNRELiABLE
2017-06-16 08:49:11 Your.Lie.In.April.S01E19.BDRip.x264-DEUTERiUM
2017-06-16 08:49:53 VintageFlash.com_17.06.13.Honour.May.Friends.Place.Me.And.You.XXX.IMAGESET-GAGBALL
2017-06-16 08:49:59 Your.Lie.In.April.S01E20.BDRip.x264-DEUTERiUM
2017-06-16 08:50:26 Your.Lie.In.April.S01E21.BDRip.x264-DEUTERiUM
2017-06-16 08:50:49 Your.Lie.In.April.S01E22.BDRip.x264-DEUTERiUM
2017-06-16 08:51:59 VA_-_Hot_Summer_Hits_2017-(537_843-1)-2CD-2017-ZzZz
2017-06-16 08:52:18 VintageFlash.com_17.06.16.Alexa.Red.Dressed.Up.To.Undress.XXX.IMAGESET-GAGBALL
2017-06-16 08:53:46 Mountain.Men.S06E02.WEB.h264-TBS
2017-06-16 08:53:53 Mountain.Men.S06E02.720p.WEB.h264-TBS
2017-06-16 08:54:41 WetAndPuffy.com_17.06.16.Lucy.Li.Big.Boob.Bonanza.XXX.IMAGESET-GAGBALL
2017-06-16 08:56:20 Alone.S04E01.WEB.h264-TBS
2017-06-16 08:56:34 Alone.S04E01.720p.WEB.h264-TBS
2017-06-16 08:59:04 Wonder.Woman.2009.COMPLETE.BLURAY-UNRELiABLE
2017-06-16 08:59:30 AuntJudys.com_17.05.10.Blaten.Lee.Watersports.XXX.IMAGESET-GAGBALL
2017-06-16 09:02:06 AuntJudys.com_17.05.10.Megyn.Mason.Upskirts.And.Panties.XXX.IMAGESET-GAGBALL
2017-06-16 09:05:16 Anilos.17.06.16.Eva.Green.Hot.Mama.XXX.1080p.MP4-KTR
2017-06-16 09:05:57 BadDaddyPOV.17.06.16.Alison.Rey.Daddys.Day.Gift.XXX.1080p.MP4-KTR
2017-06-16 09:07:02 Nubiles-Porn.17.06.16.Sima.Sneak.It.In.XXX.1080p.MP4-KTR
2017-06-16 09:07:34 Nubiles.17.06.16.Adella.Russian.Babe.XXX.1080p.MP4-KTR
2017-06-16 09:07:41 Cold.Case.Files.2017.S01E08.A.Family.Secret.720p.HDTV.x264-CRiMSON
2017-06-16 09:07:58 Cold.Case.Files.2017.S01E08.A.Family.Secret.HDTV.x264-CRiMSON
2017-06-16 09:08:11 Nubiles.17.06.16.Nina.Nirvana.Masturbating.Teen.XXX.1080p.MP4-KTR
2017-06-16 09:08:18 AuntJudys.com_17.05.11.Helena.Price.Stockings.And.Lingerie.XXX.IMAGESET-GAGBALL
2017-06-16 09:09:35 World.Cup.Of.Pool.2017.Session.5.720p.HDTV.x264-GAMETiME
2017-06-16 09:09:43 VA-10_Years_Anniversary-Part_1-(405681_3043372)-WEB-2017-BB8
2017-06-16 09:10:52 VA-Black_Hole_Trance_Music_06-17-(BHDC_413)-WEB-2017-BB8
2017-06-16 09:11:30 Calvo_-_In_Love_With_You-(ARTR197)-WEB-2017-MMS
2017-06-16 09:11:32 AuntJudys.com_17.05.11.Marie.McCray.Masturbation.XXX.IMAGESET-GAGBALL
2017-06-16 09:12:17 VA-EDM_Festival_2017-(ICOMP_293)-WEB-2017-BB8
2017-06-16 09:13:08 Japanese.Invasion.3.XXX.1080p.WEBRip.MP4-VSEX
2017-06-16 09:13:11 VA-Global_DJ_Broadcast_Top_20_June_2017-(BH_DC_412)-WEB-2017-BB8
2017-06-16 09:14:30 VA-Ibiza_Sunset_Trance_2017-(SUPERC_375E)-WEB-2017-BB8
2017-06-16 09:15:06 MetArtX.17.06.16.Lena.Anderson.Time.On.Your.Hands.XXX.1080p.MP4-KTR
2017-06-16 09:15:34 The.President.Show.S01E08.WEB.x264-TBS
2017-06-16 09:16:11 VA-Summer_Sampler_2017-(ADID_020)-WEB-2017-BB8
2017-06-16 09:16:11 The.President.Show.S01E08.720p.WEB.x264-TBS
2017-06-16 09:16:12 The.President.Show.S01E08.1080p.WEB.x264-TBS
2017-06-16 09:16:51 AllOver30.com_17.06.16.Sissy.XXX.iMAGESET-YAPG
2017-06-16 09:16:52 DiaryOfANanny.17.06.16.Avi.Love.XXX.1080p.MP4-KTR
2017-06-16 09:17:04 Domai.com_17.06.16.Rina.E.Set.2.XXX.IMAGESET-GAGBALL
2017-06-16 09:18:04 MyFriendsHotMom.17.06.16.Alexis.Fawx.And.Reagan.Foxx.XXX.1080p.MP4-KTR
2017-06-16 09:18:43 AllOver30.com_17.06.16.Clara.Hewitt.XXX.iMAGESET-YAPG
2017-06-16 09:18:55 SexArt.17.06.16.Nancy.A.And.Sybil.A.Fantastic.Day.XXX.1080p.MP4-KTR
2017-06-16 09:19:36 VivThomas.17.06.16.Dorothy.Black.And.Rebecca.Volpetti.Accommodate.XXX.1080p.MP4-KTR
2017-06-16 09:20:30 AllOver30.com_17.06.16.Helen.Volga.And.Foxy.Love.XXX.iMAGESET-YAPG
2017-06-16 09:20:40 EroticBeauty.com_17.06.16.Kristi.C.Presenting.Kristi.C.XXX.IMAGESET-GAGBALL
2017-06-16 09:21:21 DJ_Fait_-_Dont_You_Wanna_Know_2017-(AQL266)-WEB-2017-MMS_INT
2017-06-16 09:22:05 TheLifeErotic.17.06.16.Nia.Black.Pantyhose.2.XXX.1080p.MP4-KTR
2017-06-16 09:24:29 AllOver30.com_17.06.16.Cree.Morena.XXX.iMAGESET-YAPG
2017-06-16 09:24:30 Conan.2017.06.15.Armie.Hammer.WEB.h264-TBS
2017-06-16 09:24:51 Dizkodude_and_Pat_Krimson_ft_Luke_August_-_Living_for_the_Weekend-WEB-2017-MMS
2017-06-16 09:25:58 DeviceBondage.17.06.15.Melissa.Moore.XXX.720p.MP4-KTR
2017-06-16 09:26:01 DeviceBondage.17.06.15.Melissa.Moore.XXX720p.MP4-KTR
2017-06-16 09:26:02 Butterfly_-_Memory__I_Tell_You_Why-WEB-2008-iDC
2017-06-16 09:26:17 Errotica-Archives.com_17.06.16.Indiana.Black.Indiana.XXX.iMAGESET-YAPG
2017-06-16 09:27:57 Imagine_Dragons-Walking_The_Wire-Single-WEB-2017-TosK
2017-06-16 09:28:05 Calvin_Harris-Feels-Single-WEB-2017-TosK
2017-06-16 09:29:18 SexAndSubmission.17.06.16.Alexa.Grace.And.Casey.Calvert.XXX.720p.MP4-KTR
2017-06-16 09:30:03 Spizoo.17.06.16.Eden.Sin.Is.My.Roommate.XXX.1080p.MP4-KTR
2017-06-16 09:30:26 David_Penn_-_Slave-(SPDEEP397AP)-WEB-2017-MMS
2017-06-16 09:30:37 David_Penn_-_Slave-(SPDEEP397AP)-WEB-2017-M
2017-06-16 09:31:29 MetArt.com_17.06.16.Katie.A.Vellfin.XXX.IMAGESET-GAGBALL
2017-06-16 09:31:51 BangBrosClips.17.06.16.Jaslin.Diaz.XXX.1080p.MP4-KTR
2017-06-16 09:34:24 EverythingButt.17.06.16.Lauren.Phillips.And.Lorelei.Lee.XXX.720p.MP4-KTR
2017-06-16 09:35:15 ALSScan.17.06.16.Empera.Wet.Hot.XXX.1080p.MP4-KTR
2017-06-16 09:36:26 ALSScan.17.06.16.Empera.Wet.Hot.XXX.2160p.MP4-KTR
2017-06-16 09:37:18 TheLifeErotic.17.06.16.Nia.Black.Pantyhose.2.XXX.2160p.MP4-KTR
2017-06-16 09:37:32 MetArt.com_17.06.16.Lola.Marron.Morma.XXX.IMAGESET-GAGBALL
2017-06-16 09:38:02 Roba.S03E01.FiNNiSH.720p.HDTV.x264-KAAPELiTV
2017-06-16 09:38:13 VivThomas.17.06.16.Dorothy.Black.And.Rebecca.Volpetti.Accommodate.XXX.2160p.MP4-KTR
2017-06-16 09:39:07 Roba.S03E02.FiNNiSH.720p.HDTV.x264-KAAPELiTV
2017-06-16 09:39:09 Dirty.Milfs.With.Skills.XXX.720p.WEBRip.MP4-VSEX
2017-06-16 09:40:08 Roba.S03E03.FiNNiSH.720p.HDTV.x264-KAAPELiTV
2017-06-16 09:41:07 MetArt.com_17.06.16.Shayla.Enalsi.XXX.IMAGESET-GAGBALL
2017-06-16 09:41:16 Roba.S03E04.FiNNiSH.720p.HDTV.x264-KAAPELiTV
2017-06-16 09:42:22 Roba.S03E05.FiNNiSH.720p.HDTV.x264-KAAPELiTV
2017-06-16 09:42:37 Stephen.Colbert.2017.06.15.Milo.Ventimiglia.720p.WEB.h264-WEBSTER
2017-06-16 09:43:26 Roba.S03E06.FiNNiSH.720p.HDTV.x264-KAAPELiTV
2017-06-16 09:43:47 Dirty.Milfs.With.Skills.XXX.1080p.WEBRip.MP4-VSEX
2017-06-16 09:44:30 Roba.S03E07.FiNNiSH.720p.HDTV.x264-KAAPELiTV
2017-06-16 09:44:50 The.Ranch.S02E01.720p.WEBRip.x264-STRiFE
2017-06-16 09:45:06 Stephen.Colbert.2017.06.15.Milo.Ventimiglia.WEB.x264-TBS
2017-06-16 09:45:35 Roba.S03E08.FiNNiSH.720p.HDTV.x264-KAAPELiTV
2017-06-16 09:46:15 MetArt.com_17.06.16.Solange.Anaro.XXX.IMAGESET-GAGBALL
2017-06-16 09:46:41 Roba.S03E09.FiNNiSH.720p.HDTV.x264-KAAPELiTV
2017-06-16 09:47:45 Roba.S03E10.FiNNiSH.720p.HDTV.x264-KAAPELiTV
2017-06-16 09:48:36 TonightsGirlfriend.17.06.16.Romi.Rain.XXX.1080p.MP4-KTR
2017-06-16 09:49:04 The.LEGO.Batman.Movie.2017.NORDIC.TrueHD.Atmos.AC3.MULTISUBS.1080p.BluRay.x264.HQ-TUSAHD
2017-06-16 09:53:42 DiaryOfANanny.17.06.16.Avi.Love.XXX.2160p.MP4-KTR
2017-06-16 09:55:40 MyFriendsHotMom.17.06.16.Alexis.Fawx.And.Reagan.Foxx.XXX.2160p.MP4-KTR
2017-06-16 09:57:41 The.Ranch.S02E02.720p.WEBRip.x264-MOROSE
2017-06-16 09:57:47 And_Nils_Nuernberg_-_Chair_In_Orbit-(PFR186)-WEB-2017-HQEM
2017-06-16 09:58:50 TonightsGirlfriend.17.06.16.Romi.Rain.XXX.2160p.MP4-KTR
2017-06-16 09:59:50 TheLifeErotic.com_17.06.16.Nia.Black.Pantyhose.1.XXX.IMAGESET-GAGBALL
2017-06-16 10:00:02 VelvetEcstasy.17.06.16.Alix.Lovell.Twerk.Them.Cheeks.XXX.1080p.MP4-KTR
2017-06-16 10:00:36 Shaun.T.Focus.T25.Gamma.The.Pyramid.2013.1080p.WEB.x264-I_KnoW
2017-06-16 10:03:09 Teenage.Blow.Dolls.XXX.1080p.WEBRip.MP4-VSEX
2017-06-16 10:03:42 Shaun.T.Focus.T25.Gamma.The.Pyramid.2013.iNTERNAL.WEBRip.x264-I_KnoW
2017-06-16 10:03:56 AuntJudys.com_17.05.12.Blaten.Lee.Toys.And.Masturbation.XXX.IMAGESET-GAGBALL
2017-06-16 10:04:45 Joey_Negro--Must_Be_The_Music_(The_Original_Disco_Mix)-(ZEDD12248)-WEB-2017-dh
2017-06-16 10:04:55 DigitalDesire.17.06.16.Blake.Bartelli.XXX.1080p.MP4-KTR
2017-06-16 10:06:35 Private.Gold.209.Fashion.Passion.XXX.720p.WEBRip.MP4-VSEX
2017-06-16 10:08:30 AuntJudys.com_17.05.12.Sheena.Ryder.Outdoors.XXX.IMAGESET-GAGBALL
2017-06-16 10:09:54 The.Ranch.S02E01.German.DL.DUBBED.720p.WebHD.x264-AIDA
2017-06-16 10:10:07 The.Ranch.S02E03.720p.WEBRip.x264-STRiFE
2017-06-16 10:12:24 Danism--Hatch-(SR12903D)-WEB-2017-dh
2017-06-16 10:13:47 FemJoy.com_17.06.16.Xana.D.Exercise.With.Me.XXX.iMAGESET-YAPG
2017-06-16 10:14:20 Private.Gold.209.Fashion.Passion.XXX.1080p.WEBRip.MP4-VSEX
2017-06-16 10:14:55 FemJoy.com_17.06.16.Rena.Bohemian.Style.XXX.iMAGESET-YAPG
2017-06-16 10:16:44 The.Ranch.S02E01.German.WebRip.x264-AIDA
2017-06-16 10:23:30 Dennis_Sheperd_-_Reconnected-WEB-2017-MMS
2017-06-16 10:24:40 Thomas_Coastline_-_Nautilus-(DMA027)-WEB-2017-MMS
2017-06-16 10:27:51 Private.Gold.209.Fashion.Passion.XXX.2160p.WEBRip.MP4-VSEX
2017-06-16 10:29:13 K90_ft_Jennie_Osborn_-_Futureproof-(DAT076)-WEB-2017-MMS
2017-06-16 10:31:05 AllOver30.17.06.16.Kennedy.Kressler.XXX.1080p.MP4-KTR
2017-06-16 10:34:42 FutileStruggles.Mystic.Moon.Mummified.To.The.Post.XXX.720p.MP4-hUSHhUSH
2017-06-16 10:36:31 FutileStruggles.Riley.Janes.Leather.Pony.Girl.Fitting-Part.1.XXX.720p.MP4-hUSHhUSH
2017-06-16 10:36:34 The.Ranch.S02E05.720p.WEBRip.x264-STRiFE
2017-06-16 10:38:38 Pehmed.Ja.Karvased.S01E05.EE.HDTV.x264-EMX
2017-06-16 10:40:16 Pehmed.Ja.Karvased.S01E06.EE.HDTV.x264-EMX
2017-06-16 10:41:09 Pehmed.Ja.Karvased.S01E07.EE.HDTV.x264-EMX
2017-06-16 10:42:00 Pehmed.Ja.Karvased.S01E08.EE.HDTV.x264-EMX
2017-06-16 10:43:00 Pehmed.Ja.Karvased.S01E09.EE.HDTV.x264-EMX
2017-06-16 10:43:44 Pehmed.Ja.Karvased.S01E10.EE.HDTV.x264-EMX
2017-06-16 10:44:29 Pehmed.Ja.Karvased.S01E11.EE.HDTV.x264-EMX
2017-06-16 10:45:03 Alex_Del_Amo_-_Feel_The_Power-(MX_3429)-WEB-2017-ZzZz
2017-06-16 10:45:10 Pehmed.Ja.Karvased.S01E12.EE.HDTV.x264-EMX
2017-06-16 10:45:13 James.Corden.2017.06.15.Jamie.Foxx.720p.WEB.h264-WEBSTER
2017-06-16 10:45:43 The.Ranch.S02E07.720p.WEBRip.x264-MOROSE
2017-06-16 10:45:53 James.Corden.2017.06.15.Jamie.Foxx.WEB.x264-TBS
2017-06-16 10:46:14 Pehmed.Ja.Karvased.S02E01.EE.HDTV.x264-EMX
2017-06-16 10:46:27 Blinky_Blinky_Computerband_-_I_Want_You-(10122905)-WEB-2017-ZzZz
2017-06-16 10:47:32 The.Ranch.S02E10.720p.WEBRip.x264-STRiFE
2017-06-16 10:47:58 Wife.Swap.S11E00.Brexit.Special.720p.HDTV.x264-QPEL
2017-06-16 10:49:36 Battling.The.Bailiffs.2017.720p.HDTV.x264-QPEL
2017-06-16 10:50:18 Blonde_Feat_Astrid_S_-_Just_For_One_Night-(190295_805968)-WEB-2017-ZzZz
2017-06-16 10:50:19 Penthouse.16.05.15.Adrianna.Luna.and.Chastity.Lynn.in.Gee.Your.Mouth.Tastes.Terrific.XXX.1080p.MP4-GUSH
2017-06-16 10:50:26 The.Ranch.S02E01.German.DL.DUBBED.1080p.WebHD.x264-AIDA
2017-06-16 10:52:24 Christine_Storm_-_Nobody_Came-(LRT_3022)-WEB-2017-ZzZz
2017-06-16 10:53:19 LNFS.2017.Play-Off.Tercer.Partido.Final.FC.Barcelona.Lassa.Vs.Movistar.Inter.FS.SPANiSH.HR.WS.PDTV.x264-FERiCE
2017-06-16 10:54:52 NuruMassage.com_17.06.09.Rub.My.Tennis.Jock.Scene.01.XXX.iMAGESET-YAPG
2017-06-16 10:54:53 The.Ranch.S02E09.720p.WEBRip.x264-WEBiF
2017-06-16 10:55:48 Dangerous_Feat_Danii_-_Baby_Love-(DPRM_1723)-WEB-2017-ZzZz
2017-06-16 10:55:52 EvilAngel.com_17.06.16.Squirting.Harleys.Sketchy.Hookup.App.XXX.iMAGESET-YAPG
2017-06-16 10:58:23 Davey_P_Feat_Diolisa_-_On_Top_Of_The_World-(DVP_0004)-WEB-2017-ZzZz
2017-06-16 11:00:52 Domeno_Feat_Zagata_-_Lies-(361497_5972537)-WEB-2017-ZzZz
2017-06-16 11:05:07 Alex-Lynn.17.05.30.Jasmine.Jazz.Am.I.Yours.XXX.1080p.MP4-KTR
2017-06-16 11:05:29 Alex-Lynn.17.06.06.Mila.Azul.Watermelon.BTS.XXX.1080p.MP4-KTR
2017-06-16 11:05:56 Alex-Lynn.17.06.13.Kay.J.Reading.Is.Not.Boring.XXX.1080p.MP4-KTR
2017-06-16 11:06:27 Video2Brain.Jenkins.Grundkurs.GERMAN-EMERGE
2017-06-16 11:06:37 AussieFellatioQueens.17.05.27.Lulu.Reynolds.Re-Visit.Blowjob.XXX.1080p.MP4-KTR
2017-06-16 11:07:03 AussieFellatioQueens.17.06.03.Riley.Spencer.And.Daniella.Dee.Pre-Night.Out.3Some.Blowjob.XXX.1080p.MP4-KTR
2017-06-16 11:07:26 Fancy_Cars_Feat_Neil_Ormandy_-_Stay_The_Same-(811250_022731)-WEB-2017-ZzZz
2017-06-16 11:07:32 AussieFellatioQueens.17.06.10.Danni.2.Blowjobs.In.1.XXX.1080p.MP4-KTR
2017-06-16 11:07:51 The.Ranch.S02E06.720p.WEBRip.x264-STRiFE
2017-06-16 11:08:07 CrushOnBrett.17.06.09.Goddess.XXX.1080p.MP4-KTR
2017-06-16 11:08:43 CrushOnBrett.17.06.12.A.Tall.Glass.Of.Water.XXX.1080p.MP4-KTR
2017-06-16 11:09:13 CrushOnBrett.17.06.16.Beary.Delicious.XXX.1080p.MP4-KTR
2017-06-16 11:09:41 Angelo_Badalamenti-Twin_Peaks_Fire_Walk_With_Me_OST-WEB-1992-I_KnoW_INT
2017-06-16 11:10:04 GetYourKneesDirty.17.06.03.Liv.Aguilara.XXX.1080p.MP4-KTR
2017-06-16 11:10:19 GetYourKneesDirty.17.06.12.Kimberly.Kendall.XXX.1080p.MP4-KTR
2017-06-16 11:15:55 The.Ranch.S02E04.720p.WEBRip.x264-STRiFE
2017-06-16 11:22:14 Cabballero_-_Eye_Of_The_Tiger-WEB-2013-iDC
2017-06-16 11:26:52 PlayboyPlus.com_17.06.16.Jillisa.Lynn.Tropical.Princess.XXX.IMAGESET-GAGBALL
2017-06-16 11:29:00 100.Hojdare.S03E01.SWEDiSH.WEB.h264-SweWR
2017-06-16 11:31:35 Video2Brain.Fotorezepte.Fluessigkeiten.ganz.natuerlich.GERMAN-EMERGE
2017-06-16 11:33:31 100.Hojdare.S03E02.SWEDiSH.WEB.h264-SweWR
2017-06-16 11:36:35 100.Hojdare.S03E03.SWEDiSH.WEB.h264-SweWR
2017-06-16 11:37:48 100.Hojdare.S03E04.SWEDiSH.WEB.h264-SweWR
2017-06-16 11:37:59 The.Ranch.S02E08.720p.WEBRip.x264-STRiFE
2017-06-16 11:41:23 100.Hojdare.S03E05.SWEDiSH.WEB.h264-SweWR
2017-06-16 11:41:48 Dan_Stone_-_Argento-(FSOEF003)-WEB-2017-MMS
2017-06-16 11:42:05 Giuseppe_Ottaviani_and_Kyler_England_-_Firefly__Omnia_Extended_Remix-(BH8300)-WEB-2017-MMS
2017-06-16 11:42:17 100.Hojdare.S03E06.SWEDiSH.WEB.h264-SweWR
2017-06-16 11:42:24 James_Dymond_-_Maze_Runners-(FSOE237)-WEB-2017-MMS
2017-06-16 11:43:50 Penthouse.16.05.14.Veronica.Avluv.in.Power.In.Giving.Pleasure.XXX.1080p.MP4-GUSH
2017-06-16 11:46:23 Jimmy.Kimmel.2017.06.15.Andy.Samberg.WEB.x264-TBS
2017-06-16 11:47:04 Jimmy.Kimmel.2017.06.15.Andy.Samberg.720p.WEB.x264-TBS
2017-06-16 11:53:21 Atempause.2017.GERMAN.720p.HDTV.x264-FiLMCHEN
2017-06-16 11:54:07 Atempause.2017.GERMAN.HDTV.x264-FiLMCHEN
2017-06-16 11:55:43 Orange.Is.the.New.Black.S05E01.WEBRip.x264-WEBiF
2017-06-16 11:55:57 Orange.Is.the.New.Black.S05E02.WEBRip.x264-WEBiF
2017-06-16 11:56:12 Orange.Is.the.New.Black.S05E03.WEBRip.x264-WEBiF
2017-06-16 11:56:16 AuntJudys.com_17.05.13.Jayden.Cole.Footfetish.XXX.IMAGESET-GAGBALL
2017-06-16 11:56:20 Orange.Is.the.New.Black.S05E04.WEBRip.x264-WEBiF
2017-06-16 11:56:30 Orange.Is.the.New.Black.S05E05.WEBRip.x264-WEBiF
2017-06-16 11:56:38 Orange.Is.the.New.Black.S05E06.WEBRip.x264-WEBiF
2017-06-16 11:56:58 Orange.Is.the.New.Black.S05E11.WEBRip.x264-WEBiF
2017-06-16 11:57:06 Orange.Is.the.New.Black.S05E12.WEBRip.x264-WEBiF
2017-06-16 11:57:44 Stelios_Vassiloudis_and_Nils_Nuernberg_-_Chair_In_Orbit-(PFR186)-WEB-REPACK-2017-HQEM
2017-06-16 11:59:08 AuntJudys.com_17.05.13.Megyn.Mason.Office.Gals.And.Teachers.XXX.IMAGESET-GAGBALL
2017-06-16 12:01:15 AuntJudys.com_17.05.14.Kennedy.Kressler.Toys.And.Masturbation.XXX.IMAGESET-GAGBALL
2017-06-16 12:04:06 AuntJudys.com_17.05.15.Helena.Price.Upskirts.And.Panties.XXX.IMAGESET-GAGBALL
2017-06-16 12:04:11 Queen.Of.The.South.S02E02.1080p.WEB.x264-TBS
2017-06-16 12:04:55 Adam.Zkt.Eva.VIPS.S01E05.DUTCH.720p.HDTV.x264-iFH
2017-06-16 12:06:25 The.Ranch.S02E09.1080p.WEBRip.x264-WEBiF
2017-06-16 12:06:58 Jensen.USA.S01E05.DUTCH.720p.HDTV.x264-iFH
2017-06-16 12:07:48 Nashville.2012.S05E14.1080p.WEB.x264-MOROSE
2017-06-16 12:08:16 100.Hojdare.S03E07.SWEDiSH.WEB.h264-SweWR
2017-06-16 12:09:02 100.Hojdare.S03E08.SWEDiSH.WEB.h264-SweWR
2017-06-16 12:11:17 Guerrilla.S01E01.720p.BluRay.x264-SHORTBREHD
2017-06-16 12:11:20 Guerrilla.S01E02.720p.BluRay.x264-SHORTBREHD
2017-06-16 12:11:23 Guerrilla.S01E04.720p.BluRay.x264-SHORTBREHD
2017-06-16 12:11:24 Guerrilla.S01E05.720p.BluRay.x264-SHORTBREHD
2017-06-16 12:12:39 Million.Dollar.Listing.New.York.S06E04.WEB.x264-TBS
2017-06-16 12:12:40 The.Ranch.S02E10.1080p.WEBRip.x264-WEBiF
2017-06-16 12:12:48 Million.Dollar.Listing.New.York.S06E04.720p.WEB.x264-TBS
2017-06-16 12:13:11 Million.Dollar.Listing.New.York.S06E04.1080p.WEB.x264-TBS
2017-06-16 12:20:53 Global.Gladiators.S01E03.GERMAN.720p.HDTV.x264-RTL
2017-06-16 12:25:15 Logan_Sama_-_BBC_Radio1_Residency-SAT-06-15-2017-TALiON
2017-06-16 12:26:06 Jessy_Lanza_-_BBC_Radio1_Residency-SAT-06-16-2017-TALiON
2017-06-16 12:26:23 Global.Gladiators.S01E03.GERMAN.HDTV.x264-RTL
2017-06-16 12:27:06 World.Cup.Of.Pool.2017.Session.6.720p.HDTV.x264-GAMETiME
2017-06-16 12:27:45 Jerseylicious.S06E06.1080p.WEB.x264-WEBSTER
2017-06-16 12:28:10 Toddla_T_-_BBC_Radio1-SAT-06-16-2017-TALiON
2017-06-16 12:36:54 Bill_sAber-Before_Y.O.T.R._Compliation-WEB-2017-ESG
2017-06-16 12:39:22 The.Ranch.S02E02.1080p.WEBRip.x264-MOROSE
2017-06-16 12:40:45 Cabballero_-_Paris_Latino-WEB-2011-iDC
2017-06-16 12:41:31 Penthouse.16.05.14.Rosmary.Radeva.in.That.Kind.Of.Masseuse.XXX.1080p.MP4-GUSH
2017-06-16 12:44:06 Naaman-Im_Alright-WEB-2017-SPANK
2017-06-16 12:44:41 Stephen.Colbert.2017.06.15.Milo.Ventimiglia.720p.HDTV.x264-CROOKS
2017-06-16 12:44:45 Stephen.Colbert.2017.06.15.Milo.Ventimiglia.HDTV.x264-CROOKS
2017-06-16 12:45:44 El.Chapo.S01E01.720p.WEBRip.x264-STRiFE
2017-06-16 12:46:30 Jimmy.Kimmel.2017.06.15.Andy.Samberg.720p.HDTV.x264-CROOKS
2017-06-16 12:46:34 Jimmy.Kimmel.2017.06.15.Andy.Samberg.HDTV.x264-CROOKS
2017-06-16 12:46:37 Guerrilla.S01E01.BDRip.x264-HAGGiS
2017-06-16 12:46:43 Guerrilla.S01E02.BDRip.x264-HAGGiS
2017-06-16 12:46:50 Guerrilla.S01E04.BDRip.x264-HAGGiS
2017-06-16 12:46:58 Guerrilla.S01E05.BDRip.x264-HAGGiS
2017-06-16 12:51:02 Jimmy.Fallon.2017.06.15.Ethan.Hawke.720p.WEB.x264-TBS
2017-06-16 12:51:35 VA-Bravo_Hits_96-REPACK-2CD-FLAC-2017-VOLDiES
2017-06-16 12:51:54 Lorenzo-Fume_A_Fond-WEB-FR-2017-SPANK
2017-06-16 12:51:57 Jimmy.Fallon.2017.06.15.Ethan.Hawke.WEB.x264-TBS
2017-06-16 12:52:00 Hip.Hop.Evolution.S01E01.1080p.WEBRip.x264-iNSPiRiT
2017-06-16 12:53:23 Hip.Hop.Evolution.S01E01.720p.WEBRip.x264-iNSPiRiT
2017-06-16 12:54:25 Hip.Hop.Evolution.S01E01.WEBRip.x264-iNSPiRiT
2017-06-16 12:55:28 Hip.Hop.Evolution.S01E02.1080p.WEBRip.x264-iNSPiRiT
2017-06-16 12:56:30 Hip.Hop.Evolution.S01E02.720p.WEBRip.x264-iNSPiRiT
2017-06-16 12:57:33 The.Putin.Interviews.Part.2.1080p.WEBRip.x264-MOROSE
2017-06-16 12:57:43 Hip.Hop.Evolution.S01E02.WEBRip.x264-iNSPiRiT
2017-06-16 12:59:29 Hip.Hop.Evolution.S01E03.1080p.WEBRip.x264-iNSPiRiT
2017-06-16 12:59:33 VA-Future_Trance_79-REPACK-3CD-FLAC-2017-VOLDiES
2017-06-16 12:59:41 VA-Future_Trance_80-REPACK-3CD-FLAC-2017-VOLDiES
2017-06-16 13:00:15 Jamie.and.Jimmys.Food.Fight.Club.S05E01.Vegetarische.Lasagne.mit.John.Bishop.GERMAN.DOKU.720p.HDTV.x264-KiTCHEN
2017-06-16 13:00:32 Hip.Hop.Evolution.S01E03.720p.WEBRip.x264-iNSPiRiT
2017-06-16 13:01:35 Hip.Hop.Evolution.S01E03.WEBRip.x264-iNSPiRiT
2017-06-16 13:02:03 Jamie.and.Jimmys.Food.Fight.Club.S05E01.Vegetarische.Lasagne.mit.John.Bishop.GERMAN.DOKU.HDTV.x264-KiTCHEN
2017-06-16 13:02:26 Ein.ausgekochtes.Schlitzohr.ist.wieder.auf.Achse.1980.German.720p.WebHD.x264.READ.NFO-CLASSiCO
2017-06-16 13:02:37 Hip.Hop.Evolution.S01E04.1080p.WEBRip.x264-iNSPiRiT
2017-06-16 13:03:39 Hip.Hop.Evolution.S01E04.720p.WEBRip.x264-iNSPiRiT
2017-06-16 13:03:58 Nintendogs_Plus_Cats_Toy_Poodle_and_New_Friends_v02_JPN_DIRFIX_3DS-HR
2017-06-16 13:04:40 Hip.Hop.Evolution.S01E04.WEBRip.x264-iNSPiRiT
2017-06-16 13:05:57 Ein.ausgekochtes.Schlitzohr.ist.wieder.auf.Achse.1980.German.1080p.WebHD.x264-CLASSiCO
2017-06-16 13:06:07 Biohazard_The_Mercenaries_3D_v02_JPN_3DS-HR
2017-06-16 13:06:10 Dairantou_Smash_Brothers_for_Nintendo_3DS_v05_JPN_3DS-HR
2017-06-16 13:06:12 Mario_Kart_7_v01_JPN_3DS-HR
2017-06-16 13:06:18 Shingeki_no_Kyojin_Jinrui_Saigo_no_Tsubasa_Chain_v01_JPN_3DS-HR
2017-06-16 13:06:20 Sumikko_Gurashi_Koko_ga_Ochitsukun_desu_v02_JPN_3DS-HR
2017-06-16 13:06:20 Sumikko_Gurashi_Omise_Hajimerun_desu_v01_JPN_3DS-HR
2017-06-16 13:06:26 Youkai_Watch_2_Shinuchi_v02_JPN_3DS-HR
2017-06-16 13:09:10 Jstar_feat._Ranking_Joe-Bad_Boy_Stepping-(JS024)-VLS-2017-NOiR
2017-06-16 13:12:08 Unbreakable.Kimmy.Schmidt.S03E11.GERMAN.DL.DUBBED.1080p.WebHD.x264-VoDTv
2017-06-16 13:12:25 Unbreakable.Kimmy.Schmidt.S03E11.GERMAN.Dubbed.720p.WEBHD.x264-idTV
2017-06-16 13:13:21 Unbreakable.Kimmy.Schmidt.S03E11.GERMAN.Dubbed.WEBRiP.x264-idTV
2017-06-16 13:15:55 Chance.S01E01.SPANiSH.1080p.HDTV.x264-FERiCE
2017-06-16 13:16:48 Chance.S01E01.SPANiSH.720p.HDTV.x264-FERiCE
2017-06-16 13:17:26 Chance.S01E01.SPANiSH.HDTV.x264-FERiCE
2017-06-16 13:22:26 Guerrilla.S01E03.720p.BluRay.x264-SHORTBREHD
2017-06-16 13:22:29 Guerrilla.S01E06.720p.BluRay.x264-SHORTBREHD
2017-06-16 13:25:26 Guerrilla.S01E03.BDRip.x264-HAGGiS
2017-06-16 13:25:37 Guerrilla.S01E06.BDRip.x264-HAGGiS
2017-06-16 13:29:08 El.Chapo.S01E02.720p.WEBRip.x264-STRiFE
2017-06-16 13:29:48 Jimmy.Fallon.2017.06.14.Miley.Cyrus.GERMAN.SUBBED.720p.HDTV.x264-ACED
2017-06-16 13:31:08 Jimmy.Fallon.2017.06.14.Miley.Cyrus.GERMAN.SUBBED.HDTV.x264-ACED
2017-06-16 13:31:45 The.Ranch.S02E08.1080p.WEBRip.x264-MOROSE
2017-06-16 13:32:29 The.Job.Lot.Das.Jobcenter.S03E03.GERMAN.720p.HDTV.x264-ACED
2017-06-16 13:33:40 The.Job.Lot.Das.Jobcenter.S03E03.GERMAN.HDTV.x264-ACED
2017-06-16 13:34:26 Jul-Beely-WEB-FR-2017-H5N1
2017-06-16 13:34:49 Lartiste-On_Nous_A_Donne_Kedal-WEB-FR-2017-H5N1
2017-06-16 13:34:58 The.Job.Lot.Das.Jobcenter.S03E04.GERMAN.720p.HDTV.x264-ACED
2017-06-16 13:35:17 MHD-Bravo-WEB-FR-2017-H5N1
2017-06-16 13:36:12 The.Job.Lot.Das.Jobcenter.S03E04.GERMAN.HDTV.x264-ACED
2017-06-16 13:38:25 El.Chapo.S01E09.720p.WEBRip.x264-STRiFE
2017-06-16 13:40:49 Seth.Meyers.2017.06.15.Andy.Cohen.720p.WEB.x264-TBS
2017-06-16 13:41:05 After.Earth.2013.SUBPACK.BluRay-XME
2017-06-16 13:41:39 Seth.Meyers.2017.06.15.Andy.Cohen.WEB.x264-TBS
2017-06-16 13:41:51 Gangster.Squad.2013.SUBPACK.BluRay-XME
2017-06-16 13:42:21 Hanna.2011.SUBPACK.BluRay-XME
2017-06-16 13:42:55 Adam.Zkt.Eva.VIPS.S01E05.DUTCH.1080p.HDTV.x264-iFH
2017-06-16 13:43:08 Live.By.Night.2016.SUBPACK.BluRay-XME
2017-06-16 13:43:56 The.Accountant.2016.SUBPACK.BluRay-XME
2017-06-16 13:44:19 The.Lion.King.1994.SUBPACK.BluRay-XME
2017-06-16 13:45:23 The.Social.Network.2010.SUBPACK.BluRay-XME
2017-06-16 13:47:20 The.Ranch.S02E02.WEBRip.x264-WEBiF
2017-06-16 13:47:30 The.Ranch.S02E09.WEBRip.x264-WEBiF
2017-06-16 13:47:40 The.Ranch.S02E10.WEBRip.x264-WEBiF
2017-06-16 13:49:11 Robbie_Rivera_-_The_Juicy_Show_632-DAB-06-12-2017-TALiON
2017-06-16 13:50:09 Urban_Brainchild_-_305_Takeover-DAB-06-15-2017-TALiON
2017-06-16 13:55:00 The.Ranch.S02E04.WEBRip.x264-WEBiF
2017-06-16 13:58:30 VICE.Dont.Call.It.Road.Rap.2017.720p.WEB.h264-WaLMaRT
2017-06-16 13:58:31 VICE.Dont.Call.It.Road.Rap.2017.720p.WB.h264-WaLMaRT
2017-06-16 14:01:24 CounterPunch.2017.720p.WEBRip.x264-JAWN
2017-06-16 14:05:29 360.Grad.Geo.Reportage.Die.Insel.Chiloe.German.DOKU.720p.HDTV.x264-TVARCHiV
2017-06-16 14:07:34 360.Grad.Geo.Reportage.Die.Insel.Chiloe.German.DOKU.HDTVRip.x264-TVARCHiV
2017-06-16 14:08:48 The.Vampire.Diaries.S08E12.FRENCH.HDTV.x264-AMB3R
2017-06-16 14:09:36 Die.Sendung.mit.der.Maus.E2106.German.HDTVRip.x264-TVARCHiV
2017-06-16 14:10:12 Conan.2017.06.15.Armie.Hammer.720p.HDTV.x264-CROOKS
2017-06-16 14:10:15 Conan.2017.06.15.Armie.Hammer.HDTV.x264-CROOKS
2017-06-16 14:10:18 Katiahshe_and_Oba_Frank_Lords_-_Addicted_2_Drums-DAB-06-015-2017-TALiON
2017-06-16 14:10:27 The.Ranch.S02E03.1080p.WEBRip.x264-WEBiF
2017-06-16 14:10:54 After.Porn.Ends.2.2017.1080p.WEBRip.x264-iNTENSO
2017-06-16 14:11:39 Die.Sendung.mit.der.Maus.E2107.German.HDTVRip.x264-TVARCHiV
2017-06-16 14:12:23 After.Porn.Ends.2.2017.720p.WEBRip.x264-iNTENSO
2017-06-16 14:13:28 After.Porn.Ends.2.2017.WEBRip.x264-iNTENSO
2017-06-16 14:13:31 Shaun.T.Focus.T25.Gamma.Ript.Up.2013.1080p.WEB.x264-I_KnoW
2017-06-16 14:13:40 Die.Sendung.mit.der.Maus.E2108.German.HDTVRip.x264-TVARCHiV
2017-06-16 14:14:05 Shaun.T.Focus.T25.Gamma.Ript.Up.2013.iNTERNAL.WEBRip.x264-I_KnoW
2017-06-16 14:14:29 After.Porn.Ends.2012.1080p.WEBRip.x264-iNTENSO
2017-06-16 14:15:40 After.Porn.Ends.2012.720p.WEBRip.x264-iNTENSO
2017-06-16 14:15:43 Pokemon.S19E47.Was.fuer.eine.wunderbare.Zeit.German.ANiME.dTV.x264-TVARCHiV
2017-06-16 14:16:46 After.Porn.Ends.2012.WEBRip.x264-iNTENSO
2017-06-16 14:17:48 Brotherly.Love.2015.1080p.WEBRip.x264-iNTENSO
2017-06-16 14:18:57 Brotherly.Love.2015.720p.WEBRip.x264-iNTENSO
2017-06-16 14:19:58 El.Chapo.S01E01.German.DUBBED.720p.WebHD.x264-AIDA
2017-06-16 14:20:00 Brotherly.Love.2015.WEBRip.x264-iNTENSO
2017-06-16 14:22:27 El.Chapo.S01E01.German.DUBBED.WebRip.x264-AIDA
2017-06-16 14:28:14 The.Vampire.Diaries.S08E12.FRENCH.720p.HDTV.x264-AMB3R
2017-06-16 14:30:32 El.Chapo.S01E03.720p.WEBRip.x264-STRiFE
2017-06-16 14:32:42 The.Ranch.S02E03.WEBRip.x264-WEBiF
2017-06-16 14:37:05 Le.Monde.17.Juin.2017.French.Retail.eBook-FMR
2017-06-16 14:37:08 Le.Monde.Eco.et.Entreprise.17.Juin.2017.French.Retail.eBook-FMR
2017-06-16 14:37:12 Le.Monde.Idees.17.Juin.2017.French.Retail.eBook-FMR
2017-06-16 14:37:17 Le.Monde.M.17.Juin.2017.French.Retail.eBook-FMR
2017-06-16 14:39:33 Disco_Infinity_-_Venus_Of_Love-WEB-2000-iDC
2017-06-16 14:46:08 The.Ranch.S02E01.1080p.WEBRip.x264-MOROSE
2017-06-16 14:46:12 Unbreakable.Kimmy.Schmidt.S03E12.GERMAN.DL.DUBBED.1080p.WebHD.x264-VoDTv
2017-06-16 14:46:33 Unbreakable.Kimmy.Schmidt.S03E12.GERMAN.Dubbed.720p.WEBHD.x264-idTV
2017-06-16 14:47:23 Unbreakable.Kimmy.Schmidt.S03E12.GERMAN.Dubbed.WEBRiP.x264-idTV
2017-06-16 14:49:29 Unbreakable.Kimmy.Schmidt.S03E13.GERMAN.DL.DUBBED.1080p.WebHD.x264-VoDTv
2017-06-16 14:49:50 Unbreakable.Kimmy.Schmidt.S03E13.GERMAN.Dubbed.720p.WEBHD.x264-idTV
2017-06-16 14:50:56 Unbreakable.Kimmy.Schmidt.S03E13.GERMAN.Dubbed.WEBRiP.x264-idTV
2017-06-16 14:56:53 Misa_And_Underground_Stream-Mosaic_Of_The_Night-WEB-CN-2017-TosK
2017-06-16 14:56:59 Lin_Sheng_Xiang-The_Great_Buddha_Plus_Soundtrack-WEB-CN-2017-TosK
2017-06-16 14:57:06 2HRs-Immortal_Beast-WEB-CN-2017-TosK
2017-06-16 14:57:12 Ginas_Can-The_Funky_Song_For_Tung_Blossom-WEB-CN-2017-TosK
2017-06-16 14:57:14 Hostages.S02E04.German.DL.1080p.HDTV.x264-AIDA
2017-06-16 14:57:19 Phoenix_Dong-Why_Not-WEB-CN-2017-TosK
2017-06-16 14:57:25 Ai-Kuang_Sun_And_The_Taipei_Ymca_Oratorio_Choir-The_Tree_At_My_Home_Village-WEB-CN-2017-TosK
2017-06-16 14:57:32 Kaohaoche-Strawberry_Crew-WEB-CN-2017-TosK
2017-06-16 14:57:37 Nana_Ou-Yang-Cello_Loves_Disney-WEB-CN-2017-TosK
2017-06-16 14:57:40 Cops.Vs.Thugs.1975.REMASTERED.COMPLETE.BLURAY-WaLMaRT
2017-06-16 14:57:45 A_Da-Final_Edgy_Fantasy-WEB-CN-2017-TosK
2017-06-16 14:57:52 Luo_Tianyi-Fantasy_Wonderland-WEB-CN-2017-TosK
2017-06-16 14:57:59 Joshua_Jin-You_Are_Always_On_My_Mind-WEB-CN-2017-TosK
2017-06-16 14:58:01 El.Chapo.S01E04.720p.WEBRip.x264-STRiFE
2017-06-16 14:58:02 Chou_Chao_Tang-Here_Hear-WEB-CN-2017-TosK
2017-06-16 14:58:14 Sharon_Lee-Sharon_Lee-WEB-CN-2017-TosK
2017-06-16 14:58:20 Fargo.S03E09.German.1080p.WebHD.x264-AIDA
2017-06-16 14:58:38 Pakho_Chau-One_Step_Closer_Film-WEB-CN-2017-TosK
2017-06-16 14:58:45 Various_Artists-Rush_To_The_Dead_Summer_Soundtrack-WEB-CN-2017-TosK
2017-06-16 14:58:51 Escape_Plan-Shining_Memory-Single-WEB-CN-2017-TosK
2017-06-16 14:59:01 Astrid_Holiday-New_Beginning-WEB-2017-TosK
2017-06-16 14:59:01 Jeong_Jin_Woon-Love_Is_True-WEB-KR-2017-TosK
2017-06-16 14:59:22 Fargo.S03E09.German.720p.WebHD.x264-AIDA
2017-06-16 14:59:40 Kontant.Kampen.Om.P-Pladsen.DANiSH.720p.HDTV.x264-iMCARE
2017-06-16 14:59:52 Kontant.Snyd.For.Millioner.E02.DANiSH.720p.HDTV.x264-iMCARE
2017-06-16 15:00:04 Penge.2017.05.31.DANiSH.720p.HDTV.x264-iMCARE
2017-06-16 15:00:24 Fargo.S03E09.German.WebRip.x264-AIDA
2017-06-16 15:00:34 The.Assignment.2016.COMPLETE.QC.BLURAY-4FR
2017-06-16 15:01:28 Twin.Peaks.S03E06.German.DL.DUBBED.1080p.WebHD.x264-AIDA
2017-06-16 15:02:30 Twin.Peaks.S03E06.German.DL.DUBBED.720p.WebHD.x264-AIDA
2017-06-16 15:03:32 Twin.Peaks.S03E06.German.DUBBED.WebRip.x264-AIDA
2017-06-16 15:04:40 Hostages.S02E04.German.DL.720p.HDTV.x264-AIDA
2017-06-16 15:05:42 Hostages.S02E04.German.HDTVRip.x264-AIDA
2017-06-16 15:06:29 Quincy.M.E.S07E01.DVDRip.x264-NODLABS
2017-06-16 15:07:14 Jimmy.Fallon.2017.06.15.Ethan.Hawke.720p.HDTV.x264-LASSEKONGO
2017-06-16 15:07:45 Quincy.M.E.S07E02.DVDRip.x264-NODLABS
2017-06-16 15:09:00 Quincy.M.E.S07E03.DVDRip.x264-NODLABS
2017-06-16 15:09:47 Fresh.Off.the.Boat.S03E15.GERMAN.720p.HDTV.x264-ACED
2017-06-16 15:10:14 Quincy.M.E.S07E04.DVDRip.x264-NODLABS
2017-06-16 15:10:34 Fresh.Off.the.Boat.S03E15.GERMAN.HDTV.x264-ACED
2017-06-16 15:11:11 VA-Booom_Summer_2017-WEB-2017-VOiCE
2017-06-16 15:11:22 Fresh.Off.the.Boat.S03E16.GERMAN.720p.HDTV.x264-ACED
2017-06-16 15:11:30 Quincy.M.E.S07E05.DVDRip.x264-NODLABS
2017-06-16 15:12:09 Fresh.Off.the.Boat.S03E16.GERMAN.HDTV.x264-ACED
2017-06-16 15:12:45 Quincy.M.E.S07E06.DVDRip.x264-NODLABS
2017-06-16 15:12:56 Genius.S01E08.GERMAN.720p.HDTV.x264-ACED
2017-06-16 15:13:43 Genius.S01E08.GERMAN.HDTV.x264-ACED
2017-06-16 15:14:03 Quincy.M.E.S07E07.DVDRip.x264-NODLABS
2017-06-16 15:14:13 Penge.Supermarkedets.Egne.Maerker.DANiSH.720p.HDTV.x264-iMCARE
2017-06-16 15:14:31 NEO.Magazin.Royale.S05E19.GERMAN.720p.HDTV.x264-ACED
2017-06-16 15:15:15 Quincy.M.E.S07E08.DVDRip.x264-NODLABS
2017-06-16 15:15:18 NEO.Magazin.Royale.S05E19.GERMAN.HDTV.x264-ACED
2017-06-16 15:16:05 NYC.S01E03.GERMAN.720p.HDTV.x264.INTERNAL-ACED
2017-06-16 15:16:29 Quincy.M.E.S07E09.DVDRip.x264-NODLABS
2017-06-16 15:16:52 NYC.S01E03.GERMAN.HDTV.x264.INTERNAL-ACED
2017-06-16 15:16:57 Alle.For.Tre.2017.DANiSH.COMPLETE.BLURAY-NoSence
2017-06-16 15:17:00 Mungos_Hi-Fi_feat._Little_John-Touch_The_Stylee-(DUMBY03)-VLS-2017-NOiR
2017-06-16 15:17:25 Mungos_Hi-Fi_feat._Ponchita_Peligros_and_Dan_Man-DJ_Queen_bw_Love_Jah-(DUMBY04)-VLS-2017-NOiR
2017-06-16 15:17:42 Scream.Queens.2015.S01E13.GERMAN.720p.HDTV.x264-ACED
2017-06-16 15:17:45 Quincy.M.E.S07E10.DVDRip.x264-NODLABS
2017-06-16 15:18:28 Scream.Queens.2015.S01E13.GERMAN.HDTV.x264-ACED
2017-06-16 15:19:01 Quincy.M.E.S07E11.DVDRip.x264-NODLABS
2017-06-16 15:19:16 The.Break.Jeder.Kann.Toeten.S01E10.GERMAN.720p.HDTV.x264-ACED
2017-06-16 15:20:05 The.Break.Jeder.Kann.Toeten.S01E10.GERMAN.HDTV.x264-ACED
2017-06-16 15:20:15 Quincy.M.E.S07E12.DVDRip.x264-NODLABS
2017-06-16 15:20:51 The.Flash.S03E13.GERMAN.HDTV.x264-ACED
2017-06-16 15:21:22 Jensen.USA.S01E05.DUTCH.1080p.HDTV.x264-iFH
2017-06-16 15:21:30 Quincy.M.E.S07E13.DVDRip.x264-NODLABS
2017-06-16 15:21:39 The.Last.Man.On.Earth.S02E05.GERMAN.720p.HDTV.x264-ACED
2017-06-16 15:22:26 The.Last.Man.On.Earth.S02E05.GERMAN.HDTV.x264-ACED
2017-06-16 15:22:45 Quincy.M.E.S07E14.DVDRip.x264-NODLABS
2017-06-16 15:23:13 The.Last.Man.On.Earth.S02E06.GERMAN.720p.HDTV.x264-ACED
2017-06-16 15:24:00 Quincy.M.E.S07E15.DVDRip.x264-NODLABS
2017-06-16 15:24:03 The.Last.Man.On.Earth.S02E06.GERMAN.HDTV.x264-ACED
2017-06-16 15:25:15 Quincy.M.E.S07E16.DVDRip.x264-NODLABS
2017-06-16 15:25:24 VA-Realm_Of_Consciousness_Pt_II-(AL005)-WEB-2017-dh
2017-06-16 15:26:30 Quincy.M.E.S07E17.DVDRip.x264-NODLABS
2017-06-16 15:27:45 Quincy.M.E.S07E18.DVDRip.x264-NODLABS
2017-06-16 15:29:00 Quincy.M.E.S07E19.DVDRip.x264-NODLABS
2017-06-16 15:29:24 El.Chapo.S01E08.720p.WEBRip.x264-STRiFE
2017-06-16 15:30:15 Quincy.M.E.S07E20.DVDRip.x264-NODLABS
2017-06-16 15:30:57 James.Corden.2017.06.15.Jamie.Foxx.720p.HDTV.x264-CROOKS
2017-06-16 15:30:59 James.Corden.2017.06.15.Jamie.Foxx.HDTV.x264-CROOKS
2017-06-16 15:31:31 Quincy.M.E.S07E21.DVDRip.x264-NODLABS
2017-06-16 15:32:14 Penge.Syg.Paa.Jobjagt.DANiSH.720p.HDTV.x264-iMCARE
2017-06-16 15:32:46 Quincy.M.E.S07E22.DVDRip.x264-NODLABS
2017-06-16 15:33:53 Vi_Ta_Lee_Ft._General_Guyble_And_Marina_Borodina_-_Blow_Your_Mind-(HKJ013)-WEB-2017-SRG
2017-06-16 15:34:02 Quincy.M.E.S07E23.DVDRip.x264-NODLABS
2017-06-16 15:35:15 Quincy.M.E.S07E24.DVDRip.x264-NODLABS
2017-06-16 15:35:39 The.Ranch.S02E07.1080p.WEBRip.x264-MOROSE
2017-06-16 15:39:56 El.Chapo.S01E05.720p.WEBRip.x264-STRiFE
2017-06-16 15:41:09 Snow.White.And.The.Seven.Dwarfs.1937.iNTERNAL.NORDiC.COMPLETE.BLURAY-GERUDO
2017-06-16 15:41:12 Deutschland.Dein.Selbstportraet.German.DOKU.WS.DVDRip.x264-CDP
2017-06-16 15:41:31 VA-Ballermann_Hits_2017-(0600753771471)-DE-2CD-FLAC-2017-VOLDiES
2017-06-16 15:42:15 Le.Corniaud.1964.REMASTERED.FRENCH.720p.BluRay.x264-AiRLiNE
2017-06-16 15:46:43 CamelPhat_and_Elderbrook_-_Cola-(DFTD523D)-WEB-2017-MMS
2017-06-16 15:46:57 Le.Corniaud.1964.REMASTERED.FRENCH.1080p.BluRay.x264-AiRLiNE
2017-06-16 15:47:06 Nicolas_Jaar-Sirens-(OP042LP1)-LP-FLAC-2016-MLS
2017-06-16 15:48:02 El.Chapo.S01E01.German.1080p.WebHD.x264-AIDA
2017-06-16 15:50:14 Le.Corniaud.1964.iNTERNAL.FRENCH.BDRip.x264-RUDE
2017-06-16 15:53:56 Horisont.Barnebrud.I.Bangladesh.DANiSH.720p.HDTV.x264-iMCARE
2017-06-16 15:59:19 Red.Dog.True.Blue.2016.720p.BluRay.x264-PFa
2017-06-16 15:59:38 VA_-_OE3_Greatest_Hits_Vol_77-(88985437992)-2017-ZzZz
2017-06-16 16:01:45 Lynda.com.Dreamweaver.CC.2017.Essential.Training-QUASAR
2017-06-16 16:02:05 Lynda.com.Learning.Graphic.Novel.Storyboarding-QUASAR
2017-06-16 16:02:44 The.Dinner.Game.1998.1080p.BluRay.x264-USURY
2017-06-16 16:05:18 Lynda.com.Illustrator.CC.2017.Essential.Training-QUASAR
2017-06-16 16:07:11 El.Chapo.S01E07.720p.WEBRip.-x264-STRiFE
2017-06-16 16:10:02 Horisont.2017.05.22.DANiSH.720p.HDTV.x264-iMCARE
2017-06-16 16:11:49 Kill.Em.All.2017.German.DL.1080p.BluRay.AVC-ARMO
2017-06-16 16:13:45 Antonio_D-Ljuva_Livet-WEB-2017-JAH
2017-06-16 16:14:11 Bionic_Clarke-Role_Model-WEB-2017-JAH
2017-06-16 16:14:37 Chin_Chilla-Nipples_(Explicit)-WEB-2017-JAH
2017-06-16 16:15:02 Shaun.T.Focus.T25.Gamma.Extreme.Circuit.2013.1080p.WEB.x264-I_KnoW
2017-06-16 16:15:02 Delroy_Wilson-Man_from_JA-WEB-2017-JAH
2017-06-16 16:15:29 DiTruth-DiTruth_the_Rebelation-WEB-2017-JAH
2017-06-16 16:15:54 Fiji-Glory_of_Love-WEB-2017-JAH
2017-06-16 16:15:55 Death.Note.E06.FRENCH.720p.BluRay.x264-TSuNaMi
2017-06-16 16:16:20 Freshrymes-Nymphomaniac-WEB-2017-JAH
2017-06-16 16:16:45 Jvp_Muzic_feat_Skales-Taekwondo-WEB-2017-JAH
2017-06-16 16:17:04 Death.Note.E06.SUBFRENCH.720p.BluRay.x264-TSuNaMi
2017-06-16 16:17:55 Pier_Ave-Conquer-WEB-2017-JAH
2017-06-16 16:18:12 Saiku-You-WEB-2017-JAH
2017-06-16 16:18:12 Shaun.T.Focus.T25.Gamma.Extreme.Circuit.2013.iNTERNAL.WEBRip.x264-I_KnoW
2017-06-16 16:18:13 VA-Impact_Riddim-WEB-2017-JAH
2017-06-16 16:21:31 VA-Sweet_Wata_Riddim-WEB-2017-RYG
2017-06-16 16:22:47 Carol_Lee_-_Im_Your_Lady-WEB-2008-iDC
2017-06-16 16:24:14 Ocean.Waves.1993.iNTERNAL.BDRip.x264-HAiKU
2017-06-16 16:26:39 Death.Note.E06.MULTi.1080p.BluRay.x264-TSuNaMi
2017-06-16 16:27:05 Tatort.E759.Kaltes.Herz.GERMAN.720p.HDTV.x264-ACED
2017-06-16 16:27:13 The.Legend.Of.Ben.Hall.2016.720p.REPACK.BluRay.x264-PFa
2017-06-16 16:27:15 Ocean.Waves.1993.COMPLETE.BLURAY-HAiKU
2017-06-16 16:28:15 BoldlyGirls.17.06.16.Susy.Gala.XXX.1080p.MP4-KTR
2017-06-16 16:29:22 Dyked.17.06.16.Jayden.Cole.And.Xandra.Sixx.XXX.1080p.MP4-KTR
2017-06-16 16:31:26 Dragons.Den.QC.S06E11.FRENCH.720p.HDTV.x264-BAWLS
2017-06-16 16:31:35 Dragons.Den.QC.S06E11.FRENCH.HDTV.x264-BAWLS
2017-06-16 16:32:33 El.Chapo.S01E01.German.720p.WebHD.x264.iNTERNAL-AIDA
2017-06-16 16:33:39 El.Chapo.S01E01.German.WebRip.x264.iNTERNAL-AIDA
2017-06-16 16:33:52 Stahlmann-Bastard-Limited_Edition-DE-2017-D2H
2017-06-16 16:34:55 Le.Corniaud.1964.iNTERNAL.MULTi.COMPLETE.BLURAY-AiRFORCE
2017-06-16 16:36:18 VA_-_Krone_Hit_Vol_23-(537762_7)-2CD-2017-ZzZz
2017-06-16 16:36:37 Bachsolisten_Seoul-Buxtehude_Membra_Jesu_nostri_BuxWV_75-WEB-2017-ENTiTLED
2017-06-16 16:36:39 Genesis_1984-UNEQUAL_TERRORIST-(LED02)-WEB-2017-ENSLAVE
2017-06-16 16:36:53 Flotation_Toy_Warning-The_Machine_That_Made_Us-WEB-2017-ENTiTLED
2017-06-16 16:36:55 Mehdispoz-808_Stop_War-(MHD019)-WEB-2017-ENSLAVE
2017-06-16 16:37:08 Jeff_Williams-Rwby_Vol_2_(Original_Soundtrack_and_Score)-WEB-2014-ENTiTLED
2017-06-16 16:37:10 Robert_Dietz-Sound_Design_EP-(MFM04DIGITAL)-WEB-2017-ENSLAVE
2017-06-16 16:37:23 Jeff_Williams-Rwby_Vol_3_(Original_Soundtrack_and_Score)-WEB-2016-ENTiTLED
2017-06-16 16:37:39 Jeff_Williams-Rwby_Vol_4_(Original_Soundtrack_and_Score)-WEB-2017-ENTiTLED
2017-06-16 16:37:55 Jeff_Williams-Rwby_Volume_1_Soundtrack-WEB-2013-ENTiTLED
2017-06-16 16:38:11 Jet-Shine_On_(Deluxe_Version)-BONUS_TRACKS-WEB-2006-ENTiTLED
2017-06-16 16:38:27 Katy_Guillen_and_the_Girls-Katy_Guillen_and_the_Girls-WEB-2014-ENTiTLED
2017-06-16 16:38:44 Kelly_McFarling-Conspire-WEB-2012-ENTiTLED
2017-06-16 16:39:00 Kelly_McFarling-Distractible_Child-WEB-2010-ENTiTLED
2017-06-16 16:39:14 Kelly_McFarling-Ridgeline-WEB-2013-ENTiTLED
2017-06-16 16:39:29 Kelly_McFarling-Water_Dog-WEB-2017-ENTiTLED
2017-06-16 16:39:46 Kelly_McFarling_and_The_Home_Team-Others-WEB-2013-ENTiTLED
2017-06-16 16:41:57 OREILLY.ARTIFICIAL.INTELLIGENCE.CONFERENCE.2016.NEW.YORK.NY.PART1.TUTORiAL-PROPAGANDA
2017-06-16 16:49:40 Guerrilla.S01E01.1080p.BluRay.x264-SHORTBREHD
2017-06-16 16:50:38 The.Ranch.S02E04.1080p.WEBRip.x264-MOROSE
2017-06-16 16:51:43 Guerrilla.S01E02.1080p.BluRay.x264-SHORTBREHD
2017-06-16 16:53:45 Guerrilla.S01E04.1080p.BluRay.x264-SHORTBREHD
2017-06-16 16:54:44 HUGEL_-_Baby-WEB-2017-MMS
2017-06-16 16:55:47 Guerrilla.S01E05.1080p.BluRay.x264-SHORTBREHD
2017-06-16 16:58:38 El.Chapo.S01E06.720p.WEBRip.x264-STRiFE
2017-06-16 16:58:54 Egon-Solid_Steel-DAB-06-12-2017-z0ne
2017-06-16 16:59:03 Tony_Allen-Solid_Steel-DAB-06-16-2017-z0ne
2017-06-16 17:00:15 Bad_Therapy-Wasted_Youth-WEB-2017-ENTiTLED
2017-06-16 17:00:31 Grasping_at_the_Shadow-Nothing_After_Death-WEB-2017-ENTiTLED
2017-06-16 17:00:47 Radien-Maa-EP-WEB-2016-ENTiTLED
2017-06-16 17:01:04 Scargod-Stay_in_Track-WEB-2017-ENTiTLED
2017-06-16 17:01:18 The_Fatalist-Dark_Ecriture-WEB-2017-ENTiTLED
2017-06-16 17:01:33 8thStreetLatinas.17.06.16.Mia.Martinez.Spanish.Lessons.XXX.1080p.MP4-KTR
2017-06-16 17:02:17 The.Legend.Of.Ben.Hall.2016.1080p.REPACK.BluRay.x264-PFa
2017-06-16 17:02:44 CrazyAsianGFs.17.06.16.Rina.Ellis.Working.Out.With.Rina.XXX.1080p.MP4-KTR
2017-06-16 17:03:31 Seth.Meyers.2017.06.15.Andy.Cohen.720p.HDTV.x264-CROOKS
2017-06-16 17:03:34 Seth.Meyers.2017.06.15.Andy.Cohen.HDTV.x264-CROOKS
2017-06-16 17:03:50 VA-Reggae_Romance_Riddim-(B071XDJFNS)-WEB-2017-YARD
2017-06-16 17:04:21 ON_TV_-_La_Ola_(Remixes_2k17)-WEB-2015-MMS
2017-06-16 17:04:22 RoundAndBrown.17.06.16.Noemie.Bilas.Slam.Dunk.Booty.XXX.1080p.MP4-KTR
2017-06-16 17:12:19 The.Ranch.S02E01.FRENCH.720p.WEBRip.x264-AMB3R
2017-06-16 17:12:36 The.Ranch.S02E02.FRENCH.720p.WEBRip.x264-AMB3R
2017-06-16 17:12:56 The.Ranch.S02E03.FRENCH.720p.WEBRip.x264-AMB3R
2017-06-16 17:16:00 CounterPunch.2017.1080p.WEBRip.x264-JAWN
2017-06-16 17:18:41 Bernard_Lavilliers-Charleroi-WEB-FR-2017-H5N1
2017-06-16 17:18:49 ATKExotics.17.06.16.Ariana.Cox.Toys.XXX.1080p.MP4-KTR
2017-06-16 17:19:01 Christophe_Willem-Marlon_Brando-WEB-FR-2017-H5N1
2017-06-16 17:19:09 Central.Intelligence.2016.MULTiSUBS.COMPLETE.BLURAY-GERUDO
2017-06-16 17:19:34 ATKHairy.17.06.16.Cala.Interview.XXX.1080p.MP4-KTR
2017-06-16 17:19:37 DJ_Deedir-Appelez_Les_Handak_Feat_LECK-WEB-FR-2017-H5N1
2017-06-16 17:19:57 Emily_Loizeau-Origami-WEB-FR-2017-H5N1
2017-06-16 17:20:17 ATKHairy.17.06.16.Evelina.Darling.Toys.XXX.1080p.MP4-KTR
2017-06-16 17:20:30 Fally_Ipupa-Bad_Boy_Feat_Aya_Nakamura-WEB-FR-2017-H5N1
2017-06-16 17:20:57 ICE-ADG_Feat_Black_Brut_And_Sams_(Remix)-WEB-FR-2017-H5N1
2017-06-16 17:21:19 Julien_Clerc-Je_Taime_Etc-WEB-FR-2017-H5N1
2017-06-16 17:21:39 Lea_Paci-Sens_Unique-WEB-FR-2017-H5N1
2017-06-16 17:22:01 Magic_System-Ya_Foye-(Read_NFO)-WEB-FR-2017-H5N1
2017-06-16 17:22:12 Bull.2016.S01E19.SPANiSH.1080p.HDTV.x264-FCC
2017-06-16 17:22:21 Siboy-Telephone-WEB-FR-2017-H5N1
2017-06-16 17:22:42 Sk_Micaz-Artefacts_Vol.2-WEB-FR-2017-H5N1
2017-06-16 17:22:49 Bull.2016.S01E19.SPANiSH.720p.HDTV.x264-FCC
2017-06-16 17:23:02 Tibz-Nation-(Read_NFO)-WEB-FR-2017-H5N1
2017-06-16 17:23:17 Bull.2016.S01E19.SPANiSH.HDTV.x264-FCC
2017-06-16 17:23:20 Tom_Frager-Le_Bruit_Des_Couleurs-WEB-FR-2017-H5N1
2017-06-16 17:23:38 El.Ministerio.Del.Tiempo.S03E03.SPANiSH.720p.HDTV.x264-FCC
2017-06-16 17:23:51 DaneJones.17.06.16.Erica.Black.XXX.1080p.MP4-KTR
2017-06-16 17:24:14 El.Ministerio.Del.Tiempo.S03E03.SPANiSH.HDTV.x264-FCC
2017-06-16 17:24:36 Fargo.S03E09.SPANiSH.1080p.HDTV.x264-FCC
2017-06-16 17:25:09 Fargo.S03E09.SPANiSH.720p.HDTV.x264-FCC
2017-06-16 17:25:19 Brian_Cross-Europa_Baila_(Europa_FM)-DVBT-10-06-2017-EiTheLMP3
2017-06-16 17:25:22 OREILLY.ARTIFICIAL.INTELLIGENCE.CONFERENCE.2016.NEW.YORK.NY.PART2.TUTORiAL-PROPAGANDA
2017-06-16 17:25:22 Yves_V-V_Sessions_102_(Europa_FM)-DVBT-11-06-2017-EiTheLMP3
2017-06-16 17:25:35 Fargo.S03E09.SPANiSH.HDTV.x264-FCC
2017-06-16 17:25:56 Major.Crimes.S05E20.SPANiSH.1080p.HDTV.x264-FCC
2017-06-16 17:26:14 Die.Megaschiffbauer.S01E04.Der.Riesenschlepper.GERMAN.DOKU.720p.HDTV.x264-WiSHTV
2017-06-16 17:26:29 Orange.Is.The.New.Black.S05E01.RERIP.SPANiSH.1080p.HDTV.x264-FCC
2017-06-16 17:27:18 Stunning18.17.06.14.Mary.Kalisy.Bath.Fantasies.XXX.1080p.MP4-KTR
2017-06-16 17:27:26 Die.Megaschiffbauer.S01E04.Der.Riesenschlepper.GERMAN.DOKU.HDTVRiP.x264-WiSHTV
2017-06-16 17:27:45 Orange.Is.The.New.Black.S05E01.RERIP.SPANiSH.720p.HDTV.x264-FCC
2017-06-16 17:27:55 Star.Trek.The.Next.Generation.S02E01.MULTi.1080p.BluRay.x264-UKDTV
2017-06-16 17:28:14 DVBT-10-06-2017-EiTheLMP3
2017-06-16 17:28:15 DVBT-11-06-2017-EiTheLMP3
2017-06-16 17:28:17 Orange.Is.The.New.Black.S05E01.RERIP.SPANiSH.HDTV.x264-FCC
2017-06-16 17:28:38 Orange.is.the.New.Black.S05E11.SPANiSH.1080p.HDTV.x264-FCC
2017-06-16 17:29:12 Orange.is.the.New.Black.S05E11.SPANiSH.720p.HDTV.x264-FCC
2017-06-16 17:29:51 Orange.is.the.New.Black.S05E11.SPANiSH.HDTV.x264-FCC
2017-06-16 17:30:13 Orange.is.the.New.Black.S05E12.SPANiSH.1080p.HDTV.x264-FCC
2017-06-16 17:30:46 Orange.is.the.New.Black.S05E12.SPANiSH.720p.HDTV.x264-FCC
2017-06-16 17:30:56 After.Porn.Ends.2.2017.GERMAN.SUBBED.DOKU.1080p.WebHD.x264-DOKUMANiA
2017-06-16 17:31:23 Orange.is.the.New.Black.S05E12.SPANiSH.HDTV.x264-FCC
2017-06-16 17:31:47 Orange.is.the.New.Black.S05E13.SPANiSH.1080p.HDTV.x264-FCC
2017-06-16 17:31:48 Desus.And.Mero.2017.06.15.720p.WEB.x264-CookieMonster
2017-06-16 17:31:57 Heavily.Armed-PLAZA
2017-06-16 17:32:14 After.Porn.Ends.2.2017.GERMAN.SUBBED.DOKU.720p.WebHD.x264-DOKUMANiA
2017-06-16 17:32:19 Orange.is.the.New.Black.S05E13.SPANiSH.720p.HDTV.x264-FCC
2017-06-16 17:32:49 Ciaobella_-_One_Nait_Stand-WEB-1997-iDC
2017-06-16 17:32:56 Orange.is.the.New.Black.S05E13.SPANiSH.HDTV.x264-FCC
2017-06-16 17:33:23 Desus.And.Mero.2017.06.15.WEB.x264-CookieMonster
2017-06-16 17:33:34 After.Porn.Ends.2.2017.GERMAN.SUBBED.DOKU.WebRip.x264-DOKUMANiA
2017-06-16 17:33:51 Desus.And.Mero.2017.06.15.1080p.WEB.x264-CookieMonster
2017-06-16 17:34:31 Deadly.Blessing.1981.iNTERNAL.BDRip.x264-MANiC
2017-06-16 17:34:51 After.Porn.Ends.2012.GERMAN.DL.DUBBED.DOKU.1080p.WebHD.x264-DOKUMANiA
2017-06-16 17:35:07 PublicAgent.17.06.16.Misha.Cross.XXX.1080p.MP4-KTR
2017-06-16 17:36:10 After.Porn.Ends.2012.GERMAN.DL.DUBBED.DOKU.720p.WebHD.x264-DOKUMANiA
2017-06-16 17:37:30 After.Porn.Ends.2012.GERMAN.DUBBED.DOKU.WebRip.x264-DOKUMANiA
2017-06-16 17:37:41 DigitalPlayground.17.06.16.Jai.James.Ass.To.Glass.XXX.1080p.MP4-KTR
2017-06-16 17:37:57 Ghost.World.2001.iNTERNAL.BDRip.x264-MANiC
2017-06-16 17:40:41 Basic.Instinct.German.1992.AC3.BDRip.x264.iNTERNAL-VideoStar
2017-06-16 17:41:40 Basic.Instinct.1992.German.DL.1080p.BluRay.x264.iNTERNAL-VideoStar
2017-06-16 17:41:53 Good.Morning.1959.iNTERNAL.BDRip.x264-MANiC
2017-06-16 17:42:50 Tiny.House.Hunters.S05E23.Wanting.Tiny.in.Washington.720p.WEB.h264-CookieMonster
2017-06-16 17:43:34 The.Ranch.S02E05.1080p.WEBRip.x264-WEBiF
2017-06-16 17:45:56 Kokiri-Chasing_(Tobtok_Remix)-(190296951060)-WEB-2017-2FAST4U
2017-06-16 17:47:20 Harlequin.1980.iNTERNAL.BDRip.x264-MANiC
2017-06-16 17:47:47 Tiny.House.Hunters.S05E24.Travelers.Going.Tiny.720p.WEB.h264-CookieMonster
2017-06-16 17:48:26 Tiny.House.Hunters.S05E23.Wanting.Tiny.in.Washington.WEB.h264-CookieMonster
2017-06-16 17:48:29 Teen.Wolf.S06E07.GERMAN.DL.DUBBED.1080p.WebHD.h264-VoDTv
2017-06-16 17:48:52 Tiny.House.Hunters.S05E24.Travelers.Going.Tiny.WEB.h264-CookieMonster
2017-06-16 17:48:54 Teen.Wolf.S06E07.GERMAN.Dubbed.720p.WEBHD.h264-idTV
2017-06-16 17:50:06 Teen.Wolf.S06E07.GERMAN.Dubbed.WEBRiP.x264-idTV
2017-06-16 17:50:26 Teen.Wolf.S06E08.GERMAN.DL.DUBBED.1080p.WebHD.h264-VoDTv
2017-06-16 17:51:10 Teen.Wolf.S06E08.GERMAN.Dubbed.WEBRiP.x264-idTV
2017-06-16 17:51:15 I.Was.Born.But.1932.iNTERNAL.BDRip.x264-MANiC
2017-06-16 17:51:31 Teen.Wolf.S06E09.GERMAN.DL.DUBBED.1080p.WebHD.h264-VoDTv
2017-06-16 17:51:35 The_Swonx_Feat_Heroland_-_Follow_You-(805574_8086450)-WEB-2017-ZzZz
2017-06-16 17:51:53 Little_Giants-Brother_(Optixx_Remix)-(190296951541)-WEB-2017-2FAST4U
2017-06-16 17:52:16 Teen.Wolf.S06E09.GERMAN.Dubbed.720p.WEBHD.h264-idTV
2017-06-16 17:52:35 Teen.Wolf.S06E09.GERMAN.Dubbed.WEBRiP.x264-idTV
2017-06-16 17:53:01 Teen.Wolf.S06E10.GERMAN.DL.DUBBED.1080p.WebHD.h264-VoDTv
2017-06-16 17:53:23 Teen.Wolf.S06E10.GERMAN.Dubbed.720p.WEBHD.h264-idTV
2017-06-16 17:53:43 Teen.Wolf.S06E10.GERMAN.Dubbed.WEBRiP.x264-idTV
2017-06-16 17:54:33 Teen.Wolf.S06E08.GERMAN.Dubbed.720p.WEBHD.h264-idTV
2017-06-16 17:54:49 The.Daily.Show.2017.06.15.Whoopi.Goldberg.720p.HDTV.x264-CROOKS
2017-06-16 17:54:54 The.Daily.Show.2017.06.15.Whoopi.Goldberg.HDTV.x264-CROOKS
2017-06-16 17:55:33 If.1968.iNTERNAL.BDRip.x264-MANiC
2017-06-16 17:57:08 Stephen_Paul_Taylor_-_Single_and_Seventeen-(SPT_001)-WEB-2017-ZzZz
2017-06-16 17:59:47 Zortam.MP3.Media.Studio.Pro.v22.30-F4CG
2017-06-16 18:00:16 Jeanne.Dielman.23.Commerce.Quay.1080.Brussels.1975.iNTERNAL.BDRip.x264-MANiC
2017-06-16 18:01:06 Scherrie_Payne_-_Crumbs_Off_The_Table_(Dan_Thomas_EDM_Mix)-(505496_0322509)-WEB-2017-ZzZz
2017-06-16 18:01:19 FakeDrivingSchool.17.06.16.Busty.Cookie.XXX.1080p.MP4-KTR
2017-06-16 18:03:29 CISCO.PRESS.IPV6.DESIGN.AND.DEPLOYMENT.LIVE.LESSONS.TUTORiAL-PROPAGANDA
2017-06-16 18:04:53 ON_TV_-_La_Ola_(Remixes_2k17)-DIRFIX-WEB-2017-MMS
2017-06-16 18:08:53 Penthouse.16.05.14.Kaci.Starr.in.Too.Hot.For.Work.XXX.1080p.MP4-GUSH
2017-06-16 18:09:13 Scandroid_-_Awakening_With_You_(Remix_Contest_Compilation)-(FXT_284)-WEB-2017-ZzZz
2017-06-16 18:09:19 The.400.Blows.1959.iNTERNAL.BDRip.x264-MANiC
2017-06-16 18:13:12 RMR_-_Lovegame-(7467835)-WEB-2017-ZzZz
2017-06-16 18:15:00 The.Big.Restaurant.1966.iNTERNAL.BDRip.x264-MANiC
2017-06-16 18:16:20 Nall_And_Lawrence_-_Angkor-(DIRTY_164D1)-WEB-2017-ZzZz
2017-06-16 18:18:23 Guerrilla.S01E03.1080p.BluRay.x264-SHORTBREHD
2017-06-16 18:19:37 Master_Clan_-_Krusty_Krub_Power_Mix_(Remix_2017)-(361497_6037679)-WEB-2017-ZzZz
2017-06-16 18:20:26 Guerrilla.S01E06.1080p.BluRay.x264-SHORTBREHD
2017-06-16 18:21:14 The.Dinner.Game.1998.iNTERNAL.BDRip.x264-MANiC
2017-06-16 18:22:33 MAESTRO_-_What_U_Wanna-(AWD_316845)-WEB-2017-ZzZz
2017-06-16 18:24:03 Ugetsu.1953.iNTERNAL.BDRip.x264-MANiC
2017-06-16 18:25:45 CounterPunch.2017.WEBRip.x264-JAWN
2017-06-16 18:31:02 Alpe_Dhuzes_and_Jennifer_Cooke_-_Rollercoaster_(Produced_by_Dirtcaps)-(ARMAS1302)-WEB-2017-FMC
2017-06-16 18:31:34 Lodato_And_Joseph_Duveen_And_Jaclyn_Walker_-_Breathe_Again_(The_Remixes)-(CAT_34911)-WEB-2017-ZzZz
2017-06-16 18:32:35 The.Ranch.S02E04.FRENCH.720p.WEBRip.x264-AMB3R
2017-06-16 18:32:44 10000_Maniacs-Original_Album_Series-WEB-2017-2FAST4U
2017-06-16 18:33:01 The.Ranch.S02E05.FRENCH.720p.WEBRip.x264-AMB3R
2017-06-16 18:34:34 At.Midnight.2017.06.15.720p.HDTV.x264-CROOKS
2017-06-16 18:34:37 At.Midnight.2017.06.15.HDTV.x264-CROOKS
2017-06-16 18:34:44 Wonder.Woman.2009.iNTERNAL.BDRip.x264-MANiC
2017-06-16 18:35:18 Logan.2017.MULTi.COMPLETE.BLURAY-4FR
2017-06-16 18:40:05 Penthouse.16.05.13.Kristina.Rose.in.Making.Something.Out.Of.Nothing.At.All.XXX.1080p.MP4-GUSH
2017-06-16 18:40:15 Karel_Ullner_-_We_Get_High-(425123_4332641)-WEB-2017-ZzZz
2017-06-16 18:43:12 Tattoo.Energy.NR107.05.2017.GERMAN.SCAN.MAGAZiNE.eBook-INKED
2017-06-16 18:43:35 Peaky.Blinders.Gangs.of.Birmingham.S03E04.GERMAN.DUBBED.DL.1080p.BluRay.x264-TVP
2017-06-16 18:43:42 Jacq_B_-_Safe-(PMR_132)-WEB-2017-ZzZz
2017-06-16 18:45:11 Tattoo.Idee.Spezial.Coole.Tattoos.NR31.2017.GERMAN.SCAN.MAGAZiNE.eBook-INKED
2017-06-16 18:46:25 Peaky.Blinders.Gangs.of.Birmingham.S03E05.GERMAN.DUBBED.DL.1080p.BluRay.x264-TVP
2017-06-16 18:47:02 INDIIA_Feat_Whitney_Philips_-_Out_Of_Love-(G_010003733486D)-WEB-2017-ZzZz
2017-06-16 18:47:20 OREILLY.THE.OPEN.CONTAINER.ESSENTIALS.VIDEO.COLLECTION.TUTORiAL-PROPAGANDA
2017-06-16 18:48:04 Wavesfactory.Mercury.KONTAKT-MASCHiNE
2017-06-16 18:48:33 Peaky.Blinders.Gangs.of.Birmingham.S03E06.GERMAN.DUBBED.DL.1080p.BluRay.x264-TVP
2017-06-16 18:51:32 Henry_Land_Feat_Jenny_-_Tainted_(Remixes)-(MTG_20256)-WEB-2017-ZzZz
2017-06-16 18:53:35 Danmachi.Is.It.Wrong.To.Try.To.Pick.Up.Girls.In.A.Dungeon.S01E01.720p.BluRay.x264-CiNEFiLE
2017-06-16 18:54:54 Major.Crimes.S05E20.SPANiSH.720p.HDTV.x264-FCC
2017-06-16 18:55:28 Major.Crimes.S05E20.SPANiSH.HDTV.x264-FCC
2017-06-16 18:55:50 Fuego.Abierto.S01E01.SPANiSH.1080p.HDTV.x264-FCC
2017-06-16 18:56:28 Fuego.Abierto.S01E01.SPANiSH.720p.HDTV.x264-FCC
2017-06-16 18:56:54 Fuego.Abierto.S01E01.SPANiSH.HDTV.x264-FCC
2017-06-16 18:57:15 Great.News.S01E05.SPANiSH.1080p.HDTV.x264-FCC
2017-06-16 18:57:49 Great.News.S01E05.SPANiSH.720p.HDTV.x264-FCC
2017-06-16 18:58:16 Danmachi.Is.It.Wrong.To.Try.To.Pick.Up.Girls.In.A.Dungeon.S01E02.720p.BluRay.x264-CiNEFiLE
2017-06-16 18:58:19 Great.News.S01E05.SPANiSH.HDTV.x264-FCC
2017-06-16 18:58:40 Great.News.S01E06.SPANiSH.1080p.HDTV.x264-FCC
2017-06-16 18:59:13 Great.News.S01E06.SPANiSH.720p.HDTV.x264-FCC
2017-06-16 18:59:24 House.of.Cards.S05E03.Frau.ohne.Gewissen.GERMAN.DUBBED.DL.1080p.WebHD.x264-TVP
2017-06-16 18:59:43 Great.News.S01E06.SPANiSH.HDTV.x264-FCC
2017-06-16 19:00:04 Servir.Y.Proteger.S01E39.SPANiSH.720p.HDTV.x264-FCC
2017-06-16 19:00:42 Servir.Y.Proteger.S01E39.SPANiSH.HDTV.x264-FCC
2017-06-16 19:00:55 Eliane_-_Lero_Lero_Lero_Le_Le-BONUS_TRACKS-WEB-1999-iDC
2017-06-16 19:01:40 Eso.Xo.Supreme-Cut_You_Off-SINGLE-WEB-2017-ENRAGED
2017-06-16 19:01:56 Eso.Xo.Supreme-Power_(feat_Free5ive)-SINGLE-WEB-2017-ENRAGED
2017-06-16 19:02:11 G-Stack-Charlie_Sheen_(Maxi_Single)-SINGLE-WEB-2012-ENRAGED
2017-06-16 19:02:11 Danmachi.Is.It.Wrong.To.Try.To.Pick.Up.Girls.In.A.Dungeon.S01E03.720p.BluRay.x264-CiNEFiLE
2017-06-16 19:02:27 G-Stack-Project_Purple_Vol_1_Welcome_to_Purple_City-WEB-2007-ENRAGED
2017-06-16 19:02:41 Gully-Reputation-BONUS_TRACKS-WEB-2014-ENRAGED
2017-06-16 19:02:57 Gully-San_Pedro_Sula-WEB-2017-ENRAGED
2017-06-16 19:03:12 Gully-The_Incredible_Untold_Story-WEB-2017-ENRAGED
2017-06-16 19:03:30 Pooh_Hefner-Since_84-WEB-2017-ENRAGED
2017-06-16 19:03:32 Sunnery_James_and_Ryan_Marciano_-_Sexy_by_Nature-SAT-06-16-2017-TALiON
2017-06-16 19:04:05 Funky_Jay_-_Brass-(RU_113343)-WEB-2017-ZzZz
2017-06-16 19:05:26 Danmachi.Is.It.Wrong.To.Try.To.Pick.Up.Girls.In.A.Dungeon.S01E04.720p.BluRay.x264-CiNEFiLE
2017-06-16 19:11:32 Roxy_Music-For_Your_Pleasure-WEB-1973-ENTiTLED_iNT
2017-06-16 19:12:06 Danmachi.Is.It.Wrong.To.Try.To.Pick.Up.Girls.In.A.Dungeon.S01E05.720p.BluRay.x264-CiNEFiLE
2017-06-16 19:12:46 Skamazzo_And_Matari-All_City-WEB-2015-ESG
2017-06-16 19:18:03 Danmachi.Is.It.Wrong.To.Try.To.Pick.Up.Girls.In.A.Dungeon.S01E06.720p.BluRay.x264-CiNEFiLE
2017-06-16 19:21:18 The_City_Youngins-Hard_Times-WEB-2007-ESG
2017-06-16 19:22:20 Danmachi.Is.It.Wrong.To.Try.To.Pick.Up.Girls.In.A.Dungeon.S01E07.720p.BluRay.x264-CiNEFiLE
2017-06-16 19:28:00 Danmachi.Is.It.Wrong.To.Try.To.Pick.Up.Girls.In.A.Dungeon.S01E08.720p.BluRay.x264-CiNEFiLE
2017-06-16 19:31:22 Danmachi.Is.It.Wrong.To.Try.To.Pick.Up.Girls.In.A.Dungeon.S01E09.720p.BluRay.x264-CiNEFiLE
2017-06-16 19:34:35 Danmachi.Is.It.Wrong.To.Try.To.Pick.Up.Girls.In.A.Dungeon.S01E10.720p.BluRay.x264-CiNEFiLE
2017-06-16 19:38:22 Danmachi.Is.It.Wrong.To.Try.To.Pick.Up.Girls.In.A.Dungeon.S01E11.720p.BluRay.x264-CiNEFiLE
2017-06-16 19:39:09 Amine-Turf-SINGLE-WEB-2017-ENRAGED
2017-06-16 19:39:24 Bianca_Rose-No_Fear_Here-WEB-2017-ENRAGED
2017-06-16 19:39:39 Bianca_Rose-Truths_and_Tiny_Tragedies-EP-WEB-2011-ENRAGED
2017-06-16 19:39:56 Chloe_Howl-Magnetic-SINGLE-WEB-2017-ENRAGED
2017-06-16 19:40:12 DJ_Khaled-Wild_Thoughts_(feat_Rihanna_And_Bryson_Tiller)-SINGLE-WEB-2017-ENRAGED
2017-06-16 19:40:27 DeJ_Loaf-No_Fear-SINGLE-WEB-2017-ENRAGED
2017-06-16 19:40:42 Figub_Brazlevic-Keats_Vol_1-BONUS_TRACKS-WEB-2014-ENRAGED
2017-06-16 19:40:58 Finding_Novyon-Thats_My_Dawg-WEB-2017-ENRAGED
2017-06-16 19:41:13 Gorillaz-Sleeping_Powder-SINGLE-WEB-2017-ENRAGED
2017-06-16 19:41:18 Danmachi.Is.It.Wrong.To.Try.To.Pick.Up.Girls.In.A.Dungeon.S01E12.720p.BluRay.x264-CiNEFiLE
2017-06-16 19:41:29 Majid_Jordan-One_I_Want_(feat_PARTYNEXTDOOR)-SINGLE-WEB-2017-ENRAGED
2017-06-16 19:41:46 Mario-Pain_Is_the_New_Pleasure-SINGLE-WEB-2017-ENRAGED
2017-06-16 19:42:00 Nick_Jonas-Remember_I_Told_You_(Acoustic)-SINGLE-WEB-2017-ENRAGED
2017-06-16 19:42:16 Phora-To_the_Moon-SINGLE-WEB-2017-ENRAGED
2017-06-16 19:42:28 Harry.Brown.2009.German.DL.1080p.BluRay.AVC-CLASSiCAVC
2017-06-16 19:42:31 Rayven_Justice-Dont_Matter_(feat_J_Stalin_and_Sleepy_D)-SINGLE-WEB-2017-ENRAGED
2017-06-16 19:42:47 Richie_Rich-Oakland-SINGLE-WEB-2017-ENRAGED
2017-06-16 19:43:04 Sage_The_Gemini-Reverse-SINGLE-WEB-2017-ENRAGED
2017-06-16 19:43:18 T.Y.E-32-WEB-2017-ENRAGED
2017-06-16 19:43:34 T.Y.E-Tr.32_(Empty_the_Clip)-WEB-2017-ENRAGED
2017-06-16 19:43:50 Tank-When_We-SINGLE-WEB-2017-ENRAGED
2017-06-16 19:44:06 YolanDa_Brown-Love_Politics_War-WEB-2017-ENRAGED
2017-06-16 19:45:28 Danmachi.Is.It.Wrong.To.Try.To.Pick.Up.Girls.In.A.Dungeon.S01E13.720p.BluRay.x264-CiNEFiLE
2017-06-16 19:45:28 Geezel-Conspiracy-WEB-2015-ESG
2017-06-16 19:50:16 Mantracker.S03E01.720p.WEB.h264-TASTETV
2017-06-16 19:51:23 Mantracker.S03E02.720p.WEB.h264-TASTETV
2017-06-16 19:52:29 Gladiatorerna.S12E04.PREAiR.SWEDiSH.720p.WEB.h264-SweWR
2017-06-16 19:52:35 Mantracker.S03E03.720p.WEB.h264-TASTETV
2017-06-16 19:53:29 Your.Lie.In.April.S01E12.1080p.BluRay.x264-TENEIGHTY
2017-06-16 19:53:38 Mantracker.S03E04.720p.WEB.h264-TASTETV
2017-06-16 19:54:46 Mantracker.S03E05.720p.WEB.h264-TASTETV
2017-06-16 19:55:21 Your.Lie.In.April.S01E13.1080p.BluRay.x264-TENEIGHTY
2017-06-16 19:55:51 Mantracker.S03E06.720p.WEB.h264-TASTETV
2017-06-16 19:56:56 Mantracker.S03E07.720p.WEB.h264-TASTETV
2017-06-16 19:57:04 Your.Lie.In.April.S01E14.1080p.BluRay.x264-TENEIGHTY
2017-06-16 19:57:58 Mantracker.S03E08.720p.WEB.h264-TASTETV
2017-06-16 19:59:03 Mantracker.S03E09.720p.WEB.h264-TASTETV
2017-06-16 19:59:42 Penthouse.16.05.13.Hope.in.Porn.Star.Bananas.XXX.1080p.MP4-GUSH
2017-06-16 19:59:55 Your.Lie.In.April.S01E15.1080p.BluRay.x264-TENEIGHTY
2017-06-16 20:00:06 Mantracker.S03E10.720p.WEB.h264-TASTETV
2017-06-16 20:01:09 Mantracker.S03E01.1080p.WEB.h264-TASTETV
2017-06-16 20:02:12 Mantracker.S03E02.1080p.WEB.h264-TASTETV
2017-06-16 20:02:19 Your.Lie.In.April.S01E16.1080p.BluRay.x264-TENEIGHTY
2017-06-16 20:03:15 Mantracker.S03E03.1080p.WEB.h264-TASTETV
2017-06-16 20:04:19 Mantracker.S03E04.1080p.WEB.h264-TASTETV
2017-06-16 20:04:47 The.LEGO.Batman.Movie.2017.DANISH.BDRip.x264-AFFECTION
2017-06-16 20:04:54 Your.Lie.In.April.S01E17.1080p.BluRay.x264-TENEIGHTY
2017-06-16 20:05:23 Mantracker.S03E05.1080p.WEB.h264-TASTETV
2017-06-16 20:06:29 Mantracker.S03E06.1080p.WEB.h264-TASTETV
2017-06-16 20:06:46 J_Dilla-J_Dillas_Delights_Vol_1-WEB-2017-SOUNDz
2017-06-16 20:07:20 Your.Lie.In.April.S01E18.1080p.BluRay.x264-TENEIGHTY
2017-06-16 20:07:33 Mantracker.S03E07.1080p.WEB.h264-TASTETV
2017-06-16 20:08:28 Layzie_Bone-I_Made_It-(Single)-WEB-2016-ESG
2017-06-16 20:08:37 The.LEGO.Batman.Movie.2017.FINNISH.BDRip.x264-AFFECTION
2017-06-16 20:08:48 Mantracker.S03E08.1080p.WEB.h264-TASTETV
2017-06-16 20:08:48 The.Ranch.S02E06.FRENCH.720p.WEBRip.x264-AMB3R
2017-06-16 20:08:51 Krayzie_Bone-Let_Me_Learn-(Single)-WEB-2017-ESG
2017-06-16 20:09:08 The.Ranch.S02E07.FRENCH.720p.WEBRip.x264-AMB3R
2017-06-16 20:09:42 Mantracker.S03E09.1080p.WEB.h264-TASTETV
2017-06-16 20:10:04 The.LEGO.Batman.Movie.2017.ICELANDIC.BDRip.x264-AFFECTION
2017-06-16 20:10:25 Big_Bad_Voodoo_Daddy-Louie_Louie_Louie-WEB-2017-SOUNDz
2017-06-16 20:10:39 Your.Lie.In.April.S01E19.1080p.BluRay.x264-TENEIGHTY
2017-06-16 20:10:48 Mantracker.S03E10.1080p.WEB.h264-TASTETV
2017-06-16 20:10:53 Jim_Allchin-Decisions-WEB-2017-SOUNDz
2017-06-16 20:11:24 Jim_Allchin-Overclocked-WEB-2011-SOUNDz
2017-06-16 20:11:41 The.LEGO.Batman.Movie.2017.NORWEGIAN.BDRip.x264-AFFECTION
2017-06-16 20:11:55 Mantracker.S03E01.WEB.h264-TASTETV
2017-06-16 20:12:57 Mantracker.S03E02.WEB.h264-TASTETV
2017-06-16 20:13:57 The.LEGO.Batman.Movie.2017.SWEDISH.BDRip.x264-AFFECTION
2017-06-16 20:14:01 Mantracker.S03E03.WEB.h264-TASTETV
2017-06-16 20:14:13 Your.Lie.In.April.S01E20.1080p.BluRay.x264-TENEIGHTY
2017-06-16 20:15:06 Mantracker.S03E04.WEB.h264-TASTETV
2017-06-16 20:16:09 Mantracker.S03E05.WEB.h264-TASTETV
2017-06-16 20:16:54 Your.Lie.In.April.S01E21.1080p.BluRay.x264-TENEIGHTY
2017-06-16 20:17:12 Mantracker.S03E06.WEB.h264-TASTETV
2017-06-16 20:17:41 Hawaii.Five-0.2010.S07E20.SPANiSH.HDTV.x264-FERiCE
2017-06-16 20:18:18 Mantracker.S03E07.WEB.h264-TASTETV
2017-06-16 20:19:07 Scott_Brown_-_Neckbreaker_(M-Project_And_Mitomoro_Remix)-(EV182)-WEB-2017-MMS
2017-06-16 20:19:22 Mantracker.S03E08.WEB.h264-TASTETV
2017-06-16 20:19:52 Your.Lie.In.April.S01E22.1080p.BluRay.x264-TENEIGHTY
2017-06-16 20:20:08 Hawaii.Five-0.2010.S07E20.SPANiSH.720p.HDTV.x264-FERiCE
2017-06-16 20:20:21 The.LEGO.Batman.Movie.2017.DANISH.720p.BluRay.x264-CONDITION
2017-06-16 20:20:23 Tiesto_And_KSHMR_Ft._Talay_Riley_-_Harder-(MF208)-WEB-2017-MMS
2017-06-16 20:20:28 Mantracker.S03E09.WEB.h264-TASTETV
2017-06-16 20:20:32 Hawaii.Five-0.2010.S07E20.SPANiSH.1080p.HDTV.x264-FERiCE
2017-06-16 20:21:32 Mantracker.S03E10.WEB.h264-TASTETV
2017-06-16 20:21:46 Unbeat_-_Promise_Me-(EGMSIN145)-WEB-2017-MMS
2017-06-16 20:23:00 Skam.S04E09.NORWEGiAN.720p.WEB.x264-CURRYKETCHUP
2017-06-16 20:23:47 The.LEGO.Batman.Movie.2017.FINNISH.720p.BluRay.x264-CONDITION
2017-06-16 20:25:19 Fix8Sed8-Foren6-2CD-Formaldehyde_Edition-2017-FWYH
2017-06-16 20:28:12 Penthouse.16.05.13.Chastity.Lynn.in.Spoiled.Chastity.XXX.1080p.MP4-GUSH
2017-06-16 20:30:45 The.LEGO.Batman.Movie.2017.ICELANDIC.720p.BluRay.x264-CONDITION
2017-06-16 20:36:01 VA-Future_Disco_Presents_Poolside_Sounds_Vol_VI-WEB-2017-2FAST4U
2017-06-16 20:36:21 The.LEGO.Batman.Movie.2017.NORWEGIAN.720p.BluRay.x264-CONDITION
2017-06-16 20:37:58 MasterChef.Slovenija.S03E13.SI.720p.WEB.x264-RADiOACTiVE
2017-06-16 20:37:59 A.Shot.in.the.Dark.1964.720p.BluRay.X264-AMIABLE
2017-06-16 20:41:02 A.Shot.in.the.Dark.1964.1080p.BluRay.X264-AMIABLE
2017-06-16 20:46:03 The.LEGO.Batman.Movie.2017.SWEDISH.720p.BluRay.x264-CONDITION
2017-06-16 20:48:00 Jehst-Billy_Green_is_Dead-2017-CMS
2017-06-16 20:48:39 Shaun.T.Focus.T25.Gamma.Speed.3.0.2013.1080p.WEB.x264-I_KnoW
2017-06-16 20:50:53 El.Chapo.S01E08.1080p.WEBRip.x264-STRiFE
2017-06-16 20:51:19 El.Chapo.S01E07.1080p.WEBRip.x264-STRiFE
2017-06-16 20:52:15 Nosaj_Thing-All_Points_Back_to_U_(feat_Steve_Spacek)-SINGLE-WEB-2017-SOUNDz
2017-06-16 20:52:17 Shaun.T.Focus.T25.Gamma.Speed.3.0.2013.iNTERNAL.WEBRip.x264-I_KnoW
2017-06-16 20:53:52 LImperatrice-Sequences-(QLIMA010)-WEB-2017-2FAST4U
2017-06-16 20:56:42 Your.Lie.In.April.S01D3.COMPLETE.BLURAY-BRDC
2017-06-16 20:58:22 404_Soldierz-All_Out_War-CD-FLAC-2004-FLACME
2017-06-16 20:58:28 Bryn_Christopher-The_Quest-CDEP-FLAC-2008-FLACME
2017-06-16 20:58:34 Erika-Devuelveme_La_Vida-ES-CD-FLAC-2003-FLACME
2017-06-16 20:58:38 Fito_Paez-Rodolfo-ES-CD-FLAC-2007-FLACME
2017-06-16 20:58:43 Frankie_Negron-Inesperado-ES-CD-FLAC-2003-FLACME
2017-06-16 20:58:46 Incognito-More_Tales_Remixed-CD-FLAC-2009-FLACME
2017-06-16 21:00:34 VA-Gibb_Collective_Please_Dont_Turn_Out_The_Lights-WEB-2017-2FAST4U
2017-06-16 21:01:49 Penthouse.16.05.13.Asa.Akira.and.Kirsten.Price.in.Save.Water.Share.The.Shower.XXX.1080p.MP4-GUSH
2017-06-16 21:09:20 SheenaShaw.14.09.21.Pretty.Little.Bumball.Machine.XXX.1080p.MP4-WEIRD
2017-06-16 21:09:35 The.LEGO.Batman.Movie.2017.DANISH.1080p.BluRay.x264-CONDITION
2017-06-16 21:10:25 SheenaShaw.15.07.12.Self.Lubricating.XXX.720p.MP4-WEIRD
2017-06-16 21:11:17 Action_Fire-Tan_So_Bad-7INCH_VINYL-FLAC-1996-YARD
2017-06-16 21:11:29 SheenaShaw.15.07.31.White.Panty.Tease.XXX.720p.MP4-WEIRD
2017-06-16 21:12:33 SheenaShaw.15.08.02.Ice.Cream.Sunday.XXX.1080p.MP4-WEIRD
2017-06-16 21:13:22 Fairmont_-_Shadows_Of_Mine-EP-(SUARA275)-WEB-2017-QMI
2017-06-16 21:13:37 SheenaShaw.15.08.03.Five.Minute.Morning.Fisting.XXX.720p.MP4-WEIRD
2017-06-16 21:14:05 Alley_Cat-What-A-Met-7INCH_VINYL-FLAC-199x-YARD
2017-06-16 21:14:56 SheenaShaw.15.08.07.Butteredfingers.XXX.1080p.MP4-WEIRD
2017-06-16 21:14:58 Andrew_Coombs-Rub-A-Dub_Sound-7INCH_VINYL-FLAC-1999-YARD
2017-06-16 21:15:30 Anthony_Cruz-So_Many_Ways-7INCH_VINYL-FLAC-2001-YARD
2017-06-16 21:15:46 SheenaShaw.15.08.14.Piggy.Party.XXX.1080p.MP4-WEIRD
2017-06-16 21:15:48 Dead_By_April-Dead_By_April-(060252703350)-Limited_Edition-CD-FLAC-2009-RUiL
2017-06-16 21:16:00 Deep_Purple-California_Jamming-(7243_8_38334_2_9)-CD-FLAC-1996-RUiL
2017-06-16 21:16:02 The.LEGO.Batman.Movie.2017.FINNISH.1080p.BluRay.x264-CONDITION
2017-06-16 21:16:12 Infinite_Mass-The_Face-(016_456-2)-CD-FLAC-2001-RUiL
2017-06-16 21:16:23 Million_Stylez-From_A_Far-(334_41993)-CD-FLAC-2007-RUiL
2017-06-16 21:16:33 Sex_Pistols-Never_Mind_The_Bollocks_Heres_The_Sex_Pistols-(SPUNK_1)-2CD-FLAC-1996-RUiL
2017-06-16 21:16:38 Joeski_Ft._Jimmy_Lopez_-_The_Orishas-(MAYA143)-WEB-2017-QMI
2017-06-16 21:16:50 SheenaShaw.15.12.24.Lights.Camera.XXXmas.Action.XXX.1080p.MP4-WEIRD
2017-06-16 21:16:52 Soilwork-Sworn_To_A_Great_Divide-(NB_1879-0)-Limited_Edition-CD-FLAC-2007-RUiL
2017-06-16 21:17:53 SheenaShaw.15.12.24.Miss.Sheenas.Tiny.Man.Slave.XXX.1080p.MP4-WEIRD
2017-06-16 21:18:58 SheenaShaw.16.01.01.Sheena.Loves.Chocolate.Cock.XXX.1080p.MP4-WEIRD
2017-06-16 21:19:45 The.LEGO.Batman.Movie.2017.ICELANDIC.1080p.BluRay.x264-CONDITION
2017-06-16 21:20:02 SheenaShaw.16.01.08.My.Lucky.Lollies.XXX.1080p.MP4-WEIRD
2017-06-16 21:20:45 Svenska.Folkfester.Sweden.Rock.2017.SWEDiSH.720p.HDTV.x264-KAFFEREP
2017-06-16 21:21:07 SheenaShaw.16.01.08.Pandabear.Butt.Puffs.XXX.1080p.MP4-WEIRD
2017-06-16 21:22:12 SheenaShaw.16.01.22.Boyfriend.Lessons.2.XXX.720p.MP4-WEIRD
2017-06-16 21:23:16 SheenaShaw.16.01.30.Oiled.Up.Booty.Shake.XXX.1080p.MP4-WEIRD
2017-06-16 21:24:21 SheenaShaw.16.02.06.Boyfriend.Lessons.3.Quickie.XXX.1080p.MP4-WEIRD
2017-06-16 21:25:24 SheenaShaw.16.02.14.Valentines.Day.Special.XXX.720p.MP4-WEIRD
2017-06-16 21:25:28 The.Ranch.S02E08.FRENCH.720p.WEBRip.x264-AMB3R
2017-06-16 21:25:47 The.Ranch.S02E09.FRENCH.720p.WEBRip.x264-AMB3R
2017-06-16 21:26:04 The.Ranch.S02E10.FRENCH.720p.WEBRip.x264-AMB3R
2017-06-16 21:26:23 Your.Lie.In.April.S01D4.COMPLETE.BLURAY-BRDC
2017-06-16 21:26:28 SheenaShaw.16.02.21.Storytime.XXX.720p.MP4-WEIRD
2017-06-16 21:27:33 SheenaShaw.16.02.28.Meaty.Pussy.XXX.720p.MP4-WEIRD
2017-06-16 21:28:36 SheenaShaw.16.03.06.A.Short.Novel.For.The.Geeks.XXX.720p.MP4-WEIRD
2017-06-16 21:29:15 The.LEGO.Batman.Movie.2017.NORWEGIAN.1080p.BluRay.x264-CONDITION
2017-06-16 21:30:06 SheenaShaw.16.03.12.A.Stretch.Session.XXX.720p.MP4-WEIRD
2017-06-16 21:30:45 SheenaShaw.16.03.18.Tentacula.XXX.720p.MP4-WEIRD
2017-06-16 21:31:30 The.LEGO.Batman.Movie.2017.SWEDISH.1080p.BluRay.x264-CONDITION
2017-06-16 21:31:49 SheenaShaw.16.03.20.Squirting.In.My.Tiny.Jean.Shorts.XXX.720p.MP4-WEIRD
2017-06-16 21:32:53 SheenaShaw.16.03.27.Snowbunny.And.Her.Big.Black.Carrot.XXX.1080p.MP4-WEIRD
2017-06-16 21:33:58 SheenaShaw.16.04.01.Peek-A-Blue.XXX.720p.MP4-WEIRD
2017-06-16 21:34:56 Joey_Briggs-The_Traveling_Salesman_Pariah_Me-CD-FLAC-2011-FLACME
2017-06-16 21:35:02 SheenaShaw.16.04.01.Twisty.Pop.XXX.720p.MP4-WEIRD
2017-06-16 21:35:10 Kids_In_The_Way-A_Love_Hate_Masquerade-CD-FLAC-2007-FLACME
2017-06-16 21:35:31 Loungeclash-Dread_Time_Story-CD-FLAC-2008-FLACME
2017-06-16 21:36:07 SheenaShaw.16.04.10.A.Tight.Shot.XXX.720p.MP4-WEIRD
2017-06-16 21:37:10 SheenaShaw.16.04.17.The.Daisy.Chain.XXX.720p.MP4-WEIRD
2017-06-16 21:38:15 SheenaShaw.16.05.01.Allow.Me.To.Sit.On.Your.Lap.XXX.720p.MP4-WEIRD
2017-06-16 21:39:20 SheenaShaw.16.05.01.Imagine.The.Possibilities.XXX.720p.MP4-WEIRD
2017-06-16 21:40:01 The.Spirit.2008.PL.DUAL.720p.BluRay.x264-FLAME
2017-06-16 21:40:24 SheenaShaw.16.05.01.Inconspicuous.Indecencies.XXX.720p.MP4-WEIRD
2017-06-16 21:40:40 Boruto.Naruto.Next.Generation.E09.SUBFRENCH.720p.HDTV.x264-AMB3R
2017-06-16 21:40:54 Boruto.Naruto.Next.Generation.E09.SUBFRENCH.HDTV.x264-AMB3R
2017-06-16 21:41:15 The.Spirit.2008.PL.DUAL.1080p.BluRay.x264-FLAME
2017-06-16 21:41:28 SheenaShaw.16.05.08.Sheena.Slips.It.In.XXX.1080p.MP4-WEIRD
2017-06-16 21:42:32 SheenaShaw.16.05.15.Rainbow.Bright.Creams.It.Right.XXX.1080p.MP4-WEIRD
2017-06-16 21:43:36 SheenaShaw.16.05.22.Bad.Kitty.Paws.BBC.XXX.1080p.MP4-WEIRD
2017-06-16 21:44:41 SheenaShaw.16.05.29.Sheenas.Cakesitting.XXX.1080p.MP4-WEIRD
2017-06-16 21:45:11 El.Chapo.S01E01.1080p.WEBRip.x264-MOROSE
2017-06-16 21:45:45 SheenaShaw.16.06.13.Sky.Blue.Daisy.Chain.Part.2.XXX.1080p.MP4-WEIRD
2017-06-16 21:46:07 Squirt-Huge-CD-FLAC-1999-FLACME
2017-06-16 21:46:36 The_Gabriels-Music_Of_Your_Life-CD-FLAC-2004-FLACME
2017-06-16 21:46:48 The_Vents-Venus_Again-CD-FLAC-1997-FLACME
2017-06-16 21:46:49 SheenaShaw.16.06.27.Ponyplay.Tryouts.The.Tease.XXX.1080p.MP4-WEIRD
2017-06-16 21:47:28 FxpHD.Physically.Plausible.Shading.in.RenderMan.Studio-TUTOR
2017-06-16 21:47:53 SheenaShaw.16.07.05.The.Milk.Maven.XXX.1080p.MP4-WEIRD
2017-06-16 21:47:54 Mikael_Jonasson-Dissonance-WEB-2017-WAV
2017-06-16 21:48:59 SheenaShaw.16.08.23.Pre-Con.BJ.XXX.1080p.MP4-WEIRD
2017-06-16 21:49:50 Samuel_L_Session-Railed_EP-WEB-2017-WAV
2017-06-16 21:50:03 SheenaShaw.16.11.24.Juicy.XXX.1080p.MP4-WEIRD
2017-06-16 21:51:08 SheenaShaw.16.12.01.The.Big.Spread.XXX.1080p.MP4-WEIRD
2017-06-16 21:52:13 SheenaShaw.16.12.02.Sticky.XXX.1080p.MP4-WEIRD
2017-06-16 21:53:32 SheenaShaw.16.12.09.Almost.XXX.1080p.MP4-WEIRD
2017-06-16 21:54:39 SheenaShaw.16.12.18.Easy.Access.Anal.Panties.XXX.1080p.MP4-WEIRD
2017-06-16 21:55:12 Pro.Cycling.Manager.2017.Hotfix.Update-SKIDROW
2017-06-16 21:55:43 SheenaShaw.16.12.30.Pantyhose.XXX.1080p.MP4-WEIRD
2017-06-16 21:56:24 Ghost.In.The.Shell.1995.COMPLETE.BLURAY-CiNEMATiC
2017-06-16 21:56:47 SheenaShaw.17.01.06.Mechanical.Toys.XXX.1080p.MP4-WEIRD
2017-06-16 21:57:52 SheenaShaw.17.01.08.Piston.Pete.XXX.1080p.MP4-WEIRD
2017-06-16 21:58:56 SheenaShaw.17.01.19.Smurfettes.Anal.Training.XXX.1080p.MP4-WEIRD
2017-06-16 21:59:25 VA-Patch_One-WEB-2017-WAV
2017-06-16 22:00:06 SheenaShaw.17.02.01.Sheenas.Pearl.Diving.XXX.1080p.MP4-WEIRD
2017-06-16 22:01:05 SheenaShaw.17.02.07.Bubbles.XXX.1080p.MP4-WEIRD
2017-06-16 22:02:09 SheenaShaw.17.02.25.D20.XXX.1080p.MP4-WEIRD
2017-06-16 22:03:13 SheenaShaw.17.03.03.Gooey.XXX.1080p.MP4-WEIRD
2017-06-16 22:05:34 Pro.Cycling.Manager.2017.Language.Changer-SKIDROW
2017-06-16 22:08:19 Alle.For.Tre.2017.DANISH.BDRip.x264-AFFECTION
2017-06-16 22:09:18 Ekoplekz-Bioprodukt-(ZIQ386)-WEB-2017-2FAST4U
2017-06-16 22:09:19 Ekoplekz-Bioprodukt-(ZIQ386)-WEB-2017-FAST4U
2017-06-16 22:09:47 Com_Truise-Iteration-(GI296CD)-WEB-2017-2FAST4U
2017-06-16 22:11:43 Annedroids.S04E08.Die.Rettungsmission.GERMAN.WS.HDTV.x264-aWake
2017-06-16 22:12:36 Annedroids.S04E08.Die.Rettungsmission.GERMAN.WS.720p.HDTV.x264-aWake
2017-06-16 22:12:42 Count.Arthur.Strong.S03E03.720p.HDTV.x264-MTB
2017-06-16 22:13:20 VA_-_Zappi_Rocks_Ibiza_Vol_2-(Compiled_By_Zappi)-(CLS0003672-2CD)-2017-DRUM
2017-06-16 22:13:28 Annedroids.S04E09.Kaltgestellt.GERMAN.WS.HDTV.x264-aWake
2017-06-16 22:13:34 Count.Arthur.Strong.S03E03.1080p.HDTV.H264-MTB
2017-06-16 22:14:09 Count.Arthur.Strong.S03E03.HDTV.x264-MTB
2017-06-16 22:14:23 Annedroids.S04E09.Kaltgestellt.GERMAN.WS.720p.HDTV.x264-aWake
2017-06-16 22:14:55 Adrian_Zenith--Going_Outside-(HOT13)-WEB-2017-dh
2017-06-16 22:15:13 Die.ZhuZhus.S01E15A.Die.Alieninvasion.GERMAN.WS.HDTV.x264-aWake
2017-06-16 22:16:05 Die.ZhuZhus.S01E15A.Die.Alieninvasion.GERMAN.WS.720p.HDTV.x264-aWake
2017-06-16 22:16:21 12.Monkeys.S02E02.German.DL.DUBBED.1080p.BluRay.x264-AIDA
2017-06-16 22:16:27 Hurlee--Back_To_80_EP-(LAR255)-WEB-2017-dh
2017-06-16 22:16:56 Die.ZhuZhus.S01E15B.Dein.Freund.die.Spinne.GERMAN.WS.HDTV.x264-aWake
2017-06-16 22:17:19 12.Monkeys.S02E02.German.DL.DUBBED.720p.BluRay.x264-AIDA
2017-06-16 22:17:50 Die.ZhuZhus.S01E15B.Dein.Freund.die.Spinne.GERMAN.WS.720p.HDTV.x264-aWake
2017-06-16 22:18:17 12.Monkeys.S02E02.German.DUBBED.BDRip.x264-AIDA
2017-06-16 22:18:21 Michael_Oberling--Blessed_Be-(LISZT042)-WEB-2017-dh
2017-06-16 22:18:39 Die.ZhuZhus.S01E16A.Die.Flugschule.GERMAN.WS.HDTV.x264-aWake
2017-06-16 22:18:45 Above_and_Beyond_-_Group_Therapy_236__Incl_Way_Out_West_Guestmix-SAT-06-16-2017-TALiON
2017-06-16 22:19:14 12.Monkeys.S02E03.German.DL.DUBBED.1080p.BluRay.x264-AIDA
2017-06-16 22:19:30 Ridney--I_Dont_Want_To_Stop-(YOU018)-WEB-2017-dh
2017-06-16 22:19:32 Die.ZhuZhus.S01E16A.Die.Flugschule.GERMAN.WS.720p.HDTV.x264-aWake
2017-06-16 22:20:01 Coone_-_Global_Dedication_028-CABLE-06-16-2017-TALiON
2017-06-16 22:20:12 12.Monkeys.S02E03.German.DL.DUBBED.720p.BluRay.x264-AIDA
2017-06-16 22:20:25 Die.ZhuZhus.S01E16B.Frankies.bester.Freund.GERMAN.WS.HDTV.x264-aWake
2017-06-16 22:20:51 Rob_Shields--Water_(Duke_Hugh_Remix)-(YENM002XD)-WEB-2017-dh
2017-06-16 22:21:11 12.Monkeys.S02E03.German.DUBBED.BDRip.x264-AIDA
2017-06-16 22:21:18 Die.ZhuZhus.S01E16B.Frankies.bester.Freund.GERMAN.WS.720p.HDTV.x264-aWake
2017-06-16 22:22:07 Jodha.Akbar.S01E110.GERMAN.WS.HDTV.x264-aWake
2017-06-16 22:22:08 12.Monkeys.S02E04.German.DL.DUBBED.1080p.BluRay.x264-AIDA
2017-06-16 22:22:46 Sasha_Anastasov--Uno_Motif-(DIKSOF028)-WEB-2017-dh
2017-06-16 22:23:00 Jodha.Akbar.S01E110.GERMAN.WS.720p.HDTV.x264-aWake
2017-06-16 22:23:05 12.Monkeys.S02E04.German.DL.DUBBED.720p.BluRay.x264-AIDA
2017-06-16 22:24:00 Soy.Luna.S02E39.GERMAN.WS.HDTV.x264-aWake
2017-06-16 22:24:04 12.Monkeys.S02E04.German.DUBBED.BDRip.x264-AIDA
2017-06-16 22:24:56 Soy.Luna.S02E39.GERMAN.WS.720p.HDTV.x264-aWake
2017-06-16 22:25:00 12.Monkeys.S02E05.German.DL.DUBBED.1080p.BluRay.x264-AIDA
2017-06-16 22:25:48 Soy.Luna.S02E40.GERMAN.WS.HDTV.x264-aWake
2017-06-16 22:25:58 12.Monkeys.S02E05.German.DL.DUBBED.720p.BluRay.x264-AIDA
2017-06-16 22:26:28 Pro.Cycling.Manager.2017.Stage.Editor-SKIDROW
2017-06-16 22:26:49 Soy.Luna.S02E40.GERMAN.WS.720p.HDTV.x264-aWake
2017-06-16 22:26:56 12.Monkeys.S02E05.German.DUBBED.BDRip.x264-AIDA
2017-06-16 22:27:50 Teletubbies.2015.S01E43.Klopf.klopf.GERMAN.WS.HDTV.x264-aWake
2017-06-16 22:27:54 12.Monkeys.S02E06.German.DL.DUBBED.1080p.BluRay.x264-AIDA
2017-06-16 22:28:43 Teletubbies.2015.S01E43.Klopf.klopf.GERMAN.WS.720p.HDTV.x264-aWake
2017-06-16 22:28:50 12.Monkeys.S02E06.German.DL.DUBBED.720p.BluRay.x264-AIDA
2017-06-16 22:29:42 El.Chapo.S01E09.1080p.WEBRip.x264-STRiFE
2017-06-16 22:29:47 12.Monkeys.S02E06.German.DUBBED.BDRip.x264-AIDA
2017-06-16 22:30:45 12.Monkeys.S02E07.German.DL.DUBBED.1080p.BluRay.x264-AIDA
2017-06-16 22:31:43 12.Monkeys.S02E07.German.DL.DUBBED.720p.BluRay.x264-AIDA
2017-06-16 22:32:40 12.Monkeys.S02E07.German.DUBBED.BDRip.x264-AIDA
2017-06-16 22:32:51 Have.I.Got.News.For.You.S53E09.720p.HDTV.x264-QPEL
2017-06-16 22:33:14 Big_Boi-Boomiverse-2017-FATHEAD
2017-06-16 22:33:38 12.Monkeys.S02E08.German.DL.DUBBED.1080p.BluRay.x264-AIDA
2017-06-16 22:33:50 Criminal.Minds.Beyond.Borders.S02E12.1080p.WEB.h264-EDHD
2017-06-16 22:34:14 Big_Boi-Boomiverse-CD-FLAC-2017-FATHEAD
2017-06-16 22:34:35 12.Monkeys.S02E08.German.DL.DUBBED.720p.BluRay.x264-AIDA
2017-06-16 22:35:32 12.Monkeys.S02E08.German.DUBBED.BDRip.x264-AIDA
2017-06-16 22:36:31 12.Monkeys.S02E09.German.DL.DUBBED.1080p.BluRay.x264-AIDA
2017-06-16 22:37:27 12.Monkeys.S02E09.German.DL.DUBBED.720p.BluRay.x264-AIDA
2017-06-16 22:38:26 12.Monkeys.S02E09.German.DUBBED.BDRip.x264-AIDA
2017-06-16 22:39:23 12.Monkeys.S02E10.German.DL.DUBBED.1080p.BluRay.x264-AIDA
2017-06-16 22:40:20 12.Monkeys.S02E10.German.DL.DUBBED.720p.BluRay.x264-AIDA
2017-06-16 22:41:18 12.Monkeys.S02E10.German.DUBBED.BDRip.x264-AIDA
2017-06-16 22:42:15 12.Monkeys.S02E11.German.DL.DUBBED.1080p.BluRay.x264-AIDA
2017-06-16 22:42:23 Penthouse.16.05.12.Nikki.Daniels.in.If.You.Cant.Stand.The.Heat.XXX.1080p.MP4-GUSH
2017-06-16 22:42:52 Chips.2017.COMPLETE.BLURAY-LAZERS
2017-06-16 22:43:13 12.Monkeys.S02E11.German.DL.DUBBED.720p.BluRay.x264-AIDA
2017-06-16 22:44:11 12.Monkeys.S02E11.German.DUBBED.BDRip.x264-AIDA
2017-06-16 22:44:56 Jordi_Ruz-Beso_Beach_(Mixed_By_Jordi_Ruz)-(ARDI3792)-WEB-2017-2FAST4U
2017-06-16 22:45:08 12.Monkeys.S02E12.German.DL.DUBBED.1080p.BluRay.x264-AIDA
2017-06-16 22:46:05 12.Monkeys.S02E12.German.DL.DUBBED.720p.BluRay.x264-AIDA
2017-06-16 22:46:20 CKY-The_Phoenix-2017-FATHEAD
2017-06-16 22:47:02 12.Monkeys.S02E12.German.DUBBED.BDRip.x264-AIDA
2017-06-16 22:47:22 CKY-The_Phoenix-CD-FLAC-2017-FATHEAD
2017-06-16 22:47:39 The.Flash.S03E13.Angriff.auf.Gorilla.City.GERMAN.DUBBED.DL.720p.WebHD.h264-euHD
2017-06-16 22:48:01 12.Monkeys.S02E13.German.DL.DUBBED.1080p.BluRay.x264-AIDA
2017-06-16 22:48:57 12.Monkeys.S02E13.German.DL.DUBBED.720p.BluRay.x264-AIDA
2017-06-16 22:49:54 12.Monkeys.S02E13.German.DUBBED.BDRip.x264-AIDA
2017-06-16 22:50:50 Alan_Morris_-_Born_(Amir_Hussain_Extended_Mix)-(MPURE095)-WEB-2017-MMS
2017-06-16 22:51:04 VA-Dub_Techno_District_Vol_6-(CITYNOISES141)-WEB-2017-2FAST4U
2017-06-16 22:51:24 Aley_And_Oshay_Ft_Angel_Falls_-_Coming_Back_To_Live-(SCR099)-WEB-2017-MMS
2017-06-16 22:52:04 Vadim_Spark_And_Cari_-_Beat_Of_My_Heart-(VOICE025)-WEB-2017-MMS
2017-06-16 22:52:53 Rezrog.Update.v1.0.4-BAT
2017-06-16 22:53:17 Berserk.Second.Season.E12.FiNAL.SUBFRENCH.1080p.WEBRip.X264-SLEEPINGFOREST
2017-06-16 22:53:35 Hinako.Note.E11.SUBFRENCH.1080p.WEBRip.X264-SLEEPINGFOREST
2017-06-16 22:53:46 Nobunaga.no.Shinobi.Second.Season.E11.SUBFRENCH.1080p.WEBRip.X264-SLEEPINGFOREST
2017-06-16 22:53:58 Seikai.Suru.Kado.E10.SUBFRENCH.1080p.WEBRip.X264-SLEEPINGFOREST
2017-06-16 22:54:10 Sin.Nanatsu.no.Taizai.E09.SUBFRENCH.1080p.WEBRip.X264-SLEEPINGFOREST
2017-06-16 22:54:15 Dying.Light.The.Following.Enhanced.Edition.Update.v1.12.2-BAT
2017-06-16 22:54:24 Tsuki.ga.Kirei.E10.SUBFRENCH.1080p.WEBRip.X264-SLEEPINGFOREST
2017-06-16 22:54:39 Twin.Angel.Break.E11.SUBFRENCH.1080p.WEBRip.X264-SLEEPINGFOREST
2017-06-16 22:54:57 Berserk.Second.Season.E12.FiNAL.SUBFRENCH.720p.WEBRip.X264-SLEEPINGFOREST
2017-06-16 22:55:08 Hinako.Note.E11.SUBFRENCH.720p.WEBRip.X264-SLEEPINGFOREST
2017-06-16 22:55:22 Nobunaga.no.Shinobi.Second.Season.E11.SUBFRENCH.720p.WEBRip.X264-SLEEPINGFOREST
2017-06-16 22:55:34 Seikai.Suru.Kado.E10.SUBFRENCH.720p.WEBRip.X264-SLEEPINGFOREST
2017-06-16 22:55:50 Sin.Nanatsu.no.Taizai.E09.SUBFRENCH.720p.WEBRip.X264-SLEEPINGFOREST
2017-06-16 22:56:01 Dying.Light.The.Following.Enhanced.Edition.Update.v1.12.2.GERMAN-0x0007
2017-06-16 22:56:04 Tsuki.ga.Kirei.E10.SUBFRENCH.720p.WEBRip.X264-SLEEPINGFOREST
2017-06-16 22:56:25 Twin.Angel.Break.E11.SUBFRENCH.720p.WEBRip.X264-SLEEPINGFOREST
2017-06-16 22:58:21 VA-Club_2017__2_New__Hot_Hits-(10121961)-WEB-2017-2FAST4U
2017-06-16 22:59:21 Sahara.2017.FRENCH.BDRip.x264-PRiDEHD
2017-06-16 22:59:31 Sahara.2017.FRENCH.720p.BluRay.x264-LOST
2017-06-16 23:01:19 Sahara.2017.NORWEGIAN.WEBRip.x264-MoA
2017-06-16 23:03:48 Sahara.2017.FRENCH.1080p.BluRay.x264-LOST
2017-06-16 23:03:57 Hospital.People.S01E06.720p.HDTV.x264-MTB
2017-06-16 23:05:03 Sahara.2017.SWEDISH.WEBRip.x264-MoA
2017-06-16 23:05:12 Law.and.Order.SVU.S18E18.FRENCH.720p.HDTV.x264-SH0W
2017-06-16 23:05:33 Hospital.People.S01E06.1080p.HDTV.H264-MTB
2017-06-16 23:06:40 Sahara.2017.DANISH.720p.WEBRip.x264-MoA
2017-06-16 23:07:43 Hospital.People.S01E06.HDTV.x264-MTB
2017-06-16 23:08:00 Sahara.2017.NORWEGIAN.720p.WEBRip.x264-MoA
2017-06-16 23:08:18 VA-Nothing_But_House_Music_Essentials_Vol_1-(NBHME001)-WEB-2017-2FAST4U
2017-06-16 23:08:32 Rosewood.S01E04.FRENCH.1080p.HDTV.x264-Ryotox
2017-06-16 23:09:44 Sahara.2017.SWEDISH.720p.WEBRip.x264-MoA
2017-06-16 23:10:25 DJ_Bob_and_Fabobeatz-She_Bad_(feat_Jermanee)-SINGLE-WEB-2017-ENRAGED
2017-06-16 23:10:41 FreeWifi-EGO-SINGLE-WEB-2017-ENRAGED
2017-06-16 23:10:56 Rory_Fresco-LowKey-SINGLE-WEB-2016-ENRAGED
2017-06-16 23:11:12 TK_Kravitz-Space_(feat_Sexton)-SINGLE-WEB-2017-ENRAGED
2017-06-16 23:11:27 TK_Kravitz-TK_Kravitz-WEB-2016-ENRAGED
2017-06-16 23:11:39 Bounty_Killer-Irrelevant_Rime-7INCH_VINYL-FLAC-1997-YARD
2017-06-16 23:11:42 TK_Kravitz_CaSh_Out_and_9th_Ward_Baby_Jesus-Come_Easy-SINGLE-WEB-2016-ENRAGED
2017-06-16 23:11:53 Sahara.2017.DANISH.1080p.WEBRip.x264-MoA
2017-06-16 23:12:07 Bounty_Killer-Irrelevant_Rime-7INCH_VINYL-FLAC-1997-YA
2017-06-16 23:12:11 Dyler_Silver-Bionics-WEB-2017-2FAST4U
2017-06-16 23:15:52 Danmachi.Is.It.Wrong.To.Try.To.Pick.Up.Girls.In.A.Dungeon.S01E01.1080p.BluRay.x264-TENEIGHTY
2017-06-16 23:16:05 Sahara.2017.NORWEGIAN.1080p.WEBRip.x264-MoA
2017-06-16 23:16:37 Die.Pfefferkoerner.S13E01.Der.raetselhafte.Kleiderraub.German.WS.720p.WEBHD.x264-SQUiZZiEs
2017-06-16 23:16:44 Black.Lagoon.S01E01.ANIME.SPANiSH.1080p.BluRay.x264-FERiCE
2017-06-16 23:16:53 Have.I.Got.News.For.You.S53E09.1080p.HDTV.x264-QPEL
2017-06-16 23:17:16 Law.and.Order.SVU.S18E18.FRENCH.HDTV.x264-AMB3R
2017-06-16 23:17:20 Danmachi.Is.It.Wrong.To.Try.To.Pick.Up.Girls.In.A.Dungeon.S01E02.1080p.BluRay.x264-TENEIGHTY
2017-06-16 23:17:48 Black.Lagoon.S01E01.ANIME.SPANiSH.720p.BluRay.x264-FERiCE
2017-06-16 23:18:03 Sahara.2017.SWEDISH.1080p.WEBRip.x264-MoA
2017-06-16 23:18:12 Black.Lagoon.S01E01.ANIME.SPANiSH.BDRip.x264-FERiCE
2017-06-16 23:18:13 Die.Pfefferkoerner.S13E01.Der.raetselhafte.Kleiderraub.German.WS.WEBRIP.x264-SQUiZZiEs
2017-06-16 23:19:47 Black.Lagoon.S01E02.ANIME.SPANiSH.1080p.BluRay.x264-FERiCE
2017-06-16 23:20:09 Danmachi.Is.It.Wrong.To.Try.To.Pick.Up.Girls.In.A.Dungeon.S01E03.1080p.BluRay.x264-TENEIGHTY
2017-06-16 23:20:50 Black.Lagoon.S01E02.ANIME.SPANiSH.720p.BluRay.x264-FERiCE
2017-06-16 23:21:12 Black.Lagoon.S01E02.ANIME.SPANiSH.BDRip.x264-FERiCE
2017-06-16 23:21:43 Danmachi.Is.It.Wrong.To.Try.To.Pick.Up.Girls.In.A.Dungeon.S01E04.1080p.BluRay.x264-TENEIGHTY
2017-06-16 23:23:38 Danmachi.Is.It.Wrong.To.Try.To.Pick.Up.Girls.In.A.Dungeon.S01E05.1080p.BluRay.x264-TENEIGHTY
2017-06-16 23:25:03 Black.Lagoon.S01E03.ANIME.SPANiSH.1080p.BluRay.x264-FERiCE
2017-06-16 23:26:12 Danmachi.Is.It.Wrong.To.Try.To.Pick.Up.Girls.In.A.Dungeon.S01E06.1080p.BluRay.x264-TENEIGHTY
2017-06-16 23:26:16 Black.Lagoon.S01E03.ANIME.SPANiSH.720p.BluRay.x264-FERiCE
2017-06-16 23:26:34 Black.Lagoon.S01E03.ANIME.SPANiSH.BDRip.x264-FERiCE
2017-06-16 23:27:19 Juste.un.Regard.S01E05.FRENCH.HDTV.x264-AMB3R
2017-06-16 23:28:00 Black.Lagoon.S01E04.ANIME.SPANiSH.1080p.BluRay.x264-FERiCE
2017-06-16 23:28:06 07.Zglos.Sie.E03.POLISH.720p.HDTV.x264-ProPLTV
2017-06-16 23:28:10 Danmachi.Is.It.Wrong.To.Try.To.Pick.Up.Girls.In.A.Dungeon.S01E07.1080p.BluRay.x264-TENEIGHTY
2017-06-16 23:29:06 Black.Lagoon.S01E04.ANIME.SPANiSH.720p.BluRay.x264-FERiCE
2017-06-16 23:29:25 Black.Lagoon.S01E04.ANIME.SPANiSH.BDRip.x264-FERiCE
2017-06-16 23:30:08 Danmachi.Is.It.Wrong.To.Try.To.Pick.Up.Girls.In.A.Dungeon.S01E08.1080p.BluRay.x264-TENEIGHTY
2017-06-16 23:32:59 Danmachi.Is.It.Wrong.To.Try.To.Pick.Up.Girls.In.A.Dungeon.S01E09.1080p.BluRay.x264-TENEIGHTY
2017-06-16 23:34:00 Black.Lagoon.S01E05.ANIME.SPANiSH.1080p.BluRay.x264-FERiCE
2017-06-16 23:34:41 VA-Slr_Trance_Vol14-(SLR176)-WEB-2017-2FAST4U
2017-06-16 23:34:57 Danmachi.Is.It.Wrong.To.Try.To.Pick.Up.Girls.In.A.Dungeon.S01E10.1080p.BluRay.x264-TENEIGHTY
2017-06-16 23:35:03 Black.Lagoon.S01E05.ANIME.SPANiSH.720p.BluRay.x264-FERiCE
2017-06-16 23:35:21 Black.Lagoon.S01E05.ANIME.SPANiSH.BDRip.x264-FERiCE
2017-06-16 23:36:37 Danmachi.Is.It.Wrong.To.Try.To.Pick.Up.Girls.In.A.Dungeon.S01E11.1080p.BluRay.x264-TENEIGHTY
2017-06-16 23:36:55 Black.Lagoon.S01E06.ANIME.SPANiSH.1080p.BluRay.x264-FERiCE
2017-06-16 23:37:02 Greg_James_-_BBC_Radio_1s_Dance_Anthems-SAT-06-16-2017-TALiON
2017-06-16 23:38:02 Annie_Mac_-_BBC_Radio1__Incl_Kolsch_Mini_Mix-SAT-06-16-2017-TALiON
2017-06-16 23:38:05 Black.Lagoon.S01E06.ANIME.SPANiSH.720p.BluRay.x264-FERiCE
2017-06-16 23:38:11 Penthouse.16.05.12.Marie.McCray.in.Toe.Sucking.Birthday.XXX.1080p.MP4-GUSH
2017-06-16 23:38:25 Danmachi.Is.It.Wrong.To.Try.To.Pick.Up.Girls.In.A.Dungeon.S01E12.1080p.BluRay.x264-TENEIGHTY
2017-06-16 23:38:37 Black.Lagoon.S01E06.ANIME.SPANiSH.BDRip.x264-FERiCE
2017-06-16 23:39:01 DJ_Target_-_BBC1Xtra-SAT-06-16-2017-TALiON
2017-06-16 23:40:04 Nitro.Circus.Live.S02E05.720p.HDTV.x264-MiNDTHEGAP
2017-06-16 23:40:05 Nitro.Circus.Live.S02E05.720p.HDTV.x264-MiNDTHEGP
2017-06-16 23:40:10 Armas-Metsasta_Kuuluu-FI-2016-gF
2017-06-16 23:40:34 Nitro.Circus.Live.S02E06.720p.HDTV.x264-MiNDTHEGAP
2017-06-16 23:40:35 Black.Lagoon.S01E07.ANIME.SPANiSH.1080p.BluRay.x264-FERiCE
2017-06-16 23:40:57 Danmachi.Is.It.Wrong.To.Try.To.Pick.Up.Girls.In.A.Dungeon.S01E13.1080p.BluRay.x264-TENEIGHTY
2017-06-16 23:40:57 Detour_33-Tamed_by_Fear-2017-gF
2017-06-16 23:41:04 Nitro.Circus.Live.S02E05.HDTV.x264-MiNDTHEGAP
2017-06-16 23:41:33 Nitro.Circus.Live.S02E06.HDTV.x264-MiNDTHEGAP
2017-06-16 23:41:38 Disco_Ensemble-Afterlife-2017-gF
2017-06-16 23:42:10 Black.Lagoon.S01E07.ANIME.SPANiSH.720p.BluRay.x264-FERiCE
2017-06-16 23:42:20 Hellhound-Soitetaan_Rock_N_Rollia-FI-2017-gF
2017-06-16 23:42:28 Black.Lagoon.S01E07.ANIME.SPANiSH.BDRip.x264-FERiCE
2017-06-16 23:42:41 Best.Of.Skavlan.2017.SWEDiSH.720p.HDTV.x264-CCCAM
2017-06-16 23:43:03 Murg-Gudatall-2016-gF
2017-06-16 23:43:46 Relentless-A_Loving_Memory-2017-gF
2017-06-16 23:44:27 Saattue-Karsimysnaytelma-2016-gF
2017-06-16 23:44:29 Lorde-Melodrama-2017-C4
2017-06-16 23:45:10 Spiritus_Mortis-The_Year_is_One-2016-gF
2017-06-16 23:45:35 Frankie.Boyles.New.World.Order.S01E02.720p.HDTV.x264-QPEL
2017-06-16 23:45:40 Lil_Frostino-One_Love_To_No_One-WEB-2015-ESG
2017-06-16 23:45:44 Shipping.Wars.S02E01.720p.WEB.h264-TASTETV
2017-06-16 23:45:48 Tottersson-Ampari-FI-2017-gF
2017-06-16 23:46:03 Chance.S01E05.POLISH.720p.HDTV.x264-ProPLTV
2017-06-16 23:46:45 Black.Lagoon.S01E08.ANIME.SPANiSH.1080p.BluRay.x264-FERiCE
2017-06-16 23:46:52 Shipping.Wars.S02E02.720p.WEB.h264-TASTETV
2017-06-16 23:47:25 MrMiet-In_Mourning-(DSR00000032)-WEB-2017-2FAST4U
2017-06-16 23:47:53 Black.Lagoon.S01E08.ANIME.SPANiSH.720p.BluRay.x264-FERiCE
2017-06-16 23:47:55 Shipping.Wars.S02E03.720p.WEB.h264-TASTETV
2017-06-16 23:48:12 Black.Lagoon.S01E08.ANIME.SPANiSH.BDRip.x264-FERiCE
2017-06-16 23:48:41 Gefangen.S01E01.German.Doku.WebRip.x264-BiGiNT
2017-06-16 23:48:58 Shipping.Wars.S02E04.720p.WEB.h264-TASTETV
2017-06-16 23:49:34 Gefangen.S01E01.German.Doku.720p.WebHD.x264-BiGiNT
2017-06-16 23:49:36 Black.Lagoon.S01E09.ANIME.SPANiSH.1080p.BluRay.x264-FERiCE
2017-06-16 23:50:03 Shipping.Wars.S02E05.720p.WEB.h264-TASTETV
2017-06-16 23:50:18 Gefangen.S01E01.German.Doku.1080p.WebHD.x264-BiGiNT
2017-06-16 23:50:34 Chance.S01E06.POLISH.720p.HDTV.x264-ProPLTV
2017-06-16 23:50:35 Rattle-Sinun_Tahden-FI-2002-gF_INT
2017-06-16 23:50:40 Black.Lagoon.S01E09.ANIME.SPANiSH.720p.BluRay.x264-FERiCE
2017-06-16 23:50:55 Lamebot-Strains_Variety_Pack_Ep_3-WEB-2017-2FAST4U
2017-06-16 23:51:03 Black.Lagoon.S01E09.ANIME.SPANiSH.BDRip.x264-FERiCE
2017-06-16 23:51:07 Shipping.Wars.S02E06.720p.WEB.h264-TASTETV
2017-06-16 23:52:09 Shipping.Wars.S02E07.720p.WEB.h264-TASTETV
2017-06-16 23:52:30 Alle.For.Tre.2017.DANISH.720p.BluRay.x264-CONDITION
2017-06-16 23:53:01 Black.Lagoon.S01E10.ANIME.SPANiSH.1080p.BluRay.x264-FERiCE
2017-06-16 23:53:09 Roovel_Oobik-Popsubterranea-1992-gF_INT
2017-06-16 23:53:14 Shipping.Wars.S02E08.INTERNAL.720p.WEB.h264-TASTETV
2017-06-16 23:54:12 Black.Lagoon.S01E10.ANIME.SPANiSH.720p.BluRay.x264-FERiCE
2017-06-16 23:54:16 Shipping.Wars.S02E09.720p.WEB.h264-TASTETV
2017-06-16 23:54:32 Black.Lagoon.S01E10.ANIME.SPANiSH.BDRip.x264-FERiCE
2017-06-16 23:54:35 The.Ranch.S02E06.1080p.WEBRip.x264-WEBiF
2017-06-16 23:55:18 Warpath-Against_Everyone-1994-gF_INT
2017-06-16 23:55:19 Shipping.Wars.S02E10.720p.WEB.h264-TASTETV
2017-06-16 23:55:35 Hinterland.S03E01.POLISH.720p.HDTV.x264-ProPLTV
2017-06-16 23:56:08 Black.Lagoon.S01E11.ANIME.SPANiSH.1080p.BluRay.x264-FERiCE
2017-06-16 23:56:23 Shipping.Wars.S02E11.720p.WEB.h264-TASTETV
2017-06-16 23:57:10 Black.Lagoon.S01E11.ANIME.SPANiSH.720p.BluRay.x264-FERiCE
2017-06-16 23:57:24 Black.Lagoon.S01E11.ANIME.SPANiSH.BDRip.x264-FERiCE
2017-06-16 23:57:26 Shipping.Wars.S02E12.720p.WEB.h264-TASTETV
2017-06-16 23:57:27 Shipping.Wars.S02E12.720p.WEB.h264-TASETV
2017-06-16 23:58:28 Shipping.Wars.S02E13.720p.WEB.h264-TASTETV
2017-06-16 23:59:32 Black.Lagoon.S01E12.FiNAL.ANIME.SPANiSH.1080p.BluRay.x264-FERiCE
2017-06-16 23:59:33 Shipping.Wars.S02E10.1080p.WEB.h264-TASTETV